<?xml version="1.0" encoding="UTF-8" standalone="no" ?>
<gpx xmlns="http://www.topografix.com/GPX/1/1" xmlns:xsi="http://www.w3.org/2001/XMLSchema-instance" xsi:schemaLocation="http://www.topografix.com/GPX/1/1 http://www.topografix.com/GPX/1/1/gpx.xsd" version="1.1" creator="VisuGPX - https://www.visugpx.com">
  <metadata>
    <name>Vélo Randonneuse - Lauraguais Malepère</name>
    <desc><![CDATA[Routes et chemins
]]></desc>
  </metadata>
  <trk>
    <name><![CDATA[08-JUIN-14 14:23:06]]></name>
    <trkseg>
      <trkpt lat="43.21357" lon="2.34122">
        <ele>125.59</ele>
        <time>2014-06-08T09:01:45Z</time>
      </trkpt>
      <trkpt lat="43.21356" lon="2.34124">
        <ele>125.59</ele>
        <time>2014-06-08T09:01:56Z</time>
      </trkpt>
      <trkpt lat="43.21354" lon="2.34124">
        <ele>123.19</ele>
        <time>2014-06-08T09:02:09Z</time>
      </trkpt>
      <trkpt lat="43.21353" lon="2.34126">
        <ele>122.22</ele>
        <time>2014-06-08T09:02:17Z</time>
      </trkpt>
      <trkpt lat="43.21356" lon="2.34126">
        <ele>121.74</ele>
        <time>2014-06-08T09:02:20Z</time>
      </trkpt>
      <trkpt lat="43.21366" lon="2.34128">
        <ele>120.3</ele>
        <time>2014-06-08T09:02:25Z</time>
      </trkpt>
      <trkpt lat="43.21369" lon="2.34126">
        <ele>119.82</ele>
        <time>2014-06-08T09:02:26Z</time>
      </trkpt>
      <trkpt lat="43.21371" lon="2.34121">
        <ele>119.34</ele>
        <time>2014-06-08T09:02:27Z</time>
      </trkpt>
      <trkpt lat="43.21373" lon="2.34116">
        <ele>118.86</ele>
        <time>2014-06-08T09:02:28Z</time>
      </trkpt>
      <trkpt lat="43.21374" lon="2.34111">
        <ele>118.38</ele>
        <time>2014-06-08T09:02:29Z</time>
      </trkpt>
      <trkpt lat="43.21375" lon="2.34105">
        <ele>117.9</ele>
        <time>2014-06-08T09:02:30Z</time>
      </trkpt>
      <trkpt lat="43.21376" lon="2.34099">
        <ele>117.9</ele>
        <time>2014-06-08T09:02:31Z</time>
      </trkpt>
      <trkpt lat="43.21378" lon="2.34094">
        <ele>117.42</ele>
        <time>2014-06-08T09:02:32Z</time>
      </trkpt>
      <trkpt lat="43.21381" lon="2.3409">
        <ele>116.94</ele>
        <time>2014-06-08T09:02:33Z</time>
      </trkpt>
      <trkpt lat="43.21384" lon="2.34087">
        <ele>116.46</ele>
        <time>2014-06-08T09:02:34Z</time>
      </trkpt>
      <trkpt lat="43.21389" lon="2.34085">
        <ele>116.94</ele>
        <time>2014-06-08T09:02:35Z</time>
      </trkpt>
      <trkpt lat="43.21393" lon="2.34083">
        <ele>116.46</ele>
        <time>2014-06-08T09:02:36Z</time>
      </trkpt>
      <trkpt lat="43.21397" lon="2.34079">
        <ele>116.46</ele>
        <time>2014-06-08T09:02:37Z</time>
      </trkpt>
      <trkpt lat="43.21401" lon="2.34074">
        <ele>116.46</ele>
        <time>2014-06-08T09:02:38Z</time>
      </trkpt>
      <trkpt lat="43.21403" lon="2.34068">
        <ele>115.98</ele>
        <time>2014-06-08T09:02:39Z</time>
      </trkpt>
      <trkpt lat="43.21405" lon="2.34061">
        <ele>115.5</ele>
        <time>2014-06-08T09:02:40Z</time>
      </trkpt>
      <trkpt lat="43.21408" lon="2.34056">
        <ele>115.5</ele>
        <time>2014-06-08T09:02:41Z</time>
      </trkpt>
      <trkpt lat="43.21412" lon="2.34051">
        <ele>115.01</ele>
        <time>2014-06-08T09:02:42Z</time>
      </trkpt>
      <trkpt lat="43.21416" lon="2.3405">
        <ele>115.01</ele>
        <time>2014-06-08T09:02:43Z</time>
      </trkpt>
      <trkpt lat="43.21421" lon="2.3405">
        <ele>115.01</ele>
        <time>2014-06-08T09:02:44Z</time>
      </trkpt>
      <trkpt lat="43.21426" lon="2.34051">
        <ele>115.01</ele>
        <time>2014-06-08T09:02:45Z</time>
      </trkpt>
      <trkpt lat="43.21431" lon="2.34052">
        <ele>115.01</ele>
        <time>2014-06-08T09:02:46Z</time>
      </trkpt>
      <trkpt lat="43.21435" lon="2.34054">
        <ele>114.53</ele>
        <time>2014-06-08T09:02:47Z</time>
      </trkpt>
      <trkpt lat="43.21464" lon="2.34054">
        <ele>112.61</ele>
        <time>2014-06-08T09:02:56Z</time>
      </trkpt>
      <trkpt lat="43.21466" lon="2.34049">
        <ele>112.61</ele>
        <time>2014-06-08T09:02:57Z</time>
      </trkpt>
      <trkpt lat="43.21469" lon="2.34044">
        <ele>112.61</ele>
        <time>2014-06-08T09:02:58Z</time>
      </trkpt>
      <trkpt lat="43.21471" lon="2.34038">
        <ele>112.13</ele>
        <time>2014-06-08T09:02:59Z</time>
      </trkpt>
      <trkpt lat="43.21473" lon="2.34033">
        <ele>112.13</ele>
        <time>2014-06-08T09:03:00Z</time>
      </trkpt>
      <trkpt lat="43.21475" lon="2.34028">
        <ele>112.13</ele>
        <time>2014-06-08T09:03:01Z</time>
      </trkpt>
      <trkpt lat="43.21477" lon="2.34023">
        <ele>112.13</ele>
        <time>2014-06-08T09:03:02Z</time>
      </trkpt>
      <trkpt lat="43.2148" lon="2.34018">
        <ele>112.13</ele>
        <time>2014-06-08T09:03:03Z</time>
      </trkpt>
      <trkpt lat="43.21483" lon="2.34012">
        <ele>112.13</ele>
        <time>2014-06-08T09:03:04Z</time>
      </trkpt>
      <trkpt lat="43.21485" lon="2.34006">
        <ele>112.13</ele>
        <time>2014-06-08T09:03:05Z</time>
      </trkpt>
      <trkpt lat="43.2149" lon="2.33993">
        <ele>111.65</ele>
        <time>2014-06-08T09:03:07Z</time>
      </trkpt>
      <trkpt lat="43.21492" lon="2.33986">
        <ele>111.65</ele>
        <time>2014-06-08T09:03:08Z</time>
      </trkpt>
      <trkpt lat="43.21495" lon="2.33979">
        <ele>111.65</ele>
        <time>2014-06-08T09:03:09Z</time>
      </trkpt>
      <trkpt lat="43.21526" lon="2.33885">
        <ele>114.05</ele>
        <time>2014-06-08T09:03:22Z</time>
      </trkpt>
      <trkpt lat="43.21528" lon="2.33878">
        <ele>114.05</ele>
        <time>2014-06-08T09:03:23Z</time>
      </trkpt>
      <trkpt lat="43.21553" lon="2.33807">
        <ele>113.57</ele>
        <time>2014-06-08T09:03:33Z</time>
      </trkpt>
      <trkpt lat="43.21555" lon="2.33801">
        <ele>113.57</ele>
        <time>2014-06-08T09:03:34Z</time>
      </trkpt>
      <trkpt lat="43.21585" lon="2.33709">
        <ele>113.09</ele>
        <time>2014-06-08T09:03:46Z</time>
      </trkpt>
      <trkpt lat="43.2161" lon="2.33636">
        <ele>116.46</ele>
        <time>2014-06-08T09:03:57Z</time>
      </trkpt>
      <trkpt lat="43.21643" lon="2.33539">
        <ele>118.38</ele>
        <time>2014-06-08T09:04:11Z</time>
      </trkpt>
      <trkpt lat="43.21672" lon="2.33455">
        <ele>117.9</ele>
        <time>2014-06-08T09:04:24Z</time>
      </trkpt>
      <trkpt lat="43.21698" lon="2.33375">
        <ele>121.74</ele>
        <time>2014-06-08T09:04:36Z</time>
      </trkpt>
      <trkpt lat="43.21701" lon="2.33368">
        <ele>121.74</ele>
        <time>2014-06-08T09:04:37Z</time>
      </trkpt>
      <trkpt lat="43.21718" lon="2.33322">
        <ele>121.26</ele>
        <time>2014-06-08T09:04:44Z</time>
      </trkpt>
      <trkpt lat="43.21722" lon="2.33309">
        <ele>120.3</ele>
        <time>2014-06-08T09:04:46Z</time>
      </trkpt>
      <trkpt lat="43.21757" lon="2.3321">
        <ele>116.94</ele>
        <time>2014-06-08T09:05:00Z</time>
      </trkpt>
      <trkpt lat="43.21791" lon="2.33128">
        <ele>114.53</ele>
        <time>2014-06-08T09:05:12Z</time>
      </trkpt>
      <trkpt lat="43.21839" lon="2.33057">
        <ele>115.01</ele>
        <time>2014-06-08T09:05:25Z</time>
      </trkpt>
      <trkpt lat="43.21898" lon="2.33">
        <ele>115.98</ele>
        <time>2014-06-08T09:05:38Z</time>
      </trkpt>
      <trkpt lat="43.21927" lon="2.32977">
        <ele>115.98</ele>
        <time>2014-06-08T09:05:44Z</time>
      </trkpt>
      <trkpt lat="43.21976" lon="2.32933">
        <ele>116.46</ele>
        <time>2014-06-08T09:05:55Z</time>
      </trkpt>
      <trkpt lat="43.21984" lon="2.32926">
        <ele>116.94</ele>
        <time>2014-06-08T09:05:57Z</time>
      </trkpt>
      <trkpt lat="43.21991" lon="2.32919">
        <ele>117.42</ele>
        <time>2014-06-08T09:05:59Z</time>
      </trkpt>
      <trkpt lat="43.21998" lon="2.3291">
        <ele>118.38</ele>
        <time>2014-06-08T09:06:01Z</time>
      </trkpt>
      <trkpt lat="43.22042" lon="2.32857">
        <ele>119.82</ele>
        <time>2014-06-08T09:06:12Z</time>
      </trkpt>
      <trkpt lat="43.22046" lon="2.32852">
        <ele>120.3</ele>
        <time>2014-06-08T09:06:13Z</time>
      </trkpt>
      <trkpt lat="43.22092" lon="2.32788">
        <ele>122.22</ele>
        <time>2014-06-08T09:06:25Z</time>
      </trkpt>
      <trkpt lat="43.22096" lon="2.32783">
        <ele>122.22</ele>
        <time>2014-06-08T09:06:26Z</time>
      </trkpt>
      <trkpt lat="43.221" lon="2.32777">
        <ele>122.71</ele>
        <time>2014-06-08T09:06:27Z</time>
      </trkpt>
      <trkpt lat="43.22145" lon="2.32716">
        <ele>124.15</ele>
        <time>2014-06-08T09:06:38Z</time>
      </trkpt>
      <trkpt lat="43.22157" lon="2.32699">
        <ele>123.67</ele>
        <time>2014-06-08T09:06:41Z</time>
      </trkpt>
      <trkpt lat="43.22185" lon="2.32655">
        <ele>119.82</ele>
        <time>2014-06-08T09:06:48Z</time>
      </trkpt>
      <trkpt lat="43.22188" lon="2.32649">
        <ele>119.34</ele>
        <time>2014-06-08T09:06:49Z</time>
      </trkpt>
      <trkpt lat="43.22192" lon="2.32644">
        <ele>118.86</ele>
        <time>2014-06-08T09:06:50Z</time>
      </trkpt>
      <trkpt lat="43.22196" lon="2.32639">
        <ele>118.86</ele>
        <time>2014-06-08T09:06:51Z</time>
      </trkpt>
      <trkpt lat="43.22199" lon="2.32634">
        <ele>118.86</ele>
        <time>2014-06-08T09:06:52Z</time>
      </trkpt>
      <trkpt lat="43.22203" lon="2.32629">
        <ele>118.38</ele>
        <time>2014-06-08T09:06:53Z</time>
      </trkpt>
      <trkpt lat="43.22206" lon="2.32624">
        <ele>118.38</ele>
        <time>2014-06-08T09:06:54Z</time>
      </trkpt>
      <trkpt lat="43.22256" lon="2.3256">
        <ele>113.57</ele>
        <time>2014-06-08T09:07:06Z</time>
      </trkpt>
      <trkpt lat="43.2228" lon="2.32538">
        <ele>113.57</ele>
        <time>2014-06-08T09:07:11Z</time>
      </trkpt>
      <trkpt lat="43.22297" lon="2.32523">
        <ele>115.01</ele>
        <time>2014-06-08T09:07:15Z</time>
      </trkpt>
      <trkpt lat="43.22302" lon="2.32519">
        <ele>115.01</ele>
        <time>2014-06-08T09:07:16Z</time>
      </trkpt>
      <trkpt lat="43.22307" lon="2.32516">
        <ele>115.01</ele>
        <time>2014-06-08T09:07:17Z</time>
      </trkpt>
      <trkpt lat="43.22312" lon="2.32511">
        <ele>115.01</ele>
        <time>2014-06-08T09:07:18Z</time>
      </trkpt>
      <trkpt lat="43.22316" lon="2.32506">
        <ele>114.53</ele>
        <time>2014-06-08T09:07:19Z</time>
      </trkpt>
      <trkpt lat="43.22319" lon="2.32499">
        <ele>114.05</ele>
        <time>2014-06-08T09:07:20Z</time>
      </trkpt>
      <trkpt lat="43.22321" lon="2.32492">
        <ele>114.05</ele>
        <time>2014-06-08T09:07:21Z</time>
      </trkpt>
      <trkpt lat="43.2232" lon="2.32485">
        <ele>113.57</ele>
        <time>2014-06-08T09:07:22Z</time>
      </trkpt>
      <trkpt lat="43.22317" lon="2.32478">
        <ele>113.09</ele>
        <time>2014-06-08T09:07:23Z</time>
      </trkpt>
      <trkpt lat="43.22312" lon="2.32474">
        <ele>112.61</ele>
        <time>2014-06-08T09:07:24Z</time>
      </trkpt>
      <trkpt lat="43.22306" lon="2.32473">
        <ele>112.61</ele>
        <time>2014-06-08T09:07:25Z</time>
      </trkpt>
      <trkpt lat="43.223" lon="2.32475">
        <ele>112.13</ele>
        <time>2014-06-08T09:07:26Z</time>
      </trkpt>
      <trkpt lat="43.22294" lon="2.32477">
        <ele>112.13</ele>
        <time>2014-06-08T09:07:27Z</time>
      </trkpt>
      <trkpt lat="43.22288" lon="2.32479">
        <ele>111.65</ele>
        <time>2014-06-08T09:07:28Z</time>
      </trkpt>
      <trkpt lat="43.22282" lon="2.3248">
        <ele>111.65</ele>
        <time>2014-06-08T09:07:29Z</time>
      </trkpt>
      <trkpt lat="43.22276" lon="2.32478">
        <ele>111.65</ele>
        <time>2014-06-08T09:07:30Z</time>
      </trkpt>
      <trkpt lat="43.22271" lon="2.32474">
        <ele>111.65</ele>
        <time>2014-06-08T09:07:31Z</time>
      </trkpt>
      <trkpt lat="43.22265" lon="2.32469">
        <ele>111.17</ele>
        <time>2014-06-08T09:07:32Z</time>
      </trkpt>
      <trkpt lat="43.2226" lon="2.32465">
        <ele>111.17</ele>
        <time>2014-06-08T09:07:33Z</time>
      </trkpt>
      <trkpt lat="43.22209" lon="2.32421">
        <ele>109.73</ele>
        <time>2014-06-08T09:07:43Z</time>
      </trkpt>
      <trkpt lat="43.22203" lon="2.32419">
        <ele>109.25</ele>
        <time>2014-06-08T09:07:44Z</time>
      </trkpt>
      <trkpt lat="43.22104" lon="2.32382">
        <ele>108.29</ele>
        <time>2014-06-08T09:08:01Z</time>
      </trkpt>
      <trkpt lat="43.22004" lon="2.32358">
        <ele>108.77</ele>
        <time>2014-06-08T09:08:19Z</time>
      </trkpt>
      <trkpt lat="43.21888" lon="2.32332">
        <ele>111.65</ele>
        <time>2014-06-08T09:08:41Z</time>
      </trkpt>
      <trkpt lat="43.21863" lon="2.32326">
        <ele>112.61</ele>
        <time>2014-06-08T09:08:46Z</time>
      </trkpt>
      <trkpt lat="43.21767" lon="2.32306">
        <ele>112.13</ele>
        <time>2014-06-08T09:09:03Z</time>
      </trkpt>
      <trkpt lat="43.21673" lon="2.32284">
        <ele>115.98</ele>
        <time>2014-06-08T09:09:21Z</time>
      </trkpt>
      <trkpt lat="43.21573" lon="2.3226">
        <ele>117.42</ele>
        <time>2014-06-08T09:09:41Z</time>
      </trkpt>
      <trkpt lat="43.21549" lon="2.32246">
        <ele>116.46</ele>
        <time>2014-06-08T09:09:46Z</time>
      </trkpt>
      <trkpt lat="43.21545" lon="2.32242">
        <ele>116.46</ele>
        <time>2014-06-08T09:09:47Z</time>
      </trkpt>
      <trkpt lat="43.21522" lon="2.32225">
        <ele>116.46</ele>
        <time>2014-06-08T09:09:52Z</time>
      </trkpt>
      <trkpt lat="43.21517" lon="2.32223">
        <ele>116.46</ele>
        <time>2014-06-08T09:09:53Z</time>
      </trkpt>
      <trkpt lat="43.21512" lon="2.32222">
        <ele>116.46</ele>
        <time>2014-06-08T09:09:54Z</time>
      </trkpt>
      <trkpt lat="43.21498" lon="2.3222">
        <ele>116.46</ele>
        <time>2014-06-08T09:09:57Z</time>
      </trkpt>
      <trkpt lat="43.21494" lon="2.32217">
        <ele>115.98</ele>
        <time>2014-06-08T09:09:58Z</time>
      </trkpt>
      <trkpt lat="43.2149" lon="2.32213">
        <ele>115.98</ele>
        <time>2014-06-08T09:09:59Z</time>
      </trkpt>
      <trkpt lat="43.21488" lon="2.32208">
        <ele>115.5</ele>
        <time>2014-06-08T09:10:00Z</time>
      </trkpt>
      <trkpt lat="43.21488" lon="2.32202">
        <ele>115.5</ele>
        <time>2014-06-08T09:10:01Z</time>
      </trkpt>
      <trkpt lat="43.21489" lon="2.32196">
        <ele>115.5</ele>
        <time>2014-06-08T09:10:02Z</time>
      </trkpt>
      <trkpt lat="43.21492" lon="2.3219">
        <ele>115.5</ele>
        <time>2014-06-08T09:10:03Z</time>
      </trkpt>
      <trkpt lat="43.21494" lon="2.32184">
        <ele>115.5</ele>
        <time>2014-06-08T09:10:04Z</time>
      </trkpt>
      <trkpt lat="43.21498" lon="2.32178">
        <ele>115.5</ele>
        <time>2014-06-08T09:10:05Z</time>
      </trkpt>
      <trkpt lat="43.21556" lon="2.32055">
        <ele>116.46</ele>
        <time>2014-06-08T09:10:24Z</time>
      </trkpt>
      <trkpt lat="43.21615" lon="2.31918">
        <ele>119.82</ele>
        <time>2014-06-08T09:10:45Z</time>
      </trkpt>
      <trkpt lat="43.2166" lon="2.31757">
        <ele>123.19</ele>
        <time>2014-06-08T09:11:07Z</time>
      </trkpt>
      <trkpt lat="43.21684" lon="2.31599">
        <ele>125.11</ele>
        <time>2014-06-08T09:11:29Z</time>
      </trkpt>
      <trkpt lat="43.21704" lon="2.31437">
        <ele>126.07</ele>
        <time>2014-06-08T09:11:50Z</time>
      </trkpt>
      <trkpt lat="43.21722" lon="2.3128">
        <ele>127.03</ele>
        <time>2014-06-08T09:12:10Z</time>
      </trkpt>
      <trkpt lat="43.2175" lon="2.31086">
        <ele>126.55</ele>
        <time>2014-06-08T09:12:33Z</time>
      </trkpt>
      <trkpt lat="43.2178" lon="2.30927">
        <ele>127.51</ele>
        <time>2014-06-08T09:12:52Z</time>
      </trkpt>
      <trkpt lat="43.21823" lon="2.30777">
        <ele>127.51</ele>
        <time>2014-06-08T09:13:11Z</time>
      </trkpt>
      <trkpt lat="43.21873" lon="2.30616">
        <ele>123.67</ele>
        <time>2014-06-08T09:13:27Z</time>
      </trkpt>
      <trkpt lat="43.21921" lon="2.30461">
        <ele>125.59</ele>
        <time>2014-06-08T09:13:43Z</time>
      </trkpt>
      <trkpt lat="43.21955" lon="2.30351">
        <ele>129.43</ele>
        <time>2014-06-08T09:13:59Z</time>
      </trkpt>
      <trkpt lat="43.21988" lon="2.30248">
        <ele>129.92</ele>
        <time>2014-06-08T09:14:17Z</time>
      </trkpt>
      <trkpt lat="43.22027" lon="2.30148">
        <ele>126.55</ele>
        <time>2014-06-08T09:14:32Z</time>
      </trkpt>
      <trkpt lat="43.22093" lon="2.30017">
        <ele>120.78</ele>
        <time>2014-06-08T09:14:46Z</time>
      </trkpt>
      <trkpt lat="43.22145" lon="2.29913">
        <ele>116.46</ele>
        <time>2014-06-08T09:14:57Z</time>
      </trkpt>
      <trkpt lat="43.22145" lon="2.29907">
        <ele>116.46</ele>
        <time>2014-06-08T09:14:58Z</time>
      </trkpt>
      <trkpt lat="43.22144" lon="2.299">
        <ele>115.98</ele>
        <time>2014-06-08T09:14:59Z</time>
      </trkpt>
      <trkpt lat="43.2214" lon="2.29893">
        <ele>115.98</ele>
        <time>2014-06-08T09:15:00Z</time>
      </trkpt>
      <trkpt lat="43.22137" lon="2.29886">
        <ele>115.98</ele>
        <time>2014-06-08T09:15:01Z</time>
      </trkpt>
      <trkpt lat="43.22098" lon="2.29819">
        <ele>116.46</ele>
        <time>2014-06-08T09:15:11Z</time>
      </trkpt>
      <trkpt lat="43.22096" lon="2.29811">
        <ele>116.46</ele>
        <time>2014-06-08T09:15:12Z</time>
      </trkpt>
      <trkpt lat="43.22067" lon="2.29718">
        <ele>116.46</ele>
        <time>2014-06-08T09:15:24Z</time>
      </trkpt>
      <trkpt lat="43.22047" lon="2.29591">
        <ele>116.46</ele>
        <time>2014-06-08T09:15:39Z</time>
      </trkpt>
      <trkpt lat="43.22045" lon="2.29574">
        <ele>116.46</ele>
        <time>2014-06-08T09:15:41Z</time>
      </trkpt>
      <trkpt lat="43.22041" lon="2.2949">
        <ele>115.98</ele>
        <time>2014-06-08T09:15:51Z</time>
      </trkpt>
      <trkpt lat="43.22039" lon="2.29482">
        <ele>115.98</ele>
        <time>2014-06-08T09:15:52Z</time>
      </trkpt>
      <trkpt lat="43.22036" lon="2.29475">
        <ele>115.98</ele>
        <time>2014-06-08T09:15:53Z</time>
      </trkpt>
      <trkpt lat="43.22032" lon="2.29469">
        <ele>115.98</ele>
        <time>2014-06-08T09:15:54Z</time>
      </trkpt>
      <trkpt lat="43.22028" lon="2.29463">
        <ele>115.98</ele>
        <time>2014-06-08T09:15:55Z</time>
      </trkpt>
      <trkpt lat="43.22017" lon="2.29445">
        <ele>116.46</ele>
        <time>2014-06-08T09:15:58Z</time>
      </trkpt>
      <trkpt lat="43.22014" lon="2.29439">
        <ele>116.46</ele>
        <time>2014-06-08T09:15:59Z</time>
      </trkpt>
      <trkpt lat="43.22012" lon="2.29432">
        <ele>116.46</ele>
        <time>2014-06-08T09:16:00Z</time>
      </trkpt>
      <trkpt lat="43.22012" lon="2.29424">
        <ele>116.46</ele>
        <time>2014-06-08T09:16:01Z</time>
      </trkpt>
      <trkpt lat="43.22013" lon="2.29417">
        <ele>116.46</ele>
        <time>2014-06-08T09:16:02Z</time>
      </trkpt>
      <trkpt lat="43.22014" lon="2.29409">
        <ele>116.46</ele>
        <time>2014-06-08T09:16:03Z</time>
      </trkpt>
      <trkpt lat="43.22035" lon="2.29287">
        <ele>116.94</ele>
        <time>2014-06-08T09:16:19Z</time>
      </trkpt>
      <trkpt lat="43.22034" lon="2.29279">
        <ele>116.94</ele>
        <time>2014-06-08T09:16:20Z</time>
      </trkpt>
      <trkpt lat="43.22032" lon="2.29272">
        <ele>116.94</ele>
        <time>2014-06-08T09:16:21Z</time>
      </trkpt>
      <trkpt lat="43.22028" lon="2.29267">
        <ele>116.94</ele>
        <time>2014-06-08T09:16:22Z</time>
      </trkpt>
      <trkpt lat="43.22023" lon="2.29264">
        <ele>116.94</ele>
        <time>2014-06-08T09:16:23Z</time>
      </trkpt>
      <trkpt lat="43.22018" lon="2.29262">
        <ele>116.94</ele>
        <time>2014-06-08T09:16:24Z</time>
      </trkpt>
      <trkpt lat="43.22012" lon="2.29261">
        <ele>116.94</ele>
        <time>2014-06-08T09:16:25Z</time>
      </trkpt>
      <trkpt lat="43.22007" lon="2.29261">
        <ele>116.94</ele>
        <time>2014-06-08T09:16:26Z</time>
      </trkpt>
      <trkpt lat="43.21912" lon="2.29249">
        <ele>118.86</ele>
        <time>2014-06-08T09:16:44Z</time>
      </trkpt>
      <trkpt lat="43.2189" lon="2.29246">
        <ele>118.86</ele>
        <time>2014-06-08T09:16:48Z</time>
      </trkpt>
      <trkpt lat="43.21819" lon="2.29238">
        <ele>120.3</ele>
        <time>2014-06-08T09:17:02Z</time>
      </trkpt>
      <trkpt lat="43.21785" lon="2.29233">
        <ele>122.22</ele>
        <time>2014-06-08T09:17:09Z</time>
      </trkpt>
      <trkpt lat="43.21781" lon="2.2923">
        <ele>122.22</ele>
        <time>2014-06-08T09:17:10Z</time>
      </trkpt>
      <trkpt lat="43.21778" lon="2.29225">
        <ele>122.22</ele>
        <time>2014-06-08T09:17:11Z</time>
      </trkpt>
      <trkpt lat="43.21775" lon="2.29219">
        <ele>122.22</ele>
        <time>2014-06-08T09:17:12Z</time>
      </trkpt>
      <trkpt lat="43.21773" lon="2.29213">
        <ele>122.22</ele>
        <time>2014-06-08T09:17:13Z</time>
      </trkpt>
      <trkpt lat="43.21771" lon="2.29206">
        <ele>122.22</ele>
        <time>2014-06-08T09:17:14Z</time>
      </trkpt>
      <trkpt lat="43.21739" lon="2.29079">
        <ele>120.3</ele>
        <time>2014-06-08T09:17:31Z</time>
      </trkpt>
      <trkpt lat="43.21704" lon="2.2895">
        <ele>119.82</ele>
        <time>2014-06-08T09:17:48Z</time>
      </trkpt>
      <trkpt lat="43.21667" lon="2.28811">
        <ele>122.22</ele>
        <time>2014-06-08T09:18:08Z</time>
      </trkpt>
      <trkpt lat="43.21651" lon="2.28759">
        <ele>123.19</ele>
        <time>2014-06-08T09:18:16Z</time>
      </trkpt>
      <trkpt lat="43.21645" lon="2.28714">
        <ele>124.15</ele>
        <time>2014-06-08T09:18:23Z</time>
      </trkpt>
      <trkpt lat="43.21646" lon="2.28709">
        <ele>124.15</ele>
        <time>2014-06-08T09:18:24Z</time>
      </trkpt>
      <trkpt lat="43.21647" lon="2.28704">
        <ele>124.15</ele>
        <time>2014-06-08T09:18:25Z</time>
      </trkpt>
      <trkpt lat="43.2165" lon="2.287">
        <ele>124.63</ele>
        <time>2014-06-08T09:18:26Z</time>
      </trkpt>
      <trkpt lat="43.21652" lon="2.28697">
        <ele>124.63</ele>
        <time>2014-06-08T09:18:27Z</time>
      </trkpt>
      <trkpt lat="43.21656" lon="2.28696">
        <ele>125.11</ele>
        <time>2014-06-08T09:18:28Z</time>
      </trkpt>
      <trkpt lat="43.2166" lon="2.28697">
        <ele>124.63</ele>
        <time>2014-06-08T09:18:29Z</time>
      </trkpt>
      <trkpt lat="43.21663" lon="2.287">
        <ele>125.11</ele>
        <time>2014-06-08T09:18:30Z</time>
      </trkpt>
      <trkpt lat="43.21664" lon="2.28724">
        <ele>124.63</ele>
        <time>2014-06-08T09:18:36Z</time>
      </trkpt>
      <trkpt lat="43.21665" lon="2.28728">
        <ele>125.11</ele>
        <time>2014-06-08T09:18:47Z</time>
      </trkpt>
      <trkpt lat="43.21664" lon="2.28728">
        <ele>125.59</ele>
        <time>2014-06-08T09:19:13Z</time>
      </trkpt>
      <trkpt lat="43.21663" lon="2.28727">
        <ele>125.59</ele>
        <time>2014-06-08T09:19:34Z</time>
      </trkpt>
      <trkpt lat="43.21662" lon="2.28726">
        <ele>124.15</ele>
        <time>2014-06-08T09:19:56Z</time>
      </trkpt>
      <trkpt lat="43.21663" lon="2.28723">
        <ele>124.15</ele>
        <time>2014-06-08T09:19:59Z</time>
      </trkpt>
      <trkpt lat="43.21664" lon="2.28708">
        <ele>123.67</ele>
        <time>2014-06-08T09:20:04Z</time>
      </trkpt>
      <trkpt lat="43.21668" lon="2.28699">
        <ele>123.67</ele>
        <time>2014-06-08T09:20:06Z</time>
      </trkpt>
      <trkpt lat="43.21672" lon="2.28695">
        <ele>123.67</ele>
        <time>2014-06-08T09:20:07Z</time>
      </trkpt>
      <trkpt lat="43.21677" lon="2.28693">
        <ele>123.67</ele>
        <time>2014-06-08T09:20:08Z</time>
      </trkpt>
      <trkpt lat="43.21682" lon="2.28692">
        <ele>123.67</ele>
        <time>2014-06-08T09:20:09Z</time>
      </trkpt>
      <trkpt lat="43.21688" lon="2.28691">
        <ele>123.67</ele>
        <time>2014-06-08T09:20:10Z</time>
      </trkpt>
      <trkpt lat="43.21742" lon="2.28687">
        <ele>123.67</ele>
        <time>2014-06-08T09:20:19Z</time>
      </trkpt>
      <trkpt lat="43.21829" lon="2.28677">
        <ele>120.3</ele>
        <time>2014-06-08T09:20:33Z</time>
      </trkpt>
      <trkpt lat="43.21916" lon="2.28665">
        <ele>118.38</ele>
        <time>2014-06-08T09:20:46Z</time>
      </trkpt>
      <trkpt lat="43.22006" lon="2.28652">
        <ele>118.86</ele>
        <time>2014-06-08T09:21:00Z</time>
      </trkpt>
      <trkpt lat="43.22069" lon="2.28644">
        <ele>119.82</ele>
        <time>2014-06-08T09:21:10Z</time>
      </trkpt>
      <trkpt lat="43.22074" lon="2.2864">
        <ele>119.82</ele>
        <time>2014-06-08T09:21:11Z</time>
      </trkpt>
      <trkpt lat="43.22077" lon="2.28633">
        <ele>119.82</ele>
        <time>2014-06-08T09:21:12Z</time>
      </trkpt>
      <trkpt lat="43.22079" lon="2.28625">
        <ele>119.34</ele>
        <time>2014-06-08T09:21:13Z</time>
      </trkpt>
      <trkpt lat="43.2208" lon="2.28617">
        <ele>119.34</ele>
        <time>2014-06-08T09:21:14Z</time>
      </trkpt>
      <trkpt lat="43.22082" lon="2.28608">
        <ele>119.34</ele>
        <time>2014-06-08T09:21:15Z</time>
      </trkpt>
      <trkpt lat="43.221" lon="2.28486">
        <ele>119.34</ele>
        <time>2014-06-08T09:21:30Z</time>
      </trkpt>
      <trkpt lat="43.22102" lon="2.28472">
        <ele>119.82</ele>
        <time>2014-06-08T09:21:32Z</time>
      </trkpt>
      <trkpt lat="43.22103" lon="2.28465">
        <ele>119.82</ele>
        <time>2014-06-08T09:21:33Z</time>
      </trkpt>
      <trkpt lat="43.22105" lon="2.28441">
        <ele>120.3</ele>
        <time>2014-06-08T09:21:37Z</time>
      </trkpt>
      <trkpt lat="43.22106" lon="2.28434">
        <ele>120.78</ele>
        <time>2014-06-08T09:21:38Z</time>
      </trkpt>
      <trkpt lat="43.22108" lon="2.28415">
        <ele>121.26</ele>
        <time>2014-06-08T09:21:41Z</time>
      </trkpt>
      <trkpt lat="43.2211" lon="2.28395">
        <ele>121.26</ele>
        <time>2014-06-08T09:21:44Z</time>
      </trkpt>
      <trkpt lat="43.22111" lon="2.28381">
        <ele>121.26</ele>
        <time>2014-06-08T09:21:46Z</time>
      </trkpt>
      <trkpt lat="43.22112" lon="2.28374">
        <ele>121.26</ele>
        <time>2014-06-08T09:21:47Z</time>
      </trkpt>
      <trkpt lat="43.22113" lon="2.28359">
        <ele>121.26</ele>
        <time>2014-06-08T09:21:49Z</time>
      </trkpt>
      <trkpt lat="43.22116" lon="2.28322">
        <ele>121.26</ele>
        <time>2014-06-08T09:21:54Z</time>
      </trkpt>
      <trkpt lat="43.22147" lon="2.28205">
        <ele>123.19</ele>
        <time>2014-06-08T09:22:11Z</time>
      </trkpt>
      <trkpt lat="43.2215" lon="2.28189">
        <ele>123.19</ele>
        <time>2014-06-08T09:22:13Z</time>
      </trkpt>
      <trkpt lat="43.22151" lon="2.28181">
        <ele>123.19</ele>
        <time>2014-06-08T09:22:14Z</time>
      </trkpt>
      <trkpt lat="43.22151" lon="2.28173">
        <ele>123.19</ele>
        <time>2014-06-08T09:22:15Z</time>
      </trkpt>
      <trkpt lat="43.22151" lon="2.28164">
        <ele>122.71</ele>
        <time>2014-06-08T09:22:16Z</time>
      </trkpt>
      <trkpt lat="43.22151" lon="2.28155">
        <ele>122.71</ele>
        <time>2014-06-08T09:22:17Z</time>
      </trkpt>
      <trkpt lat="43.22147" lon="2.28088">
        <ele>120.78</ele>
        <time>2014-06-08T09:22:24Z</time>
      </trkpt>
      <trkpt lat="43.22149" lon="2.28068">
        <ele>120.3</ele>
        <time>2014-06-08T09:22:26Z</time>
      </trkpt>
      <trkpt lat="43.22151" lon="2.28058">
        <ele>120.3</ele>
        <time>2014-06-08T09:22:27Z</time>
      </trkpt>
      <trkpt lat="43.2219" lon="2.27903">
        <ele>119.82</ele>
        <time>2014-06-08T09:22:43Z</time>
      </trkpt>
      <trkpt lat="43.22225" lon="2.27761">
        <ele>121.74</ele>
        <time>2014-06-08T09:22:59Z</time>
      </trkpt>
      <trkpt lat="43.22253" lon="2.2763">
        <ele>124.15</ele>
        <time>2014-06-08T09:23:16Z</time>
      </trkpt>
      <trkpt lat="43.22281" lon="2.27491">
        <ele>126.07</ele>
        <time>2014-06-08T09:23:35Z</time>
      </trkpt>
      <trkpt lat="43.2231" lon="2.27344">
        <ele>127.99</ele>
        <time>2014-06-08T09:23:55Z</time>
      </trkpt>
      <trkpt lat="43.22316" lon="2.27216">
        <ele>131.36</ele>
        <time>2014-06-08T09:24:13Z</time>
      </trkpt>
      <trkpt lat="43.22311" lon="2.27091">
        <ele>136.64</ele>
        <time>2014-06-08T09:24:32Z</time>
      </trkpt>
      <trkpt lat="43.22286" lon="2.26983">
        <ele>136.16</ele>
        <time>2014-06-08T09:24:47Z</time>
      </trkpt>
      <trkpt lat="43.22286" lon="2.26975">
        <ele>136.16</ele>
        <time>2014-06-08T09:24:48Z</time>
      </trkpt>
      <trkpt lat="43.22287" lon="2.26967">
        <ele>136.16</ele>
        <time>2014-06-08T09:24:49Z</time>
      </trkpt>
      <trkpt lat="43.22289" lon="2.26959">
        <ele>136.16</ele>
        <time>2014-06-08T09:24:50Z</time>
      </trkpt>
      <trkpt lat="43.22291" lon="2.26952">
        <ele>135.68</ele>
        <time>2014-06-08T09:24:51Z</time>
      </trkpt>
      <trkpt lat="43.22294" lon="2.26945">
        <ele>136.16</ele>
        <time>2014-06-08T09:24:52Z</time>
      </trkpt>
      <trkpt lat="43.22305" lon="2.26915">
        <ele>135.68</ele>
        <time>2014-06-08T09:24:56Z</time>
      </trkpt>
      <trkpt lat="43.22307" lon="2.26907">
        <ele>135.68</ele>
        <time>2014-06-08T09:24:57Z</time>
      </trkpt>
      <trkpt lat="43.22308" lon="2.26899">
        <ele>135.68</ele>
        <time>2014-06-08T09:24:58Z</time>
      </trkpt>
      <trkpt lat="43.2233" lon="2.26743">
        <ele>133.76</ele>
        <time>2014-06-08T09:25:17Z</time>
      </trkpt>
      <trkpt lat="43.22349" lon="2.26605">
        <ele>132.8</ele>
        <time>2014-06-08T09:25:33Z</time>
      </trkpt>
      <trkpt lat="43.2236" lon="2.26464">
        <ele>135.68</ele>
        <time>2014-06-08T09:25:51Z</time>
      </trkpt>
      <trkpt lat="43.22357" lon="2.2642">
        <ele>137.61</ele>
        <time>2014-06-08T09:25:58Z</time>
      </trkpt>
      <trkpt lat="43.22348" lon="2.26331">
        <ele>143.37</ele>
        <time>2014-06-08T09:26:13Z</time>
      </trkpt>
      <trkpt lat="43.22346" lon="2.26302">
        <ele>145.3</ele>
        <time>2014-06-08T09:26:18Z</time>
      </trkpt>
      <trkpt lat="43.22345" lon="2.26296">
        <ele>145.78</ele>
        <time>2014-06-08T09:26:19Z</time>
      </trkpt>
      <trkpt lat="43.22345" lon="2.26291">
        <ele>146.26</ele>
        <time>2014-06-08T09:26:20Z</time>
      </trkpt>
      <trkpt lat="43.22341" lon="2.26228">
        <ele>150.1</ele>
        <time>2014-06-08T09:26:31Z</time>
      </trkpt>
      <trkpt lat="43.22341" lon="2.26222">
        <ele>150.58</ele>
        <time>2014-06-08T09:26:32Z</time>
      </trkpt>
      <trkpt lat="43.22341" lon="2.26211">
        <ele>151.06</ele>
        <time>2014-06-08T09:26:34Z</time>
      </trkpt>
      <trkpt lat="43.22341" lon="2.26194">
        <ele>152.03</ele>
        <time>2014-06-08T09:26:37Z</time>
      </trkpt>
      <trkpt lat="43.2234" lon="2.2616">
        <ele>153.95</ele>
        <time>2014-06-08T09:26:43Z</time>
      </trkpt>
      <trkpt lat="43.22341" lon="2.26154">
        <ele>153.95</ele>
        <time>2014-06-08T09:26:44Z</time>
      </trkpt>
      <trkpt lat="43.22342" lon="2.26142">
        <ele>154.43</ele>
        <time>2014-06-08T09:26:46Z</time>
      </trkpt>
      <trkpt lat="43.22349" lon="2.26082">
        <ele>154.91</ele>
        <time>2014-06-08T09:26:56Z</time>
      </trkpt>
      <trkpt lat="43.22351" lon="2.26076">
        <ele>154.91</ele>
        <time>2014-06-08T09:26:57Z</time>
      </trkpt>
      <trkpt lat="43.22353" lon="2.2607">
        <ele>154.91</ele>
        <time>2014-06-08T09:26:58Z</time>
      </trkpt>
      <trkpt lat="43.22355" lon="2.26064">
        <ele>154.91</ele>
        <time>2014-06-08T09:26:59Z</time>
      </trkpt>
      <trkpt lat="43.22358" lon="2.26058">
        <ele>154.91</ele>
        <time>2014-06-08T09:27:00Z</time>
      </trkpt>
      <trkpt lat="43.22395" lon="2.25956">
        <ele>155.39</ele>
        <time>2014-06-08T09:27:17Z</time>
      </trkpt>
      <trkpt lat="43.22401" lon="2.25927">
        <ele>155.39</ele>
        <time>2014-06-08T09:27:21Z</time>
      </trkpt>
      <trkpt lat="43.22408" lon="2.25823">
        <ele>155.87</ele>
        <time>2014-06-08T09:27:35Z</time>
      </trkpt>
      <trkpt lat="43.22409" lon="2.25816">
        <ele>155.87</ele>
        <time>2014-06-08T09:27:36Z</time>
      </trkpt>
      <trkpt lat="43.22422" lon="2.25712">
        <ele>156.83</ele>
        <time>2014-06-08T09:27:51Z</time>
      </trkpt>
      <trkpt lat="43.22419" lon="2.25664">
        <ele>157.31</ele>
        <time>2014-06-08T09:27:58Z</time>
      </trkpt>
      <trkpt lat="43.22419" lon="2.25635">
        <ele>157.79</ele>
        <time>2014-06-08T09:28:04Z</time>
      </trkpt>
      <trkpt lat="43.22428" lon="2.25609">
        <ele>156.83</ele>
        <time>2014-06-08T09:28:10Z</time>
      </trkpt>
      <trkpt lat="43.22443" lon="2.25589">
        <ele>155.39</ele>
        <time>2014-06-08T09:28:14Z</time>
      </trkpt>
      <trkpt lat="43.22468" lon="2.25557">
        <ele>152.99</ele>
        <time>2014-06-08T09:28:20Z</time>
      </trkpt>
      <trkpt lat="43.2247" lon="2.25552">
        <ele>152.99</ele>
        <time>2014-06-08T09:28:21Z</time>
      </trkpt>
      <trkpt lat="43.22472" lon="2.25547">
        <ele>152.51</ele>
        <time>2014-06-08T09:28:22Z</time>
      </trkpt>
      <trkpt lat="43.22476" lon="2.25545">
        <ele>152.51</ele>
        <time>2014-06-08T09:28:23Z</time>
      </trkpt>
      <trkpt lat="43.22481" lon="2.25545">
        <ele>152.51</ele>
        <time>2014-06-08T09:28:24Z</time>
      </trkpt>
      <trkpt lat="43.22485" lon="2.25547">
        <ele>152.03</ele>
        <time>2014-06-08T09:28:25Z</time>
      </trkpt>
      <trkpt lat="43.22488" lon="2.2555">
        <ele>152.03</ele>
        <time>2014-06-08T09:28:26Z</time>
      </trkpt>
      <trkpt lat="43.22492" lon="2.25552">
        <ele>151.54</ele>
        <time>2014-06-08T09:28:27Z</time>
      </trkpt>
      <trkpt lat="43.22517" lon="2.25555">
        <ele>150.58</ele>
        <time>2014-06-08T09:28:34Z</time>
      </trkpt>
      <trkpt lat="43.22519" lon="2.25551">
        <ele>150.58</ele>
        <time>2014-06-08T09:28:35Z</time>
      </trkpt>
      <trkpt lat="43.2252" lon="2.25546">
        <ele>150.58</ele>
        <time>2014-06-08T09:28:36Z</time>
      </trkpt>
      <trkpt lat="43.22522" lon="2.25541">
        <ele>151.06</ele>
        <time>2014-06-08T09:28:37Z</time>
      </trkpt>
      <trkpt lat="43.22523" lon="2.25536">
        <ele>151.06</ele>
        <time>2014-06-08T09:28:38Z</time>
      </trkpt>
      <trkpt lat="43.22524" lon="2.2553">
        <ele>151.06</ele>
        <time>2014-06-08T09:28:39Z</time>
      </trkpt>
      <trkpt lat="43.22528" lon="2.25505">
        <ele>150.58</ele>
        <time>2014-06-08T09:28:44Z</time>
      </trkpt>
      <trkpt lat="43.22529" lon="2.25486">
        <ele>150.58</ele>
        <time>2014-06-08T09:28:47Z</time>
      </trkpt>
      <trkpt lat="43.22531" lon="2.25458">
        <ele>149.62</ele>
        <time>2014-06-08T09:28:51Z</time>
      </trkpt>
      <trkpt lat="43.22531" lon="2.25451">
        <ele>149.62</ele>
        <time>2014-06-08T09:28:52Z</time>
      </trkpt>
      <trkpt lat="43.22529" lon="2.25446">
        <ele>149.14</ele>
        <time>2014-06-08T09:28:53Z</time>
      </trkpt>
      <trkpt lat="43.22527" lon="2.25441">
        <ele>148.66</ele>
        <time>2014-06-08T09:28:54Z</time>
      </trkpt>
      <trkpt lat="43.22524" lon="2.25436">
        <ele>148.18</ele>
        <time>2014-06-08T09:28:55Z</time>
      </trkpt>
      <trkpt lat="43.22521" lon="2.2543">
        <ele>147.7</ele>
        <time>2014-06-08T09:28:56Z</time>
      </trkpt>
      <trkpt lat="43.22517" lon="2.25427">
        <ele>147.22</ele>
        <time>2014-06-08T09:28:57Z</time>
      </trkpt>
      <trkpt lat="43.22511" lon="2.25425">
        <ele>146.74</ele>
        <time>2014-06-08T09:28:58Z</time>
      </trkpt>
      <trkpt lat="43.22505" lon="2.25424">
        <ele>145.78</ele>
        <time>2014-06-08T09:28:59Z</time>
      </trkpt>
      <trkpt lat="43.22501" lon="2.25423">
        <ele>145.3</ele>
        <time>2014-06-08T09:29:00Z</time>
      </trkpt>
      <trkpt lat="43.22499" lon="2.2542">
        <ele>145.3</ele>
        <time>2014-06-08T09:29:01Z</time>
      </trkpt>
      <trkpt lat="43.22498" lon="2.25415">
        <ele>144.82</ele>
        <time>2014-06-08T09:29:02Z</time>
      </trkpt>
      <trkpt lat="43.225" lon="2.2541">
        <ele>144.82</ele>
        <time>2014-06-08T09:29:03Z</time>
      </trkpt>
      <trkpt lat="43.22504" lon="2.25405">
        <ele>144.34</ele>
        <time>2014-06-08T09:29:04Z</time>
      </trkpt>
      <trkpt lat="43.22507" lon="2.25399">
        <ele>143.85</ele>
        <time>2014-06-08T09:29:05Z</time>
      </trkpt>
      <trkpt lat="43.2251" lon="2.25393">
        <ele>143.85</ele>
        <time>2014-06-08T09:29:06Z</time>
      </trkpt>
      <trkpt lat="43.22513" lon="2.25387">
        <ele>143.85</ele>
        <time>2014-06-08T09:29:07Z</time>
      </trkpt>
      <trkpt lat="43.22517" lon="2.25381">
        <ele>143.85</ele>
        <time>2014-06-08T09:29:08Z</time>
      </trkpt>
      <trkpt lat="43.2252" lon="2.25374">
        <ele>143.37</ele>
        <time>2014-06-08T09:29:09Z</time>
      </trkpt>
      <trkpt lat="43.22532" lon="2.25353">
        <ele>141.93</ele>
        <time>2014-06-08T09:29:12Z</time>
      </trkpt>
      <trkpt lat="43.22544" lon="2.25326">
        <ele>140.01</ele>
        <time>2014-06-08T09:29:15Z</time>
      </trkpt>
      <trkpt lat="43.22549" lon="2.25317">
        <ele>139.53</ele>
        <time>2014-06-08T09:29:16Z</time>
      </trkpt>
      <trkpt lat="43.22555" lon="2.2531">
        <ele>139.05</ele>
        <time>2014-06-08T09:29:17Z</time>
      </trkpt>
      <trkpt lat="43.22561" lon="2.25302">
        <ele>138.57</ele>
        <time>2014-06-08T09:29:18Z</time>
      </trkpt>
      <trkpt lat="43.22567" lon="2.25293">
        <ele>138.09</ele>
        <time>2014-06-08T09:29:19Z</time>
      </trkpt>
      <trkpt lat="43.22571" lon="2.25283">
        <ele>137.61</ele>
        <time>2014-06-08T09:29:20Z</time>
      </trkpt>
      <trkpt lat="43.22575" lon="2.25273">
        <ele>137.13</ele>
        <time>2014-06-08T09:29:21Z</time>
      </trkpt>
      <trkpt lat="43.22582" lon="2.2525">
        <ele>136.16</ele>
        <time>2014-06-08T09:29:23Z</time>
      </trkpt>
      <trkpt lat="43.22608" lon="2.25104">
        <ele>131.84</ele>
        <time>2014-06-08T09:29:35Z</time>
      </trkpt>
      <trkpt lat="43.22609" lon="2.25091">
        <ele>131.84</ele>
        <time>2014-06-08T09:29:36Z</time>
      </trkpt>
      <trkpt lat="43.22608" lon="2.25079">
        <ele>131.84</ele>
        <time>2014-06-08T09:29:37Z</time>
      </trkpt>
      <trkpt lat="43.22604" lon="2.25069">
        <ele>131.36</ele>
        <time>2014-06-08T09:29:38Z</time>
      </trkpt>
      <trkpt lat="43.22598" lon="2.2506">
        <ele>131.36</ele>
        <time>2014-06-08T09:29:39Z</time>
      </trkpt>
      <trkpt lat="43.22592" lon="2.25052">
        <ele>131.36</ele>
        <time>2014-06-08T09:29:40Z</time>
      </trkpt>
      <trkpt lat="43.22587" lon="2.25042">
        <ele>130.88</ele>
        <time>2014-06-08T09:29:41Z</time>
      </trkpt>
      <trkpt lat="43.22584" lon="2.25032">
        <ele>130.88</ele>
        <time>2014-06-08T09:29:42Z</time>
      </trkpt>
      <trkpt lat="43.22581" lon="2.25021">
        <ele>130.88</ele>
        <time>2014-06-08T09:29:43Z</time>
      </trkpt>
      <trkpt lat="43.2258" lon="2.2501">
        <ele>130.88</ele>
        <time>2014-06-08T09:29:44Z</time>
      </trkpt>
      <trkpt lat="43.2258" lon="2.24999">
        <ele>130.4</ele>
        <time>2014-06-08T09:29:45Z</time>
      </trkpt>
      <trkpt lat="43.22581" lon="2.24987">
        <ele>129.92</ele>
        <time>2014-06-08T09:29:46Z</time>
      </trkpt>
      <trkpt lat="43.2258" lon="2.24976">
        <ele>129.92</ele>
        <time>2014-06-08T09:29:47Z</time>
      </trkpt>
      <trkpt lat="43.22579" lon="2.24964">
        <ele>129.43</ele>
        <time>2014-06-08T09:29:48Z</time>
      </trkpt>
      <trkpt lat="43.22577" lon="2.24953">
        <ele>129.43</ele>
        <time>2014-06-08T09:29:49Z</time>
      </trkpt>
      <trkpt lat="43.22573" lon="2.24941">
        <ele>128.95</ele>
        <time>2014-06-08T09:29:50Z</time>
      </trkpt>
      <trkpt lat="43.2257" lon="2.2493">
        <ele>128.47</ele>
        <time>2014-06-08T09:29:51Z</time>
      </trkpt>
      <trkpt lat="43.22558" lon="2.24897">
        <ele>127.99</ele>
        <time>2014-06-08T09:29:54Z</time>
      </trkpt>
      <trkpt lat="43.22556" lon="2.24885">
        <ele>127.99</ele>
        <time>2014-06-08T09:29:55Z</time>
      </trkpt>
      <trkpt lat="43.22556" lon="2.24873">
        <ele>127.99</ele>
        <time>2014-06-08T09:29:56Z</time>
      </trkpt>
      <trkpt lat="43.22559" lon="2.24862">
        <ele>127.99</ele>
        <time>2014-06-08T09:29:57Z</time>
      </trkpt>
      <trkpt lat="43.22563" lon="2.24851">
        <ele>127.99</ele>
        <time>2014-06-08T09:29:58Z</time>
      </trkpt>
      <trkpt lat="43.22568" lon="2.24842">
        <ele>127.51</ele>
        <time>2014-06-08T09:29:59Z</time>
      </trkpt>
      <trkpt lat="43.22573" lon="2.24832">
        <ele>127.51</ele>
        <time>2014-06-08T09:30:00Z</time>
      </trkpt>
      <trkpt lat="43.22609" lon="2.24764">
        <ele>127.03</ele>
        <time>2014-06-08T09:30:07Z</time>
      </trkpt>
      <trkpt lat="43.22613" lon="2.24753">
        <ele>127.03</ele>
        <time>2014-06-08T09:30:08Z</time>
      </trkpt>
      <trkpt lat="43.22662" lon="2.2457">
        <ele>125.11</ele>
        <time>2014-06-08T09:30:24Z</time>
      </trkpt>
      <trkpt lat="43.22685" lon="2.24384">
        <ele>123.67</ele>
        <time>2014-06-08T09:30:39Z</time>
      </trkpt>
      <trkpt lat="43.22685" lon="2.24371">
        <ele>123.19</ele>
        <time>2014-06-08T09:30:40Z</time>
      </trkpt>
      <trkpt lat="43.22684" lon="2.24359">
        <ele>123.19</ele>
        <time>2014-06-08T09:30:41Z</time>
      </trkpt>
      <trkpt lat="43.22681" lon="2.24347">
        <ele>123.19</ele>
        <time>2014-06-08T09:30:42Z</time>
      </trkpt>
      <trkpt lat="43.22676" lon="2.24336">
        <ele>122.71</ele>
        <time>2014-06-08T09:30:43Z</time>
      </trkpt>
      <trkpt lat="43.22671" lon="2.24326">
        <ele>122.71</ele>
        <time>2014-06-08T09:30:44Z</time>
      </trkpt>
      <trkpt lat="43.22666" lon="2.24316">
        <ele>122.71</ele>
        <time>2014-06-08T09:30:45Z</time>
      </trkpt>
      <trkpt lat="43.22642" lon="2.24268">
        <ele>123.19</ele>
        <time>2014-06-08T09:30:50Z</time>
      </trkpt>
      <trkpt lat="43.22641" lon="2.24257">
        <ele>123.19</ele>
        <time>2014-06-08T09:30:51Z</time>
      </trkpt>
      <trkpt lat="43.22642" lon="2.24247">
        <ele>123.19</ele>
        <time>2014-06-08T09:30:52Z</time>
      </trkpt>
      <trkpt lat="43.22674" lon="2.24099">
        <ele>123.19</ele>
        <time>2014-06-08T09:31:07Z</time>
      </trkpt>
      <trkpt lat="43.22693" lon="2.2396">
        <ele>123.19</ele>
        <time>2014-06-08T09:31:21Z</time>
      </trkpt>
      <trkpt lat="43.22704" lon="2.23874">
        <ele>126.07</ele>
        <time>2014-06-08T09:31:31Z</time>
      </trkpt>
      <trkpt lat="43.22705" lon="2.23822">
        <ele>127.03</ele>
        <time>2014-06-08T09:31:37Z</time>
      </trkpt>
      <trkpt lat="43.22705" lon="2.23814">
        <ele>127.51</ele>
        <time>2014-06-08T09:31:38Z</time>
      </trkpt>
      <trkpt lat="43.22705" lon="2.23788">
        <ele>128.47</ele>
        <time>2014-06-08T09:31:41Z</time>
      </trkpt>
      <trkpt lat="43.22706" lon="2.2378">
        <ele>128.47</ele>
        <time>2014-06-08T09:31:42Z</time>
      </trkpt>
      <trkpt lat="43.22708" lon="2.23772">
        <ele>128.95</ele>
        <time>2014-06-08T09:31:43Z</time>
      </trkpt>
      <trkpt lat="43.2271" lon="2.23764">
        <ele>128.95</ele>
        <time>2014-06-08T09:31:44Z</time>
      </trkpt>
      <trkpt lat="43.22714" lon="2.23757">
        <ele>128.95</ele>
        <time>2014-06-08T09:31:45Z</time>
      </trkpt>
      <trkpt lat="43.22717" lon="2.2375">
        <ele>128.95</ele>
        <time>2014-06-08T09:31:46Z</time>
      </trkpt>
      <trkpt lat="43.22776" lon="2.23659">
        <ele>126.55</ele>
        <time>2014-06-08T09:31:58Z</time>
      </trkpt>
      <trkpt lat="43.22826" lon="2.23551">
        <ele>124.15</ele>
        <time>2014-06-08T09:32:09Z</time>
      </trkpt>
      <trkpt lat="43.22832" lon="2.23542">
        <ele>124.15</ele>
        <time>2014-06-08T09:32:10Z</time>
      </trkpt>
      <trkpt lat="43.22839" lon="2.23536">
        <ele>124.15</ele>
        <time>2014-06-08T09:32:11Z</time>
      </trkpt>
      <trkpt lat="43.22846" lon="2.23531">
        <ele>124.15</ele>
        <time>2014-06-08T09:32:12Z</time>
      </trkpt>
      <trkpt lat="43.22854" lon="2.23529">
        <ele>124.15</ele>
        <time>2014-06-08T09:32:13Z</time>
      </trkpt>
      <trkpt lat="43.22862" lon="2.23526">
        <ele>124.15</ele>
        <time>2014-06-08T09:32:14Z</time>
      </trkpt>
      <trkpt lat="43.22891" lon="2.23517">
        <ele>124.63</ele>
        <time>2014-06-08T09:32:18Z</time>
      </trkpt>
      <trkpt lat="43.22897" lon="2.23512">
        <ele>124.63</ele>
        <time>2014-06-08T09:32:19Z</time>
      </trkpt>
      <trkpt lat="43.22903" lon="2.23505">
        <ele>124.63</ele>
        <time>2014-06-08T09:32:20Z</time>
      </trkpt>
      <trkpt lat="43.22908" lon="2.23498">
        <ele>124.63</ele>
        <time>2014-06-08T09:32:21Z</time>
      </trkpt>
      <trkpt lat="43.22913" lon="2.23491">
        <ele>125.11</ele>
        <time>2014-06-08T09:32:22Z</time>
      </trkpt>
      <trkpt lat="43.22946" lon="2.23441">
        <ele>127.51</ele>
        <time>2014-06-08T09:32:30Z</time>
      </trkpt>
      <trkpt lat="43.22953" lon="2.23429">
        <ele>128.47</ele>
        <time>2014-06-08T09:32:32Z</time>
      </trkpt>
      <trkpt lat="43.22957" lon="2.23422">
        <ele>128.47</ele>
        <time>2014-06-08T09:32:33Z</time>
      </trkpt>
      <trkpt lat="43.2296" lon="2.23416">
        <ele>128.95</ele>
        <time>2014-06-08T09:32:34Z</time>
      </trkpt>
      <trkpt lat="43.22987" lon="2.23365">
        <ele>132.32</ele>
        <time>2014-06-08T09:32:42Z</time>
      </trkpt>
      <trkpt lat="43.22991" lon="2.2336">
        <ele>132.32</ele>
        <time>2014-06-08T09:32:43Z</time>
      </trkpt>
      <trkpt lat="43.23008" lon="2.2334">
        <ele>133.76</ele>
        <time>2014-06-08T09:32:47Z</time>
      </trkpt>
      <trkpt lat="43.23012" lon="2.23336">
        <ele>134.24</ele>
        <time>2014-06-08T09:32:48Z</time>
      </trkpt>
      <trkpt lat="43.23017" lon="2.23333">
        <ele>134.24</ele>
        <time>2014-06-08T09:32:49Z</time>
      </trkpt>
      <trkpt lat="43.23021" lon="2.23328">
        <ele>134.72</ele>
        <time>2014-06-08T09:32:50Z</time>
      </trkpt>
      <trkpt lat="43.23025" lon="2.23323">
        <ele>134.72</ele>
        <time>2014-06-08T09:32:51Z</time>
      </trkpt>
      <trkpt lat="43.23029" lon="2.23318">
        <ele>134.72</ele>
        <time>2014-06-08T09:32:52Z</time>
      </trkpt>
      <trkpt lat="43.23049" lon="2.23287">
        <ele>133.76</ele>
        <time>2014-06-08T09:32:57Z</time>
      </trkpt>
      <trkpt lat="43.23096" lon="2.23186">
        <ele>130.4</ele>
        <time>2014-06-08T09:33:09Z</time>
      </trkpt>
      <trkpt lat="43.23118" lon="2.23141">
        <ele>128.47</ele>
        <time>2014-06-08T09:33:14Z</time>
      </trkpt>
      <trkpt lat="43.23121" lon="2.23133">
        <ele>127.99</ele>
        <time>2014-06-08T09:33:15Z</time>
      </trkpt>
      <trkpt lat="43.23126" lon="2.23127">
        <ele>127.51</ele>
        <time>2014-06-08T09:33:16Z</time>
      </trkpt>
      <trkpt lat="43.23131" lon="2.23122">
        <ele>127.51</ele>
        <time>2014-06-08T09:33:17Z</time>
      </trkpt>
      <trkpt lat="43.23136" lon="2.23119">
        <ele>127.51</ele>
        <time>2014-06-08T09:33:18Z</time>
      </trkpt>
      <trkpt lat="43.23142" lon="2.23116">
        <ele>127.51</ele>
        <time>2014-06-08T09:33:19Z</time>
      </trkpt>
      <trkpt lat="43.23146" lon="2.23112">
        <ele>127.51</ele>
        <time>2014-06-08T09:33:20Z</time>
      </trkpt>
      <trkpt lat="43.23149" lon="2.23105">
        <ele>127.03</ele>
        <time>2014-06-08T09:33:21Z</time>
      </trkpt>
      <trkpt lat="43.23149" lon="2.23097">
        <ele>127.03</ele>
        <time>2014-06-08T09:33:22Z</time>
      </trkpt>
      <trkpt lat="43.23148" lon="2.2309">
        <ele>127.03</ele>
        <time>2014-06-08T09:33:23Z</time>
      </trkpt>
      <trkpt lat="43.23146" lon="2.23082">
        <ele>126.55</ele>
        <time>2014-06-08T09:33:24Z</time>
      </trkpt>
      <trkpt lat="43.23144" lon="2.23074">
        <ele>126.55</ele>
        <time>2014-06-08T09:33:25Z</time>
      </trkpt>
      <trkpt lat="43.23105" lon="2.2296">
        <ele>125.59</ele>
        <time>2014-06-08T09:33:39Z</time>
      </trkpt>
      <trkpt lat="43.23053" lon="2.22866">
        <ele>125.59</ele>
        <time>2014-06-08T09:33:52Z</time>
      </trkpt>
      <trkpt lat="43.23029" lon="2.22817">
        <ele>126.55</ele>
        <time>2014-06-08T09:33:59Z</time>
      </trkpt>
      <trkpt lat="43.23012" lon="2.22759">
        <ele>127.99</ele>
        <time>2014-06-08T09:34:07Z</time>
      </trkpt>
      <trkpt lat="43.2301" lon="2.22738">
        <ele>128.47</ele>
        <time>2014-06-08T09:34:10Z</time>
      </trkpt>
      <trkpt lat="43.2301" lon="2.22679">
        <ele>128.95</ele>
        <time>2014-06-08T09:34:18Z</time>
      </trkpt>
      <trkpt lat="43.23008" lon="2.22664">
        <ele>128.95</ele>
        <time>2014-06-08T09:34:20Z</time>
      </trkpt>
      <trkpt lat="43.23007" lon="2.22657">
        <ele>129.43</ele>
        <time>2014-06-08T09:34:21Z</time>
      </trkpt>
      <trkpt lat="43.23006" lon="2.22651">
        <ele>129.43</ele>
        <time>2014-06-08T09:34:22Z</time>
      </trkpt>
      <trkpt lat="43.23004" lon="2.22644">
        <ele>129.43</ele>
        <time>2014-06-08T09:34:23Z</time>
      </trkpt>
      <trkpt lat="43.23002" lon="2.22638">
        <ele>129.43</ele>
        <time>2014-06-08T09:34:24Z</time>
      </trkpt>
      <trkpt lat="43.22995" lon="2.22618">
        <ele>129.92</ele>
        <time>2014-06-08T09:34:27Z</time>
      </trkpt>
      <trkpt lat="43.2299" lon="2.22606">
        <ele>130.4</ele>
        <time>2014-06-08T09:34:29Z</time>
      </trkpt>
      <trkpt lat="43.22982" lon="2.22581">
        <ele>130.88</ele>
        <time>2014-06-08T09:34:33Z</time>
      </trkpt>
      <trkpt lat="43.22981" lon="2.22574">
        <ele>130.88</ele>
        <time>2014-06-08T09:34:34Z</time>
      </trkpt>
      <trkpt lat="43.22976" lon="2.22548">
        <ele>131.84</ele>
        <time>2014-06-08T09:34:38Z</time>
      </trkpt>
      <trkpt lat="43.22969" lon="2.22501">
        <ele>132.8</ele>
        <time>2014-06-08T09:34:45Z</time>
      </trkpt>
      <trkpt lat="43.22967" lon="2.22495">
        <ele>133.28</ele>
        <time>2014-06-08T09:34:46Z</time>
      </trkpt>
      <trkpt lat="43.2296" lon="2.22476">
        <ele>134.24</ele>
        <time>2014-06-08T09:34:49Z</time>
      </trkpt>
      <trkpt lat="43.22955" lon="2.22464">
        <ele>134.72</ele>
        <time>2014-06-08T09:34:51Z</time>
      </trkpt>
      <trkpt lat="43.22953" lon="2.22457">
        <ele>134.72</ele>
        <time>2014-06-08T09:34:52Z</time>
      </trkpt>
      <trkpt lat="43.22952" lon="2.2245">
        <ele>134.72</ele>
        <time>2014-06-08T09:34:53Z</time>
      </trkpt>
      <trkpt lat="43.22951" lon="2.22443">
        <ele>135.2</ele>
        <time>2014-06-08T09:34:54Z</time>
      </trkpt>
      <trkpt lat="43.22951" lon="2.22435">
        <ele>135.2</ele>
        <time>2014-06-08T09:34:55Z</time>
      </trkpt>
      <trkpt lat="43.22952" lon="2.22428">
        <ele>135.2</ele>
        <time>2014-06-08T09:34:56Z</time>
      </trkpt>
      <trkpt lat="43.2296" lon="2.22354">
        <ele>134.72</ele>
        <time>2014-06-08T09:35:06Z</time>
      </trkpt>
      <trkpt lat="43.2296" lon="2.22346">
        <ele>134.24</ele>
        <time>2014-06-08T09:35:07Z</time>
      </trkpt>
      <trkpt lat="43.2296" lon="2.22339">
        <ele>134.24</ele>
        <time>2014-06-08T09:35:08Z</time>
      </trkpt>
      <trkpt lat="43.22958" lon="2.22332">
        <ele>134.72</ele>
        <time>2014-06-08T09:35:09Z</time>
      </trkpt>
      <trkpt lat="43.22956" lon="2.22325">
        <ele>134.72</ele>
        <time>2014-06-08T09:35:10Z</time>
      </trkpt>
      <trkpt lat="43.22954" lon="2.22318">
        <ele>134.72</ele>
        <time>2014-06-08T09:35:11Z</time>
      </trkpt>
      <trkpt lat="43.22893" lon="2.22203">
        <ele>136.64</ele>
        <time>2014-06-08T09:35:30Z</time>
      </trkpt>
      <trkpt lat="43.22883" lon="2.22184">
        <ele>136.16</ele>
        <time>2014-06-08T09:35:33Z</time>
      </trkpt>
      <trkpt lat="43.22848" lon="2.22056">
        <ele>136.16</ele>
        <time>2014-06-08T09:35:51Z</time>
      </trkpt>
      <trkpt lat="43.22842" lon="2.22036">
        <ele>136.16</ele>
        <time>2014-06-08T09:35:54Z</time>
      </trkpt>
      <trkpt lat="43.2284" lon="2.22028">
        <ele>136.16</ele>
        <time>2014-06-08T09:35:55Z</time>
      </trkpt>
      <trkpt lat="43.22839" lon="2.22021">
        <ele>136.16</ele>
        <time>2014-06-08T09:35:56Z</time>
      </trkpt>
      <trkpt lat="43.22839" lon="2.22014">
        <ele>135.68</ele>
        <time>2014-06-08T09:35:57Z</time>
      </trkpt>
      <trkpt lat="43.22839" lon="2.22006">
        <ele>135.68</ele>
        <time>2014-06-08T09:35:58Z</time>
      </trkpt>
      <trkpt lat="43.22822" lon="2.2189">
        <ele>133.76</ele>
        <time>2014-06-08T09:36:12Z</time>
      </trkpt>
      <trkpt lat="43.22763" lon="2.21755">
        <ele>131.84</ele>
        <time>2014-06-08T09:36:28Z</time>
      </trkpt>
      <trkpt lat="43.22761" lon="2.21746">
        <ele>131.84</ele>
        <time>2014-06-08T09:36:29Z</time>
      </trkpt>
      <trkpt lat="43.22757" lon="2.21702">
        <ele>130.88</ele>
        <time>2014-06-08T09:36:34Z</time>
      </trkpt>
      <trkpt lat="43.22758" lon="2.21668">
        <ele>130.88</ele>
        <time>2014-06-08T09:36:38Z</time>
      </trkpt>
      <trkpt lat="43.22758" lon="2.2166">
        <ele>131.36</ele>
        <time>2014-06-08T09:36:39Z</time>
      </trkpt>
      <trkpt lat="43.22759" lon="2.21653">
        <ele>131.36</ele>
        <time>2014-06-08T09:36:40Z</time>
      </trkpt>
      <trkpt lat="43.22761" lon="2.21645">
        <ele>130.88</ele>
        <time>2014-06-08T09:36:41Z</time>
      </trkpt>
      <trkpt lat="43.22765" lon="2.21637">
        <ele>130.4</ele>
        <time>2014-06-08T09:36:42Z</time>
      </trkpt>
      <trkpt lat="43.22769" lon="2.21631">
        <ele>130.4</ele>
        <time>2014-06-08T09:36:43Z</time>
      </trkpt>
      <trkpt lat="43.22773" lon="2.21625">
        <ele>130.4</ele>
        <time>2014-06-08T09:36:44Z</time>
      </trkpt>
      <trkpt lat="43.22778" lon="2.21619">
        <ele>129.92</ele>
        <time>2014-06-08T09:36:45Z</time>
      </trkpt>
      <trkpt lat="43.22787" lon="2.21608">
        <ele>129.92</ele>
        <time>2014-06-08T09:36:47Z</time>
      </trkpt>
      <trkpt lat="43.2279" lon="2.216">
        <ele>129.92</ele>
        <time>2014-06-08T09:36:48Z</time>
      </trkpt>
      <trkpt lat="43.22791" lon="2.21592">
        <ele>129.43</ele>
        <time>2014-06-08T09:36:49Z</time>
      </trkpt>
      <trkpt lat="43.22791" lon="2.21583">
        <ele>129.43</ele>
        <time>2014-06-08T09:36:50Z</time>
      </trkpt>
      <trkpt lat="43.2279" lon="2.21574">
        <ele>129.43</ele>
        <time>2014-06-08T09:36:51Z</time>
      </trkpt>
      <trkpt lat="43.22788" lon="2.21565">
        <ele>128.95</ele>
        <time>2014-06-08T09:36:52Z</time>
      </trkpt>
      <trkpt lat="43.22777" lon="2.21522">
        <ele>128.95</ele>
        <time>2014-06-08T09:36:57Z</time>
      </trkpt>
      <trkpt lat="43.22773" lon="2.21515">
        <ele>128.47</ele>
        <time>2014-06-08T09:36:58Z</time>
      </trkpt>
      <trkpt lat="43.22768" lon="2.21511">
        <ele>128.47</ele>
        <time>2014-06-08T09:36:59Z</time>
      </trkpt>
      <trkpt lat="43.22761" lon="2.21508">
        <ele>128.95</ele>
        <time>2014-06-08T09:37:00Z</time>
      </trkpt>
      <trkpt lat="43.22755" lon="2.21506">
        <ele>128.95</ele>
        <time>2014-06-08T09:37:01Z</time>
      </trkpt>
      <trkpt lat="43.22652" lon="2.21476">
        <ele>130.88</ele>
        <time>2014-06-08T09:37:18Z</time>
      </trkpt>
      <trkpt lat="43.22566" lon="2.21448">
        <ele>133.28</ele>
        <time>2014-06-08T09:37:34Z</time>
      </trkpt>
      <trkpt lat="43.2256" lon="2.21446">
        <ele>133.28</ele>
        <time>2014-06-08T09:37:35Z</time>
      </trkpt>
      <trkpt lat="43.22551" lon="2.21441">
        <ele>133.28</ele>
        <time>2014-06-08T09:37:37Z</time>
      </trkpt>
      <trkpt lat="43.22547" lon="2.21437">
        <ele>133.28</ele>
        <time>2014-06-08T09:37:38Z</time>
      </trkpt>
      <trkpt lat="43.22544" lon="2.21432">
        <ele>133.76</ele>
        <time>2014-06-08T09:37:39Z</time>
      </trkpt>
      <trkpt lat="43.22543" lon="2.21426">
        <ele>133.76</ele>
        <time>2014-06-08T09:37:40Z</time>
      </trkpt>
      <trkpt lat="43.22542" lon="2.2142">
        <ele>134.24</ele>
        <time>2014-06-08T09:37:41Z</time>
      </trkpt>
      <trkpt lat="43.22542" lon="2.21415">
        <ele>134.72</ele>
        <time>2014-06-08T09:37:42Z</time>
      </trkpt>
      <trkpt lat="43.22543" lon="2.2141">
        <ele>135.2</ele>
        <time>2014-06-08T09:37:43Z</time>
      </trkpt>
      <trkpt lat="43.22544" lon="2.21405">
        <ele>135.68</ele>
        <time>2014-06-08T09:37:44Z</time>
      </trkpt>
      <trkpt lat="43.22545" lon="2.214">
        <ele>135.68</ele>
        <time>2014-06-08T09:37:45Z</time>
      </trkpt>
      <trkpt lat="43.22549" lon="2.2137">
        <ele>137.13</ele>
        <time>2014-06-08T09:37:51Z</time>
      </trkpt>
      <trkpt lat="43.22549" lon="2.21364">
        <ele>137.61</ele>
        <time>2014-06-08T09:37:52Z</time>
      </trkpt>
      <trkpt lat="43.2255" lon="2.21359">
        <ele>137.61</ele>
        <time>2014-06-08T09:37:53Z</time>
      </trkpt>
      <trkpt lat="43.2255" lon="2.21353">
        <ele>137.61</ele>
        <time>2014-06-08T09:37:54Z</time>
      </trkpt>
      <trkpt lat="43.2255" lon="2.21348">
        <ele>137.61</ele>
        <time>2014-06-08T09:37:55Z</time>
      </trkpt>
      <trkpt lat="43.22551" lon="2.21341">
        <ele>137.13</ele>
        <time>2014-06-08T09:37:56Z</time>
      </trkpt>
      <trkpt lat="43.22559" lon="2.21241">
        <ele>131.84</ele>
        <time>2014-06-08T09:38:07Z</time>
      </trkpt>
      <trkpt lat="43.22571" lon="2.21186">
        <ele>130.88</ele>
        <time>2014-06-08T09:38:13Z</time>
      </trkpt>
      <trkpt lat="43.22584" lon="2.2113">
        <ele>130.4</ele>
        <time>2014-06-08T09:38:22Z</time>
      </trkpt>
      <trkpt lat="43.22585" lon="2.21131">
        <ele>130.88</ele>
        <time>2014-06-08T09:38:39Z</time>
      </trkpt>
      <trkpt lat="43.22584" lon="2.2113">
        <ele>131.84</ele>
        <time>2014-06-08T09:39:22Z</time>
      </trkpt>
      <trkpt lat="43.22584" lon="2.21128">
        <ele>131.84</ele>
        <time>2014-06-08T09:39:31Z</time>
      </trkpt>
      <trkpt lat="43.22584" lon="2.21126">
        <ele>131.84</ele>
        <time>2014-06-08T09:39:32Z</time>
      </trkpt>
      <trkpt lat="43.22576" lon="2.21099">
        <ele>131.84</ele>
        <time>2014-06-08T09:39:38Z</time>
      </trkpt>
      <trkpt lat="43.22575" lon="2.21093">
        <ele>131.84</ele>
        <time>2014-06-08T09:39:39Z</time>
      </trkpt>
      <trkpt lat="43.22542" lon="2.20979">
        <ele>132.32</ele>
        <time>2014-06-08T09:39:55Z</time>
      </trkpt>
      <trkpt lat="43.2251" lon="2.20861">
        <ele>133.76</ele>
        <time>2014-06-08T09:40:11Z</time>
      </trkpt>
      <trkpt lat="43.22453" lon="2.20726">
        <ele>135.2</ele>
        <time>2014-06-08T09:40:30Z</time>
      </trkpt>
      <trkpt lat="43.22407" lon="2.20614">
        <ele>134.72</ele>
        <time>2014-06-08T09:40:45Z</time>
      </trkpt>
      <trkpt lat="43.22364" lon="2.20503">
        <ele>135.2</ele>
        <time>2014-06-08T09:41:00Z</time>
      </trkpt>
      <trkpt lat="43.22324" lon="2.20368">
        <ele>134.72</ele>
        <time>2014-06-08T09:41:17Z</time>
      </trkpt>
      <trkpt lat="43.22317" lon="2.20356">
        <ele>135.2</ele>
        <time>2014-06-08T09:41:19Z</time>
      </trkpt>
      <trkpt lat="43.22314" lon="2.20351">
        <ele>135.2</ele>
        <time>2014-06-08T09:41:20Z</time>
      </trkpt>
      <trkpt lat="43.22309" lon="2.20346">
        <ele>135.2</ele>
        <time>2014-06-08T09:41:21Z</time>
      </trkpt>
      <trkpt lat="43.22304" lon="2.2034">
        <ele>134.72</ele>
        <time>2014-06-08T09:41:22Z</time>
      </trkpt>
      <trkpt lat="43.223" lon="2.20334">
        <ele>134.72</ele>
        <time>2014-06-08T09:41:23Z</time>
      </trkpt>
      <trkpt lat="43.22297" lon="2.20328">
        <ele>134.72</ele>
        <time>2014-06-08T09:41:24Z</time>
      </trkpt>
      <trkpt lat="43.22294" lon="2.20324">
        <ele>134.72</ele>
        <time>2014-06-08T09:41:25Z</time>
      </trkpt>
      <trkpt lat="43.2229" lon="2.2032">
        <ele>134.24</ele>
        <time>2014-06-08T09:41:26Z</time>
      </trkpt>
      <trkpt lat="43.22287" lon="2.20315">
        <ele>134.24</ele>
        <time>2014-06-08T09:41:27Z</time>
      </trkpt>
      <trkpt lat="43.22283" lon="2.20309">
        <ele>134.24</ele>
        <time>2014-06-08T09:41:28Z</time>
      </trkpt>
      <trkpt lat="43.2228" lon="2.20303">
        <ele>133.76</ele>
        <time>2014-06-08T09:41:29Z</time>
      </trkpt>
      <trkpt lat="43.22277" lon="2.20296">
        <ele>133.76</ele>
        <time>2014-06-08T09:41:30Z</time>
      </trkpt>
      <trkpt lat="43.22254" lon="2.20212">
        <ele>134.72</ele>
        <time>2014-06-08T09:41:42Z</time>
      </trkpt>
      <trkpt lat="43.22234" lon="2.20096">
        <ele>135.68</ele>
        <time>2014-06-08T09:41:59Z</time>
      </trkpt>
      <trkpt lat="43.22219" lon="2.19988">
        <ele>137.13</ele>
        <time>2014-06-08T09:42:15Z</time>
      </trkpt>
      <trkpt lat="43.22208" lon="2.19872">
        <ele>138.09</ele>
        <time>2014-06-08T09:42:32Z</time>
      </trkpt>
      <trkpt lat="43.222" lon="2.19799">
        <ele>138.57</ele>
        <time>2014-06-08T09:42:43Z</time>
      </trkpt>
      <trkpt lat="43.22202" lon="2.19685">
        <ele>140.49</ele>
        <time>2014-06-08T09:43:00Z</time>
      </trkpt>
      <trkpt lat="43.22202" lon="2.19657">
        <ele>140.97</ele>
        <time>2014-06-08T09:43:04Z</time>
      </trkpt>
      <trkpt lat="43.22205" lon="2.19552">
        <ele>141.93</ele>
        <time>2014-06-08T09:43:20Z</time>
      </trkpt>
      <trkpt lat="43.22206" lon="2.19534">
        <ele>141.45</ele>
        <time>2014-06-08T09:43:23Z</time>
      </trkpt>
      <trkpt lat="43.22208" lon="2.19529">
        <ele>141.93</ele>
        <time>2014-06-08T09:43:24Z</time>
      </trkpt>
      <trkpt lat="43.2221" lon="2.19524">
        <ele>141.93</ele>
        <time>2014-06-08T09:43:25Z</time>
      </trkpt>
      <trkpt lat="43.22214" lon="2.19523">
        <ele>141.93</ele>
        <time>2014-06-08T09:43:26Z</time>
      </trkpt>
      <trkpt lat="43.22217" lon="2.19523">
        <ele>141.93</ele>
        <time>2014-06-08T09:43:27Z</time>
      </trkpt>
      <trkpt lat="43.22228" lon="2.19519">
        <ele>141.93</ele>
        <time>2014-06-08T09:43:30Z</time>
      </trkpt>
      <trkpt lat="43.22293" lon="2.19491">
        <ele>140.97</ele>
        <time>2014-06-08T09:43:46Z</time>
      </trkpt>
      <trkpt lat="43.22297" lon="2.19489">
        <ele>140.97</ele>
        <time>2014-06-08T09:43:47Z</time>
      </trkpt>
      <trkpt lat="43.22319" lon="2.19483">
        <ele>140.01</ele>
        <time>2014-06-08T09:43:52Z</time>
      </trkpt>
      <trkpt lat="43.22323" lon="2.19481">
        <ele>140.01</ele>
        <time>2014-06-08T09:43:53Z</time>
      </trkpt>
      <trkpt lat="43.22373" lon="2.19463">
        <ele>138.09</ele>
        <time>2014-06-08T09:44:04Z</time>
      </trkpt>
      <trkpt lat="43.22422" lon="2.19423">
        <ele>135.2</ele>
        <time>2014-06-08T09:44:15Z</time>
      </trkpt>
      <trkpt lat="43.22426" lon="2.1942">
        <ele>135.2</ele>
        <time>2014-06-08T09:44:16Z</time>
      </trkpt>
      <trkpt lat="43.22509" lon="2.19371">
        <ele>132.32</ele>
        <time>2014-06-08T09:44:34Z</time>
      </trkpt>
      <trkpt lat="43.22566" lon="2.19342">
        <ele>132.32</ele>
        <time>2014-06-08T09:44:46Z</time>
      </trkpt>
      <trkpt lat="43.22613" lon="2.19291">
        <ele>131.36</ele>
        <time>2014-06-08T09:45:01Z</time>
      </trkpt>
      <trkpt lat="43.22664" lon="2.1925">
        <ele>130.88</ele>
        <time>2014-06-08T09:45:16Z</time>
      </trkpt>
      <trkpt lat="43.22709" lon="2.19207">
        <ele>129.92</ele>
        <time>2014-06-08T09:45:30Z</time>
      </trkpt>
      <trkpt lat="43.22716" lon="2.19202">
        <ele>129.92</ele>
        <time>2014-06-08T09:45:32Z</time>
      </trkpt>
      <trkpt lat="43.2272" lon="2.192">
        <ele>129.92</ele>
        <time>2014-06-08T09:45:33Z</time>
      </trkpt>
      <trkpt lat="43.22724" lon="2.192">
        <ele>129.92</ele>
        <time>2014-06-08T09:45:34Z</time>
      </trkpt>
      <trkpt lat="43.22728" lon="2.19199">
        <ele>129.92</ele>
        <time>2014-06-08T09:45:35Z</time>
      </trkpt>
      <trkpt lat="43.22732" lon="2.192">
        <ele>129.92</ele>
        <time>2014-06-08T09:45:36Z</time>
      </trkpt>
      <trkpt lat="43.2279" lon="2.19208">
        <ele>128.95</ele>
        <time>2014-06-08T09:45:51Z</time>
      </trkpt>
      <trkpt lat="43.22827" lon="2.19221">
        <ele>127.51</ele>
        <time>2014-06-08T09:46:02Z</time>
      </trkpt>
      <trkpt lat="43.22881" lon="2.19214">
        <ele>131.36</ele>
        <time>2014-06-08T09:46:16Z</time>
      </trkpt>
      <trkpt lat="43.22906" lon="2.19228">
        <ele>131.84</ele>
        <time>2014-06-08T09:46:26Z</time>
      </trkpt>
      <trkpt lat="43.22905" lon="2.19228">
        <ele>132.32</ele>
        <time>2014-06-08T09:46:39Z</time>
      </trkpt>
      <trkpt lat="43.22902" lon="2.19228">
        <ele>130.88</ele>
        <time>2014-06-08T09:47:14Z</time>
      </trkpt>
      <trkpt lat="43.22903" lon="2.19228">
        <ele>130.88</ele>
        <time>2014-06-08T09:47:56Z</time>
      </trkpt>
      <trkpt lat="43.22904" lon="2.19228">
        <ele>130.88</ele>
        <time>2014-06-08T09:48:37Z</time>
      </trkpt>
      <trkpt lat="43.22907" lon="2.19229">
        <ele>130.88</ele>
        <time>2014-06-08T09:48:42Z</time>
      </trkpt>
      <trkpt lat="43.2291" lon="2.19231">
        <ele>130.88</ele>
        <time>2014-06-08T09:48:45Z</time>
      </trkpt>
      <trkpt lat="43.22912" lon="2.19233">
        <ele>130.88</ele>
        <time>2014-06-08T09:48:46Z</time>
      </trkpt>
      <trkpt lat="43.22914" lon="2.19235">
        <ele>130.4</ele>
        <time>2014-06-08T09:48:47Z</time>
      </trkpt>
      <trkpt lat="43.22962" lon="2.19273">
        <ele>130.88</ele>
        <time>2014-06-08T09:49:02Z</time>
      </trkpt>
      <trkpt lat="43.22987" lon="2.19294">
        <ele>129.43</ele>
        <time>2014-06-08T09:49:11Z</time>
      </trkpt>
      <trkpt lat="43.22989" lon="2.19293">
        <ele>129.43</ele>
        <time>2014-06-08T09:49:12Z</time>
      </trkpt>
      <trkpt lat="43.2299" lon="2.19289">
        <ele>129.43</ele>
        <time>2014-06-08T09:49:13Z</time>
      </trkpt>
      <trkpt lat="43.2299" lon="2.19285">
        <ele>129.43</ele>
        <time>2014-06-08T09:49:14Z</time>
      </trkpt>
      <trkpt lat="43.22991" lon="2.19281">
        <ele>129.92</ele>
        <time>2014-06-08T09:49:15Z</time>
      </trkpt>
      <trkpt lat="43.22992" lon="2.19277">
        <ele>129.92</ele>
        <time>2014-06-08T09:49:16Z</time>
      </trkpt>
      <trkpt lat="43.23007" lon="2.19274">
        <ele>129.43</ele>
        <time>2014-06-08T09:49:22Z</time>
      </trkpt>
      <trkpt lat="43.23073" lon="2.19296">
        <ele>129.92</ele>
        <time>2014-06-08T09:49:40Z</time>
      </trkpt>
      <trkpt lat="43.23134" lon="2.19316">
        <ele>130.4</ele>
        <time>2014-06-08T09:49:57Z</time>
      </trkpt>
      <trkpt lat="43.23185" lon="2.19332">
        <ele>132.32</ele>
        <time>2014-06-08T09:50:12Z</time>
      </trkpt>
      <trkpt lat="43.23217" lon="2.19339">
        <ele>135.68</ele>
        <time>2014-06-08T09:50:24Z</time>
      </trkpt>
      <trkpt lat="43.23219" lon="2.19332">
        <ele>135.68</ele>
        <time>2014-06-08T09:50:26Z</time>
      </trkpt>
      <trkpt lat="43.23219" lon="2.19327">
        <ele>135.68</ele>
        <time>2014-06-08T09:50:27Z</time>
      </trkpt>
      <trkpt lat="43.23218" lon="2.19307">
        <ele>135.2</ele>
        <time>2014-06-08T09:50:30Z</time>
      </trkpt>
      <trkpt lat="43.23224" lon="2.19219">
        <ele>133.28</ele>
        <time>2014-06-08T09:50:41Z</time>
      </trkpt>
      <trkpt lat="43.23224" lon="2.1921">
        <ele>133.28</ele>
        <time>2014-06-08T09:50:42Z</time>
      </trkpt>
      <trkpt lat="43.23222" lon="2.19201">
        <ele>132.8</ele>
        <time>2014-06-08T09:50:43Z</time>
      </trkpt>
      <trkpt lat="43.23219" lon="2.19193">
        <ele>132.32</ele>
        <time>2014-06-08T09:50:44Z</time>
      </trkpt>
      <trkpt lat="43.23216" lon="2.19185">
        <ele>132.32</ele>
        <time>2014-06-08T09:50:45Z</time>
      </trkpt>
      <trkpt lat="43.23213" lon="2.19176">
        <ele>131.84</ele>
        <time>2014-06-08T09:50:46Z</time>
      </trkpt>
      <trkpt lat="43.23202" lon="2.19144">
        <ele>131.36</ele>
        <time>2014-06-08T09:50:50Z</time>
      </trkpt>
      <trkpt lat="43.232" lon="2.19136">
        <ele>131.36</ele>
        <time>2014-06-08T09:50:51Z</time>
      </trkpt>
      <trkpt lat="43.232" lon="2.19127">
        <ele>131.36</ele>
        <time>2014-06-08T09:50:52Z</time>
      </trkpt>
      <trkpt lat="43.232" lon="2.19119">
        <ele>130.88</ele>
        <time>2014-06-08T09:50:53Z</time>
      </trkpt>
      <trkpt lat="43.23201" lon="2.19111">
        <ele>130.88</ele>
        <time>2014-06-08T09:50:54Z</time>
      </trkpt>
      <trkpt lat="43.23206" lon="2.19059">
        <ele>129.43</ele>
        <time>2014-06-08T09:51:01Z</time>
      </trkpt>
      <trkpt lat="43.23207" lon="2.19051">
        <ele>129.43</ele>
        <time>2014-06-08T09:51:02Z</time>
      </trkpt>
      <trkpt lat="43.23209" lon="2.1903">
        <ele>129.43</ele>
        <time>2014-06-08T09:51:05Z</time>
      </trkpt>
      <trkpt lat="43.2321" lon="2.19024">
        <ele>128.95</ele>
        <time>2014-06-08T09:51:06Z</time>
      </trkpt>
      <trkpt lat="43.23214" lon="2.19014">
        <ele>128.95</ele>
        <time>2014-06-08T09:51:08Z</time>
      </trkpt>
      <trkpt lat="43.23216" lon="2.1901">
        <ele>128.47</ele>
        <time>2014-06-08T09:51:09Z</time>
      </trkpt>
      <trkpt lat="43.23222" lon="2.19001">
        <ele>128.47</ele>
        <time>2014-06-08T09:51:11Z</time>
      </trkpt>
      <trkpt lat="43.23234" lon="2.18987">
        <ele>127.51</ele>
        <time>2014-06-08T09:51:14Z</time>
      </trkpt>
      <trkpt lat="43.23244" lon="2.18976">
        <ele>127.03</ele>
        <time>2014-06-08T09:51:16Z</time>
      </trkpt>
      <trkpt lat="43.23269" lon="2.18939">
        <ele>126.55</ele>
        <time>2014-06-08T09:51:22Z</time>
      </trkpt>
      <trkpt lat="43.23294" lon="2.189">
        <ele>125.59</ele>
        <time>2014-06-08T09:51:28Z</time>
      </trkpt>
      <trkpt lat="43.23334" lon="2.18842">
        <ele>124.63</ele>
        <time>2014-06-08T09:51:37Z</time>
      </trkpt>
      <trkpt lat="43.23341" lon="2.18828">
        <ele>124.15</ele>
        <time>2014-06-08T09:51:39Z</time>
      </trkpt>
      <trkpt lat="43.23343" lon="2.1882">
        <ele>124.15</ele>
        <time>2014-06-08T09:51:40Z</time>
      </trkpt>
      <trkpt lat="43.23345" lon="2.18811">
        <ele>124.15</ele>
        <time>2014-06-08T09:51:41Z</time>
      </trkpt>
      <trkpt lat="43.23346" lon="2.18802">
        <ele>124.15</ele>
        <time>2014-06-08T09:51:42Z</time>
      </trkpt>
      <trkpt lat="43.23347" lon="2.18794">
        <ele>123.67</ele>
        <time>2014-06-08T09:51:43Z</time>
      </trkpt>
      <trkpt lat="43.23364" lon="2.18644">
        <ele>125.11</ele>
        <time>2014-06-08T09:52:01Z</time>
      </trkpt>
      <trkpt lat="43.23375" lon="2.1859">
        <ele>121.26</ele>
        <time>2014-06-08T09:52:09Z</time>
      </trkpt>
      <trkpt lat="43.23376" lon="2.18583">
        <ele>120.3</ele>
        <time>2014-06-08T09:52:10Z</time>
      </trkpt>
      <trkpt lat="43.23382" lon="2.18563">
        <ele>118.38</ele>
        <time>2014-06-08T09:52:13Z</time>
      </trkpt>
      <trkpt lat="43.23387" lon="2.1855">
        <ele>116.94</ele>
        <time>2014-06-08T09:52:15Z</time>
      </trkpt>
      <trkpt lat="43.23391" lon="2.18543">
        <ele>116.94</ele>
        <time>2014-06-08T09:52:16Z</time>
      </trkpt>
      <trkpt lat="43.23421" lon="2.1848">
        <ele>115.98</ele>
        <time>2014-06-08T09:52:25Z</time>
      </trkpt>
      <trkpt lat="43.23444" lon="2.18425">
        <ele>115.98</ele>
        <time>2014-06-08T09:52:33Z</time>
      </trkpt>
      <trkpt lat="43.23453" lon="2.18386">
        <ele>117.42</ele>
        <time>2014-06-08T09:52:38Z</time>
      </trkpt>
      <trkpt lat="43.2347" lon="2.18325">
        <ele>120.3</ele>
        <time>2014-06-08T09:52:47Z</time>
      </trkpt>
      <trkpt lat="43.23485" lon="2.18269">
        <ele>123.19</ele>
        <time>2014-06-08T09:52:56Z</time>
      </trkpt>
      <trkpt lat="43.23487" lon="2.18262">
        <ele>123.67</ele>
        <time>2014-06-08T09:52:57Z</time>
      </trkpt>
      <trkpt lat="43.2351" lon="2.18168">
        <ele>126.07</ele>
        <time>2014-06-08T09:53:09Z</time>
      </trkpt>
      <trkpt lat="43.23511" lon="2.18161">
        <ele>126.07</ele>
        <time>2014-06-08T09:53:10Z</time>
      </trkpt>
      <trkpt lat="43.23513" lon="2.18154">
        <ele>126.55</ele>
        <time>2014-06-08T09:53:11Z</time>
      </trkpt>
      <trkpt lat="43.23513" lon="2.18147">
        <ele>126.55</ele>
        <time>2014-06-08T09:53:12Z</time>
      </trkpt>
      <trkpt lat="43.23514" lon="2.18139">
        <ele>126.55</ele>
        <time>2014-06-08T09:53:13Z</time>
      </trkpt>
      <trkpt lat="43.23515" lon="2.18131">
        <ele>126.55</ele>
        <time>2014-06-08T09:53:14Z</time>
      </trkpt>
      <trkpt lat="43.23517" lon="2.18117">
        <ele>126.55</ele>
        <time>2014-06-08T09:53:16Z</time>
      </trkpt>
      <trkpt lat="43.23518" lon="2.1811">
        <ele>126.55</ele>
        <time>2014-06-08T09:53:17Z</time>
      </trkpt>
      <trkpt lat="43.2352" lon="2.18102">
        <ele>126.55</ele>
        <time>2014-06-08T09:53:18Z</time>
      </trkpt>
      <trkpt lat="43.23522" lon="2.1808">
        <ele>126.07</ele>
        <time>2014-06-08T09:53:21Z</time>
      </trkpt>
      <trkpt lat="43.23532" lon="2.18025">
        <ele>124.63</ele>
        <time>2014-06-08T09:53:29Z</time>
      </trkpt>
      <trkpt lat="43.23532" lon="2.1802">
        <ele>124.63</ele>
        <time>2014-06-08T09:53:30Z</time>
      </trkpt>
      <trkpt lat="43.23531" lon="2.18014">
        <ele>124.63</ele>
        <time>2014-06-08T09:53:31Z</time>
      </trkpt>
      <trkpt lat="43.23528" lon="2.18001">
        <ele>124.15</ele>
        <time>2014-06-08T09:53:33Z</time>
      </trkpt>
      <trkpt lat="43.23528" lon="2.17994">
        <ele>124.15</ele>
        <time>2014-06-08T09:53:34Z</time>
      </trkpt>
      <trkpt lat="43.23528" lon="2.17987">
        <ele>124.15</ele>
        <time>2014-06-08T09:53:35Z</time>
      </trkpt>
      <trkpt lat="43.23546" lon="2.17914">
        <ele>124.15</ele>
        <time>2014-06-08T09:53:46Z</time>
      </trkpt>
      <trkpt lat="43.23548" lon="2.17907">
        <ele>124.15</ele>
        <time>2014-06-08T09:53:47Z</time>
      </trkpt>
      <trkpt lat="43.23561" lon="2.17852">
        <ele>124.15</ele>
        <time>2014-06-08T09:53:55Z</time>
      </trkpt>
      <trkpt lat="43.23566" lon="2.17832">
        <ele>123.67</ele>
        <time>2014-06-08T09:53:58Z</time>
      </trkpt>
      <trkpt lat="43.23567" lon="2.17826">
        <ele>123.67</ele>
        <time>2014-06-08T09:53:59Z</time>
      </trkpt>
      <trkpt lat="43.23578" lon="2.17777">
        <ele>122.71</ele>
        <time>2014-06-08T09:54:06Z</time>
      </trkpt>
      <trkpt lat="43.23583" lon="2.17764">
        <ele>122.71</ele>
        <time>2014-06-08T09:54:08Z</time>
      </trkpt>
      <trkpt lat="43.23586" lon="2.1775">
        <ele>122.22</ele>
        <time>2014-06-08T09:54:10Z</time>
      </trkpt>
      <trkpt lat="43.23588" lon="2.17744">
        <ele>122.22</ele>
        <time>2014-06-08T09:54:11Z</time>
      </trkpt>
      <trkpt lat="43.23603" lon="2.17684">
        <ele>123.19</ele>
        <time>2014-06-08T09:54:20Z</time>
      </trkpt>
      <trkpt lat="43.23606" lon="2.17677">
        <ele>123.19</ele>
        <time>2014-06-08T09:54:21Z</time>
      </trkpt>
      <trkpt lat="43.23609" lon="2.17672">
        <ele>123.67</ele>
        <time>2014-06-08T09:54:22Z</time>
      </trkpt>
      <trkpt lat="43.23612" lon="2.17667">
        <ele>124.15</ele>
        <time>2014-06-08T09:54:23Z</time>
      </trkpt>
      <trkpt lat="43.23616" lon="2.17663">
        <ele>124.15</ele>
        <time>2014-06-08T09:54:24Z</time>
      </trkpt>
      <trkpt lat="43.23618" lon="2.17658">
        <ele>124.63</ele>
        <time>2014-06-08T09:54:25Z</time>
      </trkpt>
      <trkpt lat="43.23663" lon="2.17565">
        <ele>125.11</ele>
        <time>2014-06-08T09:54:39Z</time>
      </trkpt>
      <trkpt lat="43.23717" lon="2.1745">
        <ele>123.19</ele>
        <time>2014-06-08T09:54:56Z</time>
      </trkpt>
      <trkpt lat="43.2372" lon="2.17444">
        <ele>122.71</ele>
        <time>2014-06-08T09:54:57Z</time>
      </trkpt>
      <trkpt lat="43.23738" lon="2.17347">
        <ele>122.22</ele>
        <time>2014-06-08T09:55:09Z</time>
      </trkpt>
      <trkpt lat="43.23745" lon="2.17255">
        <ele>121.74</ele>
        <time>2014-06-08T09:55:21Z</time>
      </trkpt>
      <trkpt lat="43.23745" lon="2.17184">
        <ele>123.19</ele>
        <time>2014-06-08T09:55:31Z</time>
      </trkpt>
      <trkpt lat="43.23758" lon="2.17054">
        <ele>123.67</ele>
        <time>2014-06-08T09:55:47Z</time>
      </trkpt>
      <trkpt lat="43.23792" lon="2.16952">
        <ele>121.74</ele>
        <time>2014-06-08T09:56:01Z</time>
      </trkpt>
      <trkpt lat="43.23801" lon="2.16937">
        <ele>122.22</ele>
        <time>2014-06-08T09:56:04Z</time>
      </trkpt>
      <trkpt lat="43.23852" lon="2.16872">
        <ele>123.67</ele>
        <time>2014-06-08T09:56:16Z</time>
      </trkpt>
      <trkpt lat="43.23885" lon="2.16822">
        <ele>123.67</ele>
        <time>2014-06-08T09:56:24Z</time>
      </trkpt>
      <trkpt lat="43.23889" lon="2.16817">
        <ele>123.67</ele>
        <time>2014-06-08T09:56:25Z</time>
      </trkpt>
      <trkpt lat="43.23903" lon="2.1679">
        <ele>123.67</ele>
        <time>2014-06-08T09:56:29Z</time>
      </trkpt>
      <trkpt lat="43.23905" lon="2.16783">
        <ele>123.67</ele>
        <time>2014-06-08T09:56:30Z</time>
      </trkpt>
      <trkpt lat="43.23906" lon="2.16775">
        <ele>124.15</ele>
        <time>2014-06-08T09:56:31Z</time>
      </trkpt>
      <trkpt lat="43.23907" lon="2.16754">
        <ele>124.15</ele>
        <time>2014-06-08T09:56:34Z</time>
      </trkpt>
      <trkpt lat="43.23908" lon="2.16742">
        <ele>124.15</ele>
        <time>2014-06-08T09:56:36Z</time>
      </trkpt>
      <trkpt lat="43.23907" lon="2.16736">
        <ele>124.63</ele>
        <time>2014-06-08T09:56:37Z</time>
      </trkpt>
      <trkpt lat="43.23905" lon="2.16729">
        <ele>124.63</ele>
        <time>2014-06-08T09:56:38Z</time>
      </trkpt>
      <trkpt lat="43.23901" lon="2.16723">
        <ele>124.63</ele>
        <time>2014-06-08T09:56:39Z</time>
      </trkpt>
      <trkpt lat="43.23897" lon="2.16716">
        <ele>124.63</ele>
        <time>2014-06-08T09:56:40Z</time>
      </trkpt>
      <trkpt lat="43.23828" lon="2.16613">
        <ele>126.07</ele>
        <time>2014-06-08T09:56:55Z</time>
      </trkpt>
      <trkpt lat="43.23735" lon="2.16481">
        <ele>127.51</ele>
        <time>2014-06-08T09:57:16Z</time>
      </trkpt>
      <trkpt lat="43.23698" lon="2.1643">
        <ele>127.99</ele>
        <time>2014-06-08T09:57:25Z</time>
      </trkpt>
      <trkpt lat="43.23693" lon="2.16426">
        <ele>128.47</ele>
        <time>2014-06-08T09:57:26Z</time>
      </trkpt>
      <trkpt lat="43.23688" lon="2.16423">
        <ele>128.47</ele>
        <time>2014-06-08T09:57:27Z</time>
      </trkpt>
      <trkpt lat="43.23682" lon="2.1642">
        <ele>128.47</ele>
        <time>2014-06-08T09:57:28Z</time>
      </trkpt>
      <trkpt lat="43.23676" lon="2.16418">
        <ele>127.99</ele>
        <time>2014-06-08T09:57:29Z</time>
      </trkpt>
      <trkpt lat="43.23591" lon="2.16406">
        <ele>127.03</ele>
        <time>2014-06-08T09:57:44Z</time>
      </trkpt>
      <trkpt lat="43.23507" lon="2.16395">
        <ele>126.55</ele>
        <time>2014-06-08T09:57:59Z</time>
      </trkpt>
      <trkpt lat="43.23418" lon="2.16375">
        <ele>126.55</ele>
        <time>2014-06-08T09:58:15Z</time>
      </trkpt>
      <trkpt lat="43.23347" lon="2.16352">
        <ele>128.47</ele>
        <time>2014-06-08T09:58:28Z</time>
      </trkpt>
      <trkpt lat="43.23253" lon="2.1632">
        <ele>127.99</ele>
        <time>2014-06-08T09:58:45Z</time>
      </trkpt>
      <trkpt lat="43.23209" lon="2.16305">
        <ele>128.47</ele>
        <time>2014-06-08T09:58:53Z</time>
      </trkpt>
      <trkpt lat="43.23204" lon="2.16304">
        <ele>128.47</ele>
        <time>2014-06-08T09:58:54Z</time>
      </trkpt>
      <trkpt lat="43.23105" lon="2.16276">
        <ele>129.43</ele>
        <time>2014-06-08T09:59:12Z</time>
      </trkpt>
      <trkpt lat="43.23011" lon="2.16265">
        <ele>130.4</ele>
        <time>2014-06-08T09:59:29Z</time>
      </trkpt>
      <trkpt lat="43.22928" lon="2.16257">
        <ele>132.32</ele>
        <time>2014-06-08T09:59:44Z</time>
      </trkpt>
      <trkpt lat="43.22864" lon="2.16244">
        <ele>133.76</ele>
        <time>2014-06-08T09:59:56Z</time>
      </trkpt>
      <trkpt lat="43.22797" lon="2.16216">
        <ele>135.68</ele>
        <time>2014-06-08T10:00:10Z</time>
      </trkpt>
      <trkpt lat="43.22792" lon="2.16214">
        <ele>135.68</ele>
        <time>2014-06-08T10:00:11Z</time>
      </trkpt>
      <trkpt lat="43.22787" lon="2.16211">
        <ele>135.68</ele>
        <time>2014-06-08T10:00:12Z</time>
      </trkpt>
      <trkpt lat="43.22782" lon="2.16208">
        <ele>135.68</ele>
        <time>2014-06-08T10:00:13Z</time>
      </trkpt>
      <trkpt lat="43.22777" lon="2.16206">
        <ele>135.68</ele>
        <time>2014-06-08T10:00:14Z</time>
      </trkpt>
      <trkpt lat="43.22701" lon="2.16171">
        <ele>137.13</ele>
        <time>2014-06-08T10:00:29Z</time>
      </trkpt>
      <trkpt lat="43.22682" lon="2.16162">
        <ele>137.61</ele>
        <time>2014-06-08T10:00:33Z</time>
      </trkpt>
      <trkpt lat="43.22668" lon="2.16156">
        <ele>138.57</ele>
        <time>2014-06-08T10:00:36Z</time>
      </trkpt>
      <trkpt lat="43.22663" lon="2.16154">
        <ele>138.57</ele>
        <time>2014-06-08T10:00:37Z</time>
      </trkpt>
      <trkpt lat="43.22658" lon="2.16152">
        <ele>139.05</ele>
        <time>2014-06-08T10:00:38Z</time>
      </trkpt>
      <trkpt lat="43.22612" lon="2.16132">
        <ele>140.49</ele>
        <time>2014-06-08T10:00:48Z</time>
      </trkpt>
      <trkpt lat="43.22575" lon="2.16118">
        <ele>142.89</ele>
        <time>2014-06-08T10:00:56Z</time>
      </trkpt>
      <trkpt lat="43.22542" lon="2.16104">
        <ele>144.82</ele>
        <time>2014-06-08T10:01:03Z</time>
      </trkpt>
      <trkpt lat="43.22528" lon="2.16099">
        <ele>145.3</ele>
        <time>2014-06-08T10:01:06Z</time>
      </trkpt>
      <trkpt lat="43.22519" lon="2.16094">
        <ele>145.3</ele>
        <time>2014-06-08T10:01:08Z</time>
      </trkpt>
      <trkpt lat="43.22514" lon="2.16093">
        <ele>145.3</ele>
        <time>2014-06-08T10:01:09Z</time>
      </trkpt>
      <trkpt lat="43.2251" lon="2.16091">
        <ele>145.3</ele>
        <time>2014-06-08T10:01:10Z</time>
      </trkpt>
      <trkpt lat="43.22505" lon="2.16089">
        <ele>145.78</ele>
        <time>2014-06-08T10:01:11Z</time>
      </trkpt>
      <trkpt lat="43.22501" lon="2.16087">
        <ele>145.78</ele>
        <time>2014-06-08T10:01:12Z</time>
      </trkpt>
      <trkpt lat="43.22496" lon="2.16085">
        <ele>145.78</ele>
        <time>2014-06-08T10:01:13Z</time>
      </trkpt>
      <trkpt lat="43.22492" lon="2.16083">
        <ele>145.78</ele>
        <time>2014-06-08T10:01:14Z</time>
      </trkpt>
      <trkpt lat="43.22487" lon="2.16081">
        <ele>145.78</ele>
        <time>2014-06-08T10:01:15Z</time>
      </trkpt>
      <trkpt lat="43.22482" lon="2.16079">
        <ele>145.78</ele>
        <time>2014-06-08T10:01:16Z</time>
      </trkpt>
      <trkpt lat="43.22389" lon="2.1602">
        <ele>145.3</ele>
        <time>2014-06-08T10:01:34Z</time>
      </trkpt>
      <trkpt lat="43.22347" lon="2.15923">
        <ele>145.3</ele>
        <time>2014-06-08T10:01:47Z</time>
      </trkpt>
      <trkpt lat="43.22324" lon="2.15868">
        <ele>146.74</ele>
        <time>2014-06-08T10:01:55Z</time>
      </trkpt>
      <trkpt lat="43.22319" lon="2.15863">
        <ele>146.26</ele>
        <time>2014-06-08T10:01:56Z</time>
      </trkpt>
      <trkpt lat="43.22305" lon="2.15847">
        <ele>146.26</ele>
        <time>2014-06-08T10:01:59Z</time>
      </trkpt>
      <trkpt lat="43.223" lon="2.15842">
        <ele>146.26</ele>
        <time>2014-06-08T10:02:00Z</time>
      </trkpt>
      <trkpt lat="43.22269" lon="2.15821">
        <ele>146.26</ele>
        <time>2014-06-08T10:02:06Z</time>
      </trkpt>
      <trkpt lat="43.2218" lon="2.15803">
        <ele>147.22</ele>
        <time>2014-06-08T10:02:22Z</time>
      </trkpt>
      <trkpt lat="43.22175" lon="2.15802">
        <ele>147.7</ele>
        <time>2014-06-08T10:02:23Z</time>
      </trkpt>
      <trkpt lat="43.2217" lon="2.15801">
        <ele>147.7</ele>
        <time>2014-06-08T10:02:24Z</time>
      </trkpt>
      <trkpt lat="43.22159" lon="2.15799">
        <ele>148.18</ele>
        <time>2014-06-08T10:02:26Z</time>
      </trkpt>
      <trkpt lat="43.22155" lon="2.15796">
        <ele>148.18</ele>
        <time>2014-06-08T10:02:27Z</time>
      </trkpt>
      <trkpt lat="43.22152" lon="2.1579">
        <ele>148.18</ele>
        <time>2014-06-08T10:02:28Z</time>
      </trkpt>
      <trkpt lat="43.2215" lon="2.15783">
        <ele>148.18</ele>
        <time>2014-06-08T10:02:29Z</time>
      </trkpt>
      <trkpt lat="43.22148" lon="2.15776">
        <ele>148.18</ele>
        <time>2014-06-08T10:02:30Z</time>
      </trkpt>
      <trkpt lat="43.22146" lon="2.15769">
        <ele>148.66</ele>
        <time>2014-06-08T10:02:31Z</time>
      </trkpt>
      <trkpt lat="43.22144" lon="2.15762">
        <ele>148.66</ele>
        <time>2014-06-08T10:02:32Z</time>
      </trkpt>
      <trkpt lat="43.22142" lon="2.15754">
        <ele>148.66</ele>
        <time>2014-06-08T10:02:33Z</time>
      </trkpt>
      <trkpt lat="43.22115" lon="2.15651">
        <ele>149.14</ele>
        <time>2014-06-08T10:02:47Z</time>
      </trkpt>
      <trkpt lat="43.22114" lon="2.15643">
        <ele>149.14</ele>
        <time>2014-06-08T10:02:48Z</time>
      </trkpt>
      <trkpt lat="43.22114" lon="2.15636">
        <ele>149.14</ele>
        <time>2014-06-08T10:02:49Z</time>
      </trkpt>
      <trkpt lat="43.22115" lon="2.15628">
        <ele>149.14</ele>
        <time>2014-06-08T10:02:50Z</time>
      </trkpt>
      <trkpt lat="43.22117" lon="2.15621">
        <ele>149.14</ele>
        <time>2014-06-08T10:02:51Z</time>
      </trkpt>
      <trkpt lat="43.22145" lon="2.15504">
        <ele>149.62</ele>
        <time>2014-06-08T10:03:06Z</time>
      </trkpt>
      <trkpt lat="43.2217" lon="2.154">
        <ele>148.18</ele>
        <time>2014-06-08T10:03:19Z</time>
      </trkpt>
      <trkpt lat="43.22171" lon="2.15392">
        <ele>148.18</ele>
        <time>2014-06-08T10:03:20Z</time>
      </trkpt>
      <trkpt lat="43.22171" lon="2.15383">
        <ele>148.18</ele>
        <time>2014-06-08T10:03:21Z</time>
      </trkpt>
      <trkpt lat="43.2217" lon="2.15374">
        <ele>147.7</ele>
        <time>2014-06-08T10:03:22Z</time>
      </trkpt>
      <trkpt lat="43.22168" lon="2.15366">
        <ele>147.7</ele>
        <time>2014-06-08T10:03:23Z</time>
      </trkpt>
      <trkpt lat="43.22166" lon="2.15358">
        <ele>147.7</ele>
        <time>2014-06-08T10:03:24Z</time>
      </trkpt>
      <trkpt lat="43.22115" lon="2.15203">
        <ele>147.7</ele>
        <time>2014-06-08T10:03:43Z</time>
      </trkpt>
      <trkpt lat="43.22075" lon="2.15095">
        <ele>149.14</ele>
        <time>2014-06-08T10:03:57Z</time>
      </trkpt>
      <trkpt lat="43.22067" lon="2.15071">
        <ele>149.14</ele>
        <time>2014-06-08T10:04:00Z</time>
      </trkpt>
      <trkpt lat="43.22066" lon="2.15063">
        <ele>149.14</ele>
        <time>2014-06-08T10:04:01Z</time>
      </trkpt>
      <trkpt lat="43.22065" lon="2.15054">
        <ele>149.14</ele>
        <time>2014-06-08T10:04:02Z</time>
      </trkpt>
      <trkpt lat="43.22065" lon="2.15046">
        <ele>148.66</ele>
        <time>2014-06-08T10:04:03Z</time>
      </trkpt>
      <trkpt lat="43.22066" lon="2.15037">
        <ele>148.66</ele>
        <time>2014-06-08T10:04:04Z</time>
      </trkpt>
      <trkpt lat="43.22067" lon="2.15029">
        <ele>148.66</ele>
        <time>2014-06-08T10:04:05Z</time>
      </trkpt>
      <trkpt lat="43.2207" lon="2.15021">
        <ele>148.18</ele>
        <time>2014-06-08T10:04:06Z</time>
      </trkpt>
      <trkpt lat="43.22074" lon="2.15014">
        <ele>148.18</ele>
        <time>2014-06-08T10:04:07Z</time>
      </trkpt>
      <trkpt lat="43.22078" lon="2.15007">
        <ele>148.18</ele>
        <time>2014-06-08T10:04:08Z</time>
      </trkpt>
      <trkpt lat="43.22083" lon="2.15002">
        <ele>147.7</ele>
        <time>2014-06-08T10:04:09Z</time>
      </trkpt>
      <trkpt lat="43.22088" lon="2.14997">
        <ele>147.7</ele>
        <time>2014-06-08T10:04:10Z</time>
      </trkpt>
      <trkpt lat="43.22171" lon="2.14917">
        <ele>144.82</ele>
        <time>2014-06-08T10:04:25Z</time>
      </trkpt>
      <trkpt lat="43.22286" lon="2.14804">
        <ele>140.97</ele>
        <time>2014-06-08T10:04:44Z</time>
      </trkpt>
      <trkpt lat="43.22296" lon="2.1479">
        <ele>140.49</ele>
        <time>2014-06-08T10:04:46Z</time>
      </trkpt>
      <trkpt lat="43.223" lon="2.14781">
        <ele>140.49</ele>
        <time>2014-06-08T10:04:47Z</time>
      </trkpt>
      <trkpt lat="43.22304" lon="2.14772">
        <ele>140.49</ele>
        <time>2014-06-08T10:04:48Z</time>
      </trkpt>
      <trkpt lat="43.22307" lon="2.14763">
        <ele>140.49</ele>
        <time>2014-06-08T10:04:49Z</time>
      </trkpt>
      <trkpt lat="43.22309" lon="2.14754">
        <ele>140.49</ele>
        <time>2014-06-08T10:04:50Z</time>
      </trkpt>
      <trkpt lat="43.22311" lon="2.14744">
        <ele>140.49</ele>
        <time>2014-06-08T10:04:51Z</time>
      </trkpt>
      <trkpt lat="43.22313" lon="2.14733">
        <ele>140.49</ele>
        <time>2014-06-08T10:04:52Z</time>
      </trkpt>
      <trkpt lat="43.22321" lon="2.14592">
        <ele>141.45</ele>
        <time>2014-06-08T10:05:07Z</time>
      </trkpt>
      <trkpt lat="43.2233" lon="2.1442">
        <ele>141.93</ele>
        <time>2014-06-08T10:05:26Z</time>
      </trkpt>
      <trkpt lat="43.22317" lon="2.14295">
        <ele>141.93</ele>
        <time>2014-06-08T10:05:40Z</time>
      </trkpt>
      <trkpt lat="43.22291" lon="2.14137">
        <ele>141.45</ele>
        <time>2014-06-08T10:05:58Z</time>
      </trkpt>
      <trkpt lat="43.22269" lon="2.13975">
        <ele>141.93</ele>
        <time>2014-06-08T10:06:16Z</time>
      </trkpt>
      <trkpt lat="43.22269" lon="2.13967">
        <ele>141.45</ele>
        <time>2014-06-08T10:06:17Z</time>
      </trkpt>
      <trkpt lat="43.22272" lon="2.1395">
        <ele>141.45</ele>
        <time>2014-06-08T10:06:19Z</time>
      </trkpt>
      <trkpt lat="43.22274" lon="2.13942">
        <ele>141.45</ele>
        <time>2014-06-08T10:06:20Z</time>
      </trkpt>
      <trkpt lat="43.22276" lon="2.13934">
        <ele>141.45</ele>
        <time>2014-06-08T10:06:21Z</time>
      </trkpt>
      <trkpt lat="43.2228" lon="2.13926">
        <ele>141.45</ele>
        <time>2014-06-08T10:06:22Z</time>
      </trkpt>
      <trkpt lat="43.22283" lon="2.13918">
        <ele>141.45</ele>
        <time>2014-06-08T10:06:23Z</time>
      </trkpt>
      <trkpt lat="43.22287" lon="2.13911">
        <ele>141.45</ele>
        <time>2014-06-08T10:06:24Z</time>
      </trkpt>
      <trkpt lat="43.22291" lon="2.13904">
        <ele>141.45</ele>
        <time>2014-06-08T10:06:25Z</time>
      </trkpt>
      <trkpt lat="43.22341" lon="2.13826">
        <ele>141.45</ele>
        <time>2014-06-08T10:06:36Z</time>
      </trkpt>
      <trkpt lat="43.22408" lon="2.13674">
        <ele>140.49</ele>
        <time>2014-06-08T10:06:55Z</time>
      </trkpt>
      <trkpt lat="43.2243" lon="2.13619">
        <ele>140.01</ele>
        <time>2014-06-08T10:07:02Z</time>
      </trkpt>
      <trkpt lat="43.22434" lon="2.13603">
        <ele>139.53</ele>
        <time>2014-06-08T10:07:04Z</time>
      </trkpt>
      <trkpt lat="43.22433" lon="2.13595">
        <ele>139.53</ele>
        <time>2014-06-08T10:07:05Z</time>
      </trkpt>
      <trkpt lat="43.22432" lon="2.13587">
        <ele>139.53</ele>
        <time>2014-06-08T10:07:06Z</time>
      </trkpt>
      <trkpt lat="43.22429" lon="2.13579">
        <ele>139.53</ele>
        <time>2014-06-08T10:07:07Z</time>
      </trkpt>
      <trkpt lat="43.22426" lon="2.13572">
        <ele>139.53</ele>
        <time>2014-06-08T10:07:08Z</time>
      </trkpt>
      <trkpt lat="43.22421" lon="2.13565">
        <ele>140.01</ele>
        <time>2014-06-08T10:07:09Z</time>
      </trkpt>
      <trkpt lat="43.22417" lon="2.13559">
        <ele>140.01</ele>
        <time>2014-06-08T10:07:10Z</time>
      </trkpt>
      <trkpt lat="43.22372" lon="2.13507">
        <ele>140.97</ele>
        <time>2014-06-08T10:07:19Z</time>
      </trkpt>
      <trkpt lat="43.22367" lon="2.13503">
        <ele>140.97</ele>
        <time>2014-06-08T10:07:20Z</time>
      </trkpt>
      <trkpt lat="43.22362" lon="2.13498">
        <ele>140.97</ele>
        <time>2014-06-08T10:07:21Z</time>
      </trkpt>
      <trkpt lat="43.2232" lon="2.13459">
        <ele>141.45</ele>
        <time>2014-06-08T10:07:29Z</time>
      </trkpt>
      <trkpt lat="43.22275" lon="2.13378">
        <ele>142.41</ele>
        <time>2014-06-08T10:07:41Z</time>
      </trkpt>
      <trkpt lat="43.22259" lon="2.13326">
        <ele>143.37</ele>
        <time>2014-06-08T10:07:48Z</time>
      </trkpt>
      <trkpt lat="43.22258" lon="2.13319">
        <ele>143.37</ele>
        <time>2014-06-08T10:07:49Z</time>
      </trkpt>
      <trkpt lat="43.22255" lon="2.13307">
        <ele>143.37</ele>
        <time>2014-06-08T10:07:51Z</time>
      </trkpt>
      <trkpt lat="43.22252" lon="2.13302">
        <ele>143.85</ele>
        <time>2014-06-08T10:07:52Z</time>
      </trkpt>
      <trkpt lat="43.22248" lon="2.13299">
        <ele>144.34</ele>
        <time>2014-06-08T10:07:53Z</time>
      </trkpt>
      <trkpt lat="43.22244" lon="2.13298">
        <ele>144.34</ele>
        <time>2014-06-08T10:07:54Z</time>
      </trkpt>
      <trkpt lat="43.22239" lon="2.13297">
        <ele>144.82</ele>
        <time>2014-06-08T10:07:55Z</time>
      </trkpt>
      <trkpt lat="43.22234" lon="2.13297">
        <ele>144.82</ele>
        <time>2014-06-08T10:07:56Z</time>
      </trkpt>
      <trkpt lat="43.22229" lon="2.13297">
        <ele>144.82</ele>
        <time>2014-06-08T10:07:57Z</time>
      </trkpt>
      <trkpt lat="43.22224" lon="2.13298">
        <ele>144.82</ele>
        <time>2014-06-08T10:07:58Z</time>
      </trkpt>
      <trkpt lat="43.22205" lon="2.133">
        <ele>144.82</ele>
        <time>2014-06-08T10:08:02Z</time>
      </trkpt>
      <trkpt lat="43.2218" lon="2.13301">
        <ele>145.3</ele>
        <time>2014-06-08T10:08:07Z</time>
      </trkpt>
      <trkpt lat="43.22175" lon="2.13301">
        <ele>145.3</ele>
        <time>2014-06-08T10:08:08Z</time>
      </trkpt>
      <trkpt lat="43.2217" lon="2.13301">
        <ele>145.78</ele>
        <time>2014-06-08T10:08:09Z</time>
      </trkpt>
      <trkpt lat="43.22165" lon="2.13301">
        <ele>145.78</ele>
        <time>2014-06-08T10:08:10Z</time>
      </trkpt>
      <trkpt lat="43.22161" lon="2.13302">
        <ele>145.78</ele>
        <time>2014-06-08T10:08:11Z</time>
      </trkpt>
      <trkpt lat="43.22156" lon="2.13302">
        <ele>145.78</ele>
        <time>2014-06-08T10:08:12Z</time>
      </trkpt>
      <trkpt lat="43.22136" lon="2.13305">
        <ele>145.78</ele>
        <time>2014-06-08T10:08:16Z</time>
      </trkpt>
      <trkpt lat="43.22059" lon="2.13323">
        <ele>146.26</ele>
        <time>2014-06-08T10:08:32Z</time>
      </trkpt>
      <trkpt lat="43.2197" lon="2.13349">
        <ele>147.7</ele>
        <time>2014-06-08T10:08:51Z</time>
      </trkpt>
      <trkpt lat="43.21884" lon="2.13359">
        <ele>149.62</ele>
        <time>2014-06-08T10:09:09Z</time>
      </trkpt>
      <trkpt lat="43.21857" lon="2.13363">
        <ele>150.58</ele>
        <time>2014-06-08T10:09:15Z</time>
      </trkpt>
      <trkpt lat="43.21803" lon="2.13386">
        <ele>151.54</ele>
        <time>2014-06-08T10:09:28Z</time>
      </trkpt>
      <trkpt lat="43.21795" lon="2.13391">
        <ele>152.03</ele>
        <time>2014-06-08T10:09:30Z</time>
      </trkpt>
      <trkpt lat="43.21791" lon="2.13394">
        <ele>152.03</ele>
        <time>2014-06-08T10:09:31Z</time>
      </trkpt>
      <trkpt lat="43.21787" lon="2.13397">
        <ele>152.51</ele>
        <time>2014-06-08T10:09:32Z</time>
      </trkpt>
      <trkpt lat="43.21784" lon="2.134">
        <ele>152.99</ele>
        <time>2014-06-08T10:09:33Z</time>
      </trkpt>
      <trkpt lat="43.2178" lon="2.13404">
        <ele>152.99</ele>
        <time>2014-06-08T10:09:34Z</time>
      </trkpt>
      <trkpt lat="43.2177" lon="2.13414">
        <ele>153.47</ele>
        <time>2014-06-08T10:09:37Z</time>
      </trkpt>
      <trkpt lat="43.21753" lon="2.13434">
        <ele>154.43</ele>
        <time>2014-06-08T10:09:42Z</time>
      </trkpt>
      <trkpt lat="43.21702" lon="2.13499">
        <ele>156.83</ele>
        <time>2014-06-08T10:09:58Z</time>
      </trkpt>
      <trkpt lat="43.21642" lon="2.1357">
        <ele>159.24</ele>
        <time>2014-06-08T10:10:17Z</time>
      </trkpt>
      <trkpt lat="43.21578" lon="2.13638">
        <ele>160.68</ele>
        <time>2014-06-08T10:10:36Z</time>
      </trkpt>
      <trkpt lat="43.21511" lon="2.1369">
        <ele>161.64</ele>
        <time>2014-06-08T10:10:55Z</time>
      </trkpt>
      <trkpt lat="43.21504" lon="2.13695">
        <ele>161.64</ele>
        <time>2014-06-08T10:10:57Z</time>
      </trkpt>
      <trkpt lat="43.215" lon="2.13696">
        <ele>161.64</ele>
        <time>2014-06-08T10:10:58Z</time>
      </trkpt>
      <trkpt lat="43.21495" lon="2.13697">
        <ele>161.64</ele>
        <time>2014-06-08T10:10:59Z</time>
      </trkpt>
      <trkpt lat="43.21491" lon="2.13697">
        <ele>161.64</ele>
        <time>2014-06-08T10:11:00Z</time>
      </trkpt>
      <trkpt lat="43.21487" lon="2.13697">
        <ele>161.64</ele>
        <time>2014-06-08T10:11:01Z</time>
      </trkpt>
      <trkpt lat="43.21414" lon="2.13692">
        <ele>163.56</ele>
        <time>2014-06-08T10:11:18Z</time>
      </trkpt>
      <trkpt lat="43.21388" lon="2.13689">
        <ele>164.52</ele>
        <time>2014-06-08T10:11:28Z</time>
      </trkpt>
      <trkpt lat="43.21388" lon="2.13689">
        <ele>165.48</ele>
        <time>2014-06-08T10:11:39Z</time>
      </trkpt>
      <trkpt lat="43.21388" lon="2.1369">
        <ele>164.52</ele>
        <time>2014-06-08T10:12:29Z</time>
      </trkpt>
      <trkpt lat="43.21389" lon="2.13689">
        <ele>165.48</ele>
        <time>2014-06-08T10:13:16Z</time>
      </trkpt>
      <trkpt lat="43.21388" lon="2.13688">
        <ele>165.48</ele>
        <time>2014-06-08T10:13:19Z</time>
      </trkpt>
      <trkpt lat="43.21386" lon="2.13687">
        <ele>165.48</ele>
        <time>2014-06-08T10:13:20Z</time>
      </trkpt>
      <trkpt lat="43.21354" lon="2.1368">
        <ele>166.45</ele>
        <time>2014-06-08T10:13:29Z</time>
      </trkpt>
      <trkpt lat="43.21341" lon="2.13678">
        <ele>166.93</ele>
        <time>2014-06-08T10:13:32Z</time>
      </trkpt>
      <trkpt lat="43.21317" lon="2.13674">
        <ele>168.37</ele>
        <time>2014-06-08T10:13:38Z</time>
      </trkpt>
      <trkpt lat="43.21296" lon="2.13671">
        <ele>169.33</ele>
        <time>2014-06-08T10:13:43Z</time>
      </trkpt>
      <trkpt lat="43.21261" lon="2.13684">
        <ele>170.29</ele>
        <time>2014-06-08T10:13:54Z</time>
      </trkpt>
      <trkpt lat="43.21237" lon="2.13723">
        <ele>168.37</ele>
        <time>2014-06-08T10:14:06Z</time>
      </trkpt>
      <trkpt lat="43.21216" lon="2.13749">
        <ele>169.33</ele>
        <time>2014-06-08T10:14:16Z</time>
      </trkpt>
      <trkpt lat="43.21186" lon="2.13768">
        <ele>175.1</ele>
        <time>2014-06-08T10:14:27Z</time>
      </trkpt>
      <trkpt lat="43.21154" lon="2.13765">
        <ele>182.79</ele>
        <time>2014-06-08T10:14:37Z</time>
      </trkpt>
      <trkpt lat="43.21124" lon="2.13763">
        <ele>190.96</ele>
        <time>2014-06-08T10:14:47Z</time>
      </trkpt>
      <trkpt lat="43.21092" lon="2.13767">
        <ele>196.73</ele>
        <time>2014-06-08T10:15:00Z</time>
      </trkpt>
      <trkpt lat="43.2106" lon="2.13777">
        <ele>200.57</ele>
        <time>2014-06-08T10:15:13Z</time>
      </trkpt>
      <trkpt lat="43.21016" lon="2.13798">
        <ele>207.78</ele>
        <time>2014-06-08T10:15:29Z</time>
      </trkpt>
      <trkpt lat="43.20972" lon="2.1381">
        <ele>208.74</ele>
        <time>2014-06-08T10:15:44Z</time>
      </trkpt>
      <trkpt lat="43.20907" lon="2.13822">
        <ele>208.74</ele>
        <time>2014-06-08T10:16:03Z</time>
      </trkpt>
      <trkpt lat="43.20841" lon="2.1384">
        <ele>211.63</ele>
        <time>2014-06-08T10:16:22Z</time>
      </trkpt>
      <trkpt lat="43.20792" lon="2.13868">
        <ele>214.99</ele>
        <time>2014-06-08T10:16:37Z</time>
      </trkpt>
      <trkpt lat="43.20736" lon="2.13896">
        <ele>217.4</ele>
        <time>2014-06-08T10:16:54Z</time>
      </trkpt>
      <trkpt lat="43.20683" lon="2.1392">
        <ele>218.36</ele>
        <time>2014-06-08T10:17:10Z</time>
      </trkpt>
      <trkpt lat="43.20647" lon="2.13929">
        <ele>222.2</ele>
        <time>2014-06-08T10:17:21Z</time>
      </trkpt>
      <trkpt lat="43.20631" lon="2.13931">
        <ele>223.16</ele>
        <time>2014-06-08T10:17:25Z</time>
      </trkpt>
      <trkpt lat="43.20546" lon="2.13937">
        <ele>220.28</ele>
        <time>2014-06-08T10:17:38Z</time>
      </trkpt>
      <trkpt lat="43.20509" lon="2.13943">
        <ele>220.76</ele>
        <time>2014-06-08T10:17:44Z</time>
      </trkpt>
      <trkpt lat="43.20504" lon="2.13946">
        <ele>221.24</ele>
        <time>2014-06-08T10:17:45Z</time>
      </trkpt>
      <trkpt lat="43.20499" lon="2.13949">
        <ele>221.24</ele>
        <time>2014-06-08T10:17:46Z</time>
      </trkpt>
      <trkpt lat="43.20492" lon="2.13958">
        <ele>221.72</ele>
        <time>2014-06-08T10:17:48Z</time>
      </trkpt>
      <trkpt lat="43.20489" lon="2.13963">
        <ele>222.2</ele>
        <time>2014-06-08T10:17:49Z</time>
      </trkpt>
      <trkpt lat="43.20486" lon="2.13967">
        <ele>222.2</ele>
        <time>2014-06-08T10:17:50Z</time>
      </trkpt>
      <trkpt lat="43.20485" lon="2.13973">
        <ele>222.2</ele>
        <time>2014-06-08T10:17:51Z</time>
      </trkpt>
      <trkpt lat="43.20483" lon="2.13978">
        <ele>222.68</ele>
        <time>2014-06-08T10:17:52Z</time>
      </trkpt>
      <trkpt lat="43.20464" lon="2.1403">
        <ele>225.09</ele>
        <time>2014-06-08T10:18:02Z</time>
      </trkpt>
      <trkpt lat="43.20461" lon="2.14033">
        <ele>225.09</ele>
        <time>2014-06-08T10:18:03Z</time>
      </trkpt>
      <trkpt lat="43.20457" lon="2.14036">
        <ele>225.57</ele>
        <time>2014-06-08T10:18:04Z</time>
      </trkpt>
      <trkpt lat="43.20453" lon="2.14039">
        <ele>225.57</ele>
        <time>2014-06-08T10:18:05Z</time>
      </trkpt>
      <trkpt lat="43.20449" lon="2.1404">
        <ele>225.57</ele>
        <time>2014-06-08T10:18:06Z</time>
      </trkpt>
      <trkpt lat="43.20445" lon="2.14041">
        <ele>225.57</ele>
        <time>2014-06-08T10:18:07Z</time>
      </trkpt>
      <trkpt lat="43.2044" lon="2.14041">
        <ele>225.57</ele>
        <time>2014-06-08T10:18:08Z</time>
      </trkpt>
      <trkpt lat="43.20366" lon="2.14056">
        <ele>230.37</ele>
        <time>2014-06-08T10:18:26Z</time>
      </trkpt>
      <trkpt lat="43.2033" lon="2.14078">
        <ele>232.78</ele>
        <time>2014-06-08T10:18:37Z</time>
      </trkpt>
      <trkpt lat="43.2029" lon="2.14102">
        <ele>234.22</ele>
        <time>2014-06-08T10:18:49Z</time>
      </trkpt>
      <trkpt lat="43.20272" lon="2.14115">
        <ele>236.14</ele>
        <time>2014-06-08T10:18:55Z</time>
      </trkpt>
      <trkpt lat="43.2027" lon="2.14113">
        <ele>236.14</ele>
        <time>2014-06-08T10:18:56Z</time>
      </trkpt>
      <trkpt lat="43.2027" lon="2.1411">
        <ele>236.62</ele>
        <time>2014-06-08T10:18:57Z</time>
      </trkpt>
      <trkpt lat="43.20272" lon="2.14108">
        <ele>237.1</ele>
        <time>2014-06-08T10:18:58Z</time>
      </trkpt>
      <trkpt lat="43.20273" lon="2.14104">
        <ele>237.1</ele>
        <time>2014-06-08T10:18:59Z</time>
      </trkpt>
      <trkpt lat="43.20274" lon="2.14101">
        <ele>237.58</ele>
        <time>2014-06-08T10:19:00Z</time>
      </trkpt>
      <trkpt lat="43.20274" lon="2.14097">
        <ele>237.58</ele>
        <time>2014-06-08T10:19:01Z</time>
      </trkpt>
      <trkpt lat="43.20273" lon="2.14093">
        <ele>237.58</ele>
        <time>2014-06-08T10:19:02Z</time>
      </trkpt>
      <trkpt lat="43.20272" lon="2.14089">
        <ele>238.06</ele>
        <time>2014-06-08T10:19:03Z</time>
      </trkpt>
      <trkpt lat="43.20262" lon="2.14024">
        <ele>240.47</ele>
        <time>2014-06-08T10:19:18Z</time>
      </trkpt>
      <trkpt lat="43.20262" lon="2.14017">
        <ele>239.99</ele>
        <time>2014-06-08T10:19:19Z</time>
      </trkpt>
      <trkpt lat="43.20263" lon="2.14">
        <ele>238.54</ele>
        <time>2014-06-08T10:19:21Z</time>
      </trkpt>
      <trkpt lat="43.20265" lon="2.13991">
        <ele>238.06</ele>
        <time>2014-06-08T10:19:22Z</time>
      </trkpt>
      <trkpt lat="43.20267" lon="2.13981">
        <ele>237.1</ele>
        <time>2014-06-08T10:19:23Z</time>
      </trkpt>
      <trkpt lat="43.20295" lon="2.13857">
        <ele>231.81</ele>
        <time>2014-06-08T10:19:34Z</time>
      </trkpt>
      <trkpt lat="43.20334" lon="2.13721">
        <ele>227.97</ele>
        <time>2014-06-08T10:19:45Z</time>
      </trkpt>
      <trkpt lat="43.20394" lon="2.13585">
        <ele>218.36</ele>
        <time>2014-06-08T10:19:55Z</time>
      </trkpt>
      <trkpt lat="43.20438" lon="2.13425">
        <ele>209.7</ele>
        <time>2014-06-08T10:20:05Z</time>
      </trkpt>
      <trkpt lat="43.20441" lon="2.13392">
        <ele>208.74</ele>
        <time>2014-06-08T10:20:07Z</time>
      </trkpt>
      <trkpt lat="43.20441" lon="2.13375">
        <ele>207.78</ele>
        <time>2014-06-08T10:20:08Z</time>
      </trkpt>
      <trkpt lat="43.20443" lon="2.13266">
        <ele>205.86</ele>
        <time>2014-06-08T10:20:15Z</time>
      </trkpt>
      <trkpt lat="43.20452" lon="2.13223">
        <ele>204.9</ele>
        <time>2014-06-08T10:20:18Z</time>
      </trkpt>
      <trkpt lat="43.20456" lon="2.1321">
        <ele>204.9</ele>
        <time>2014-06-08T10:20:19Z</time>
      </trkpt>
      <trkpt lat="43.20505" lon="2.13085">
        <ele>202.98</ele>
        <time>2014-06-08T10:20:30Z</time>
      </trkpt>
      <trkpt lat="43.20554" lon="2.12938">
        <ele>201.53</ele>
        <time>2014-06-08T10:20:43Z</time>
      </trkpt>
      <trkpt lat="43.20567" lon="2.12878">
        <ele>200.57</ele>
        <time>2014-06-08T10:20:48Z</time>
      </trkpt>
      <trkpt lat="43.20596" lon="2.1268">
        <ele>197.69</ele>
        <time>2014-06-08T10:21:03Z</time>
      </trkpt>
      <trkpt lat="43.20623" lon="2.12532">
        <ele>190.96</ele>
        <time>2014-06-08T10:21:13Z</time>
      </trkpt>
      <trkpt lat="43.20668" lon="2.12378">
        <ele>180.38</ele>
        <time>2014-06-08T10:21:22Z</time>
      </trkpt>
      <trkpt lat="43.20711" lon="2.12241">
        <ele>170.29</ele>
        <time>2014-06-08T10:21:30Z</time>
      </trkpt>
      <trkpt lat="43.20716" lon="2.12214">
        <ele>168.37</ele>
        <time>2014-06-08T10:21:32Z</time>
      </trkpt>
      <trkpt lat="43.20719" lon="2.12203">
        <ele>167.41</ele>
        <time>2014-06-08T10:21:33Z</time>
      </trkpt>
      <trkpt lat="43.20725" lon="2.12196">
        <ele>166.93</ele>
        <time>2014-06-08T10:21:34Z</time>
      </trkpt>
      <trkpt lat="43.20732" lon="2.12192">
        <ele>166.45</ele>
        <time>2014-06-08T10:21:35Z</time>
      </trkpt>
      <trkpt lat="43.2074" lon="2.12192">
        <ele>165.96</ele>
        <time>2014-06-08T10:21:36Z</time>
      </trkpt>
      <trkpt lat="43.20748" lon="2.12193">
        <ele>165.96</ele>
        <time>2014-06-08T10:21:37Z</time>
      </trkpt>
      <trkpt lat="43.2076" lon="2.12193">
        <ele>165.48</ele>
        <time>2014-06-08T10:21:39Z</time>
      </trkpt>
      <trkpt lat="43.20764" lon="2.12189">
        <ele>165</ele>
        <time>2014-06-08T10:21:40Z</time>
      </trkpt>
      <trkpt lat="43.20765" lon="2.12183">
        <ele>165</ele>
        <time>2014-06-08T10:21:41Z</time>
      </trkpt>
      <trkpt lat="43.20766" lon="2.12177">
        <ele>164.52</ele>
        <time>2014-06-08T10:21:42Z</time>
      </trkpt>
      <trkpt lat="43.20766" lon="2.12172">
        <ele>164.52</ele>
        <time>2014-06-08T10:21:43Z</time>
      </trkpt>
      <trkpt lat="43.20764" lon="2.12165">
        <ele>163.56</ele>
        <time>2014-06-08T10:21:45Z</time>
      </trkpt>
      <trkpt lat="43.20762" lon="2.12162">
        <ele>163.56</ele>
        <time>2014-06-08T10:21:46Z</time>
      </trkpt>
      <trkpt lat="43.20758" lon="2.12162">
        <ele>163.56</ele>
        <time>2014-06-08T10:21:47Z</time>
      </trkpt>
      <trkpt lat="43.20754" lon="2.12161">
        <ele>163.08</ele>
        <time>2014-06-08T10:21:48Z</time>
      </trkpt>
      <trkpt lat="43.20749" lon="2.12161">
        <ele>163.08</ele>
        <time>2014-06-08T10:21:49Z</time>
      </trkpt>
      <trkpt lat="43.20733" lon="2.1216">
        <ele>162.6</ele>
        <time>2014-06-08T10:21:52Z</time>
      </trkpt>
      <trkpt lat="43.20727" lon="2.12159">
        <ele>162.6</ele>
        <time>2014-06-08T10:21:53Z</time>
      </trkpt>
      <trkpt lat="43.20715" lon="2.12156">
        <ele>162.6</ele>
        <time>2014-06-08T10:21:55Z</time>
      </trkpt>
      <trkpt lat="43.20617" lon="2.12111">
        <ele>165.96</ele>
        <time>2014-06-08T10:22:12Z</time>
      </trkpt>
      <trkpt lat="43.2057" lon="2.12098">
        <ele>166.93</ele>
        <time>2014-06-08T10:22:20Z</time>
      </trkpt>
      <trkpt lat="43.20565" lon="2.12099">
        <ele>166.45</ele>
        <time>2014-06-08T10:22:21Z</time>
      </trkpt>
      <trkpt lat="43.20559" lon="2.121">
        <ele>166.45</ele>
        <time>2014-06-08T10:22:22Z</time>
      </trkpt>
      <trkpt lat="43.20553" lon="2.12102">
        <ele>166.93</ele>
        <time>2014-06-08T10:22:23Z</time>
      </trkpt>
      <trkpt lat="43.20548" lon="2.12105">
        <ele>166.93</ele>
        <time>2014-06-08T10:22:24Z</time>
      </trkpt>
      <trkpt lat="43.20542" lon="2.12108">
        <ele>166.93</ele>
        <time>2014-06-08T10:22:25Z</time>
      </trkpt>
      <trkpt lat="43.20464" lon="2.12165">
        <ele>166.93</ele>
        <time>2014-06-08T10:22:41Z</time>
      </trkpt>
      <trkpt lat="43.20389" lon="2.12219">
        <ele>168.37</ele>
        <time>2014-06-08T10:22:56Z</time>
      </trkpt>
      <trkpt lat="43.20296" lon="2.12271">
        <ele>169.81</ele>
        <time>2014-06-08T10:23:14Z</time>
      </trkpt>
      <trkpt lat="43.2024" lon="2.12296">
        <ele>169.81</ele>
        <time>2014-06-08T10:23:25Z</time>
      </trkpt>
      <trkpt lat="43.20231" lon="2.123">
        <ele>169.81</ele>
        <time>2014-06-08T10:23:27Z</time>
      </trkpt>
      <trkpt lat="43.20226" lon="2.12299">
        <ele>169.81</ele>
        <time>2014-06-08T10:23:28Z</time>
      </trkpt>
      <trkpt lat="43.20222" lon="2.12296">
        <ele>169.33</ele>
        <time>2014-06-08T10:23:29Z</time>
      </trkpt>
      <trkpt lat="43.20219" lon="2.1229">
        <ele>169.33</ele>
        <time>2014-06-08T10:23:30Z</time>
      </trkpt>
      <trkpt lat="43.20217" lon="2.12283">
        <ele>168.85</ele>
        <time>2014-06-08T10:23:31Z</time>
      </trkpt>
      <trkpt lat="43.20216" lon="2.12275">
        <ele>168.37</ele>
        <time>2014-06-08T10:23:32Z</time>
      </trkpt>
      <trkpt lat="43.20215" lon="2.12266">
        <ele>168.37</ele>
        <time>2014-06-08T10:23:33Z</time>
      </trkpt>
      <trkpt lat="43.202" lon="2.1212">
        <ele>166.93</ele>
        <time>2014-06-08T10:23:49Z</time>
      </trkpt>
      <trkpt lat="43.20192" lon="2.12055">
        <ele>168.37</ele>
        <time>2014-06-08T10:23:57Z</time>
      </trkpt>
      <trkpt lat="43.20192" lon="2.12048">
        <ele>169.33</ele>
        <time>2014-06-08T10:23:58Z</time>
      </trkpt>
      <trkpt lat="43.20191" lon="2.12041">
        <ele>169.81</ele>
        <time>2014-06-08T10:23:59Z</time>
      </trkpt>
      <trkpt lat="43.20189" lon="2.12035">
        <ele>170.29</ele>
        <time>2014-06-08T10:24:00Z</time>
      </trkpt>
      <trkpt lat="43.20186" lon="2.12028">
        <ele>170.29</ele>
        <time>2014-06-08T10:24:01Z</time>
      </trkpt>
      <trkpt lat="43.20182" lon="2.12022">
        <ele>170.77</ele>
        <time>2014-06-08T10:24:02Z</time>
      </trkpt>
      <trkpt lat="43.20178" lon="2.12017">
        <ele>170.77</ele>
        <time>2014-06-08T10:24:03Z</time>
      </trkpt>
      <trkpt lat="43.20173" lon="2.12012">
        <ele>170.77</ele>
        <time>2014-06-08T10:24:04Z</time>
      </trkpt>
      <trkpt lat="43.20168" lon="2.12008">
        <ele>171.25</ele>
        <time>2014-06-08T10:24:05Z</time>
      </trkpt>
      <trkpt lat="43.20163" lon="2.12005">
        <ele>171.25</ele>
        <time>2014-06-08T10:24:06Z</time>
      </trkpt>
      <trkpt lat="43.20131" lon="2.1199">
        <ele>173.17</ele>
        <time>2014-06-08T10:24:13Z</time>
      </trkpt>
      <trkpt lat="43.20123" lon="2.11985">
        <ele>173.66</ele>
        <time>2014-06-08T10:24:15Z</time>
      </trkpt>
      <trkpt lat="43.20115" lon="2.1198">
        <ele>174.14</ele>
        <time>2014-06-08T10:24:17Z</time>
      </trkpt>
      <trkpt lat="43.20111" lon="2.11977">
        <ele>174.62</ele>
        <time>2014-06-08T10:24:18Z</time>
      </trkpt>
      <trkpt lat="43.20108" lon="2.11973">
        <ele>175.1</ele>
        <time>2014-06-08T10:24:19Z</time>
      </trkpt>
      <trkpt lat="43.20105" lon="2.11969">
        <ele>175.1</ele>
        <time>2014-06-08T10:24:20Z</time>
      </trkpt>
      <trkpt lat="43.20102" lon="2.11964">
        <ele>175.58</ele>
        <time>2014-06-08T10:24:21Z</time>
      </trkpt>
      <trkpt lat="43.201" lon="2.11958">
        <ele>176.06</ele>
        <time>2014-06-08T10:24:22Z</time>
      </trkpt>
      <trkpt lat="43.20099" lon="2.11952">
        <ele>176.06</ele>
        <time>2014-06-08T10:24:23Z</time>
      </trkpt>
      <trkpt lat="43.20098" lon="2.11946">
        <ele>176.54</ele>
        <time>2014-06-08T10:24:24Z</time>
      </trkpt>
      <trkpt lat="43.20099" lon="2.11939">
        <ele>177.02</ele>
        <time>2014-06-08T10:24:25Z</time>
      </trkpt>
      <trkpt lat="43.201" lon="2.11933">
        <ele>177.02</ele>
        <time>2014-06-08T10:24:26Z</time>
      </trkpt>
      <trkpt lat="43.20101" lon="2.11927">
        <ele>177.5</ele>
        <time>2014-06-08T10:24:27Z</time>
      </trkpt>
      <trkpt lat="43.20105" lon="2.11915">
        <ele>177.5</ele>
        <time>2014-06-08T10:24:29Z</time>
      </trkpt>
      <trkpt lat="43.20108" lon="2.1191">
        <ele>177.98</ele>
        <time>2014-06-08T10:24:30Z</time>
      </trkpt>
      <trkpt lat="43.20141" lon="2.1182">
        <ele>182.31</ele>
        <time>2014-06-08T10:24:47Z</time>
      </trkpt>
      <trkpt lat="43.20155" lon="2.11732">
        <ele>185.67</ele>
        <time>2014-06-08T10:25:02Z</time>
      </trkpt>
      <trkpt lat="43.20159" lon="2.11695">
        <ele>186.15</ele>
        <time>2014-06-08T10:25:08Z</time>
      </trkpt>
      <trkpt lat="43.20159" lon="2.11689">
        <ele>186.15</ele>
        <time>2014-06-08T10:25:09Z</time>
      </trkpt>
      <trkpt lat="43.2016" lon="2.11684">
        <ele>186.15</ele>
        <time>2014-06-08T10:25:10Z</time>
      </trkpt>
      <trkpt lat="43.20172" lon="2.11561">
        <ele>188.08</ele>
        <time>2014-06-08T10:25:31Z</time>
      </trkpt>
      <trkpt lat="43.20181" lon="2.11457">
        <ele>191.92</ele>
        <time>2014-06-08T10:25:49Z</time>
      </trkpt>
      <trkpt lat="43.20186" lon="2.11412">
        <ele>193.84</ele>
        <time>2014-06-08T10:25:57Z</time>
      </trkpt>
      <trkpt lat="43.20193" lon="2.11351">
        <ele>195.28</ele>
        <time>2014-06-08T10:26:08Z</time>
      </trkpt>
      <trkpt lat="43.20199" lon="2.11294">
        <ele>197.21</ele>
        <time>2014-06-08T10:26:18Z</time>
      </trkpt>
      <trkpt lat="43.202" lon="2.11288">
        <ele>197.21</ele>
        <time>2014-06-08T10:26:19Z</time>
      </trkpt>
      <trkpt lat="43.20205" lon="2.1126">
        <ele>199.13</ele>
        <time>2014-06-08T10:26:24Z</time>
      </trkpt>
      <trkpt lat="43.20207" lon="2.1125">
        <ele>199.61</ele>
        <time>2014-06-08T10:26:26Z</time>
      </trkpt>
      <trkpt lat="43.20232" lon="2.11154">
        <ele>200.09</ele>
        <time>2014-06-08T10:26:42Z</time>
      </trkpt>
      <trkpt lat="43.2025" lon="2.11074">
        <ele>198.65</ele>
        <time>2014-06-08T10:26:53Z</time>
      </trkpt>
      <trkpt lat="43.20253" lon="2.11067">
        <ele>198.65</ele>
        <time>2014-06-08T10:26:54Z</time>
      </trkpt>
      <trkpt lat="43.20256" lon="2.11061">
        <ele>198.17</ele>
        <time>2014-06-08T10:26:55Z</time>
      </trkpt>
      <trkpt lat="43.20266" lon="2.11041">
        <ele>197.69</ele>
        <time>2014-06-08T10:26:58Z</time>
      </trkpt>
      <trkpt lat="43.2027" lon="2.11035">
        <ele>197.21</ele>
        <time>2014-06-08T10:26:59Z</time>
      </trkpt>
      <trkpt lat="43.20326" lon="2.10929">
        <ele>194.8</ele>
        <time>2014-06-08T10:27:14Z</time>
      </trkpt>
      <trkpt lat="43.20337" lon="2.10912">
        <ele>194.32</ele>
        <time>2014-06-08T10:27:17Z</time>
      </trkpt>
      <trkpt lat="43.20414" lon="2.10807">
        <ele>193.36</ele>
        <time>2014-06-08T10:27:34Z</time>
      </trkpt>
      <trkpt lat="43.20484" lon="2.10701">
        <ele>192.4</ele>
        <time>2014-06-08T10:27:50Z</time>
      </trkpt>
      <trkpt lat="43.20532" lon="2.10553">
        <ele>190.96</ele>
        <time>2014-06-08T10:28:07Z</time>
      </trkpt>
      <trkpt lat="43.20585" lon="2.10397">
        <ele>190.48</ele>
        <time>2014-06-08T10:28:24Z</time>
      </trkpt>
      <trkpt lat="43.20591" lon="2.1039">
        <ele>190</ele>
        <time>2014-06-08T10:28:25Z</time>
      </trkpt>
      <trkpt lat="43.20597" lon="2.10384">
        <ele>190</ele>
        <time>2014-06-08T10:28:26Z</time>
      </trkpt>
      <trkpt lat="43.20612" lon="2.10374">
        <ele>189.52</ele>
        <time>2014-06-08T10:28:28Z</time>
      </trkpt>
      <trkpt lat="43.20618" lon="2.10366">
        <ele>189.04</ele>
        <time>2014-06-08T10:28:29Z</time>
      </trkpt>
      <trkpt lat="43.20622" lon="2.10357">
        <ele>189.04</ele>
        <time>2014-06-08T10:28:30Z</time>
      </trkpt>
      <trkpt lat="43.20626" lon="2.10346">
        <ele>188.56</ele>
        <time>2014-06-08T10:28:31Z</time>
      </trkpt>
      <trkpt lat="43.20629" lon="2.10335">
        <ele>188.56</ele>
        <time>2014-06-08T10:28:32Z</time>
      </trkpt>
      <trkpt lat="43.20631" lon="2.10325">
        <ele>188.56</ele>
        <time>2014-06-08T10:28:33Z</time>
      </trkpt>
      <trkpt lat="43.2066" lon="2.10236">
        <ele>188.56</ele>
        <time>2014-06-08T10:28:42Z</time>
      </trkpt>
      <trkpt lat="43.20665" lon="2.10228">
        <ele>188.08</ele>
        <time>2014-06-08T10:28:43Z</time>
      </trkpt>
      <trkpt lat="43.20735" lon="2.10136">
        <ele>186.15</ele>
        <time>2014-06-08T10:28:56Z</time>
      </trkpt>
      <trkpt lat="43.20745" lon="2.10121">
        <ele>186.15</ele>
        <time>2014-06-08T10:28:58Z</time>
      </trkpt>
      <trkpt lat="43.2075" lon="2.10112">
        <ele>186.15</ele>
        <time>2014-06-08T10:28:59Z</time>
      </trkpt>
      <trkpt lat="43.20753" lon="2.10103">
        <ele>186.15</ele>
        <time>2014-06-08T10:29:00Z</time>
      </trkpt>
      <trkpt lat="43.20756" lon="2.10094">
        <ele>186.15</ele>
        <time>2014-06-08T10:29:01Z</time>
      </trkpt>
      <trkpt lat="43.20758" lon="2.10084">
        <ele>186.15</ele>
        <time>2014-06-08T10:29:02Z</time>
      </trkpt>
      <trkpt lat="43.20759" lon="2.10074">
        <ele>186.15</ele>
        <time>2014-06-08T10:29:03Z</time>
      </trkpt>
      <trkpt lat="43.20759" lon="2.10064">
        <ele>186.15</ele>
        <time>2014-06-08T10:29:04Z</time>
      </trkpt>
      <trkpt lat="43.20757" lon="2.10044">
        <ele>185.67</ele>
        <time>2014-06-08T10:29:06Z</time>
      </trkpt>
      <trkpt lat="43.20755" lon="2.10034">
        <ele>185.67</ele>
        <time>2014-06-08T10:29:07Z</time>
      </trkpt>
      <trkpt lat="43.20723" lon="2.09953">
        <ele>185.67</ele>
        <time>2014-06-08T10:29:17Z</time>
      </trkpt>
      <trkpt lat="43.20721" lon="2.09944">
        <ele>185.67</ele>
        <time>2014-06-08T10:29:18Z</time>
      </trkpt>
      <trkpt lat="43.2072" lon="2.09936">
        <ele>185.67</ele>
        <time>2014-06-08T10:29:19Z</time>
      </trkpt>
      <trkpt lat="43.20717" lon="2.09914">
        <ele>185.19</ele>
        <time>2014-06-08T10:29:25Z</time>
      </trkpt>
      <trkpt lat="43.20717" lon="2.09915">
        <ele>185.19</ele>
        <time>2014-06-08T10:29:27Z</time>
      </trkpt>
      <trkpt lat="43.20715" lon="2.09915">
        <ele>184.71</ele>
        <time>2014-06-08T10:29:37Z</time>
      </trkpt>
      <trkpt lat="43.20713" lon="2.09915">
        <ele>183.27</ele>
        <time>2014-06-08T10:30:05Z</time>
      </trkpt>
      <trkpt lat="43.20712" lon="2.09915">
        <ele>182.31</ele>
        <time>2014-06-08T10:30:45Z</time>
      </trkpt>
      <trkpt lat="43.20713" lon="2.09915">
        <ele>182.31</ele>
        <time>2014-06-08T10:31:17Z</time>
      </trkpt>
      <trkpt lat="43.20713" lon="2.09915">
        <ele>183.27</ele>
        <time>2014-06-08T10:32:00Z</time>
      </trkpt>
      <trkpt lat="43.20713" lon="2.09915">
        <ele>183.75</ele>
        <time>2014-06-08T10:32:43Z</time>
      </trkpt>
      <trkpt lat="43.20714" lon="2.09914">
        <ele>184.23</ele>
        <time>2014-06-08T10:33:33Z</time>
      </trkpt>
      <trkpt lat="43.20715" lon="2.09912">
        <ele>184.23</ele>
        <time>2014-06-08T10:33:59Z</time>
      </trkpt>
      <trkpt lat="43.20715" lon="2.0991">
        <ele>184.23</ele>
        <time>2014-06-08T10:34:00Z</time>
      </trkpt>
      <trkpt lat="43.20721" lon="2.09855">
        <ele>183.75</ele>
        <time>2014-06-08T10:34:10Z</time>
      </trkpt>
      <trkpt lat="43.20752" lon="2.09708">
        <ele>180.87</ele>
        <time>2014-06-08T10:34:26Z</time>
      </trkpt>
      <trkpt lat="43.20767" lon="2.09541">
        <ele>178.94</ele>
        <time>2014-06-08T10:34:42Z</time>
      </trkpt>
      <trkpt lat="43.2079" lon="2.09329">
        <ele>176.54</ele>
        <time>2014-06-08T10:35:01Z</time>
      </trkpt>
      <trkpt lat="43.20829" lon="2.09108">
        <ele>172.21</ele>
        <time>2014-06-08T10:35:21Z</time>
      </trkpt>
      <trkpt lat="43.20871" lon="2.08875">
        <ele>169.33</ele>
        <time>2014-06-08T10:35:42Z</time>
      </trkpt>
      <trkpt lat="43.2089" lon="2.08738">
        <ele>166.93</ele>
        <time>2014-06-08T10:35:54Z</time>
      </trkpt>
      <trkpt lat="43.20954" lon="2.08602">
        <ele>165.48</ele>
        <time>2014-06-08T10:36:08Z</time>
      </trkpt>
      <trkpt lat="43.21001" lon="2.0853">
        <ele>164.52</ele>
        <time>2014-06-08T10:36:17Z</time>
      </trkpt>
      <trkpt lat="43.21004" lon="2.08521">
        <ele>164.52</ele>
        <time>2014-06-08T10:36:18Z</time>
      </trkpt>
      <trkpt lat="43.21006" lon="2.08511">
        <ele>164.52</ele>
        <time>2014-06-08T10:36:19Z</time>
      </trkpt>
      <trkpt lat="43.21005" lon="2.08501">
        <ele>164.52</ele>
        <time>2014-06-08T10:36:20Z</time>
      </trkpt>
      <trkpt lat="43.21001" lon="2.08492">
        <ele>164.52</ele>
        <time>2014-06-08T10:36:21Z</time>
      </trkpt>
      <trkpt lat="43.20996" lon="2.08485">
        <ele>164.52</ele>
        <time>2014-06-08T10:36:22Z</time>
      </trkpt>
      <trkpt lat="43.2099" lon="2.08478">
        <ele>164.52</ele>
        <time>2014-06-08T10:36:23Z</time>
      </trkpt>
      <trkpt lat="43.20904" lon="2.08372">
        <ele>165.48</ele>
        <time>2014-06-08T10:36:40Z</time>
      </trkpt>
      <trkpt lat="43.2087" lon="2.08342">
        <ele>168.85</ele>
        <time>2014-06-08T10:36:49Z</time>
      </trkpt>
      <trkpt lat="43.20866" lon="2.08343">
        <ele>168.85</ele>
        <time>2014-06-08T10:36:50Z</time>
      </trkpt>
      <trkpt lat="43.20862" lon="2.08346">
        <ele>168.85</ele>
        <time>2014-06-08T10:36:51Z</time>
      </trkpt>
      <trkpt lat="43.20775" lon="2.08396">
        <ele>163.08</ele>
        <time>2014-06-08T10:37:07Z</time>
      </trkpt>
      <trkpt lat="43.20693" lon="2.08443">
        <ele>162.6</ele>
        <time>2014-06-08T10:37:23Z</time>
      </trkpt>
      <trkpt lat="43.20653" lon="2.08462">
        <ele>163.08</ele>
        <time>2014-06-08T10:37:31Z</time>
      </trkpt>
      <trkpt lat="43.20648" lon="2.08462">
        <ele>163.08</ele>
        <time>2014-06-08T10:37:32Z</time>
      </trkpt>
      <trkpt lat="43.20638" lon="2.08461">
        <ele>163.56</ele>
        <time>2014-06-08T10:37:34Z</time>
      </trkpt>
      <trkpt lat="43.20634" lon="2.0846">
        <ele>163.56</ele>
        <time>2014-06-08T10:37:35Z</time>
      </trkpt>
      <trkpt lat="43.20611" lon="2.08454">
        <ele>164.52</ele>
        <time>2014-06-08T10:37:40Z</time>
      </trkpt>
      <trkpt lat="43.20593" lon="2.08455">
        <ele>165.48</ele>
        <time>2014-06-08T10:37:44Z</time>
      </trkpt>
      <trkpt lat="43.20568" lon="2.08464">
        <ele>166.45</ele>
        <time>2014-06-08T10:37:50Z</time>
      </trkpt>
      <trkpt lat="43.20555" lon="2.08469">
        <ele>167.89</ele>
        <time>2014-06-08T10:37:53Z</time>
      </trkpt>
      <trkpt lat="43.20551" lon="2.08471">
        <ele>167.89</ele>
        <time>2014-06-08T10:37:54Z</time>
      </trkpt>
      <trkpt lat="43.20547" lon="2.08473">
        <ele>168.37</ele>
        <time>2014-06-08T10:37:55Z</time>
      </trkpt>
      <trkpt lat="43.20483" lon="2.08474">
        <ele>165.48</ele>
        <time>2014-06-08T10:38:07Z</time>
      </trkpt>
      <trkpt lat="43.20393" lon="2.08472">
        <ele>165</ele>
        <time>2014-06-08T10:38:23Z</time>
      </trkpt>
      <trkpt lat="43.20366" lon="2.08476">
        <ele>166.45</ele>
        <time>2014-06-08T10:38:29Z</time>
      </trkpt>
      <trkpt lat="43.20362" lon="2.08476">
        <ele>166.93</ele>
        <time>2014-06-08T10:38:30Z</time>
      </trkpt>
      <trkpt lat="43.20357" lon="2.08477">
        <ele>166.93</ele>
        <time>2014-06-08T10:38:31Z</time>
      </trkpt>
      <trkpt lat="43.20353" lon="2.08478">
        <ele>167.41</ele>
        <time>2014-06-08T10:38:32Z</time>
      </trkpt>
      <trkpt lat="43.20348" lon="2.08479">
        <ele>167.89</ele>
        <time>2014-06-08T10:38:33Z</time>
      </trkpt>
      <trkpt lat="43.20344" lon="2.08479">
        <ele>167.89</ele>
        <time>2014-06-08T10:38:34Z</time>
      </trkpt>
      <trkpt lat="43.2034" lon="2.08479">
        <ele>168.37</ele>
        <time>2014-06-08T10:38:35Z</time>
      </trkpt>
      <trkpt lat="43.20335" lon="2.08481">
        <ele>168.37</ele>
        <time>2014-06-08T10:38:36Z</time>
      </trkpt>
      <trkpt lat="43.20331" lon="2.08482">
        <ele>168.85</ele>
        <time>2014-06-08T10:38:37Z</time>
      </trkpt>
      <trkpt lat="43.20319" lon="2.08486">
        <ele>169.81</ele>
        <time>2014-06-08T10:38:40Z</time>
      </trkpt>
      <trkpt lat="43.20249" lon="2.08519">
        <ele>168.37</ele>
        <time>2014-06-08T10:38:54Z</time>
      </trkpt>
      <trkpt lat="43.20149" lon="2.08552">
        <ele>168.37</ele>
        <time>2014-06-08T10:39:14Z</time>
      </trkpt>
      <trkpt lat="43.20067" lon="2.0858">
        <ele>168.85</ele>
        <time>2014-06-08T10:39:31Z</time>
      </trkpt>
      <trkpt lat="43.19997" lon="2.08603">
        <ele>169.81</ele>
        <time>2014-06-08T10:39:46Z</time>
      </trkpt>
      <trkpt lat="43.19992" lon="2.08605">
        <ele>169.81</ele>
        <time>2014-06-08T10:39:47Z</time>
      </trkpt>
      <trkpt lat="43.19974" lon="2.08614">
        <ele>170.29</ele>
        <time>2014-06-08T10:39:51Z</time>
      </trkpt>
      <trkpt lat="43.1997" lon="2.08617">
        <ele>170.77</ele>
        <time>2014-06-08T10:39:52Z</time>
      </trkpt>
      <trkpt lat="43.19967" lon="2.08622">
        <ele>170.77</ele>
        <time>2014-06-08T10:39:53Z</time>
      </trkpt>
      <trkpt lat="43.19964" lon="2.08628">
        <ele>170.77</ele>
        <time>2014-06-08T10:39:54Z</time>
      </trkpt>
      <trkpt lat="43.19962" lon="2.08634">
        <ele>170.77</ele>
        <time>2014-06-08T10:39:55Z</time>
      </trkpt>
      <trkpt lat="43.19961" lon="2.0864">
        <ele>171.25</ele>
        <time>2014-06-08T10:39:56Z</time>
      </trkpt>
      <trkpt lat="43.1996" lon="2.08647">
        <ele>171.25</ele>
        <time>2014-06-08T10:39:57Z</time>
      </trkpt>
      <trkpt lat="43.19959" lon="2.08654">
        <ele>171.25</ele>
        <time>2014-06-08T10:39:58Z</time>
      </trkpt>
      <trkpt lat="43.19949" lon="2.08698">
        <ele>172.21</ele>
        <time>2014-06-08T10:40:05Z</time>
      </trkpt>
      <trkpt lat="43.19941" lon="2.08718">
        <ele>172.69</ele>
        <time>2014-06-08T10:40:09Z</time>
      </trkpt>
      <trkpt lat="43.19917" lon="2.08766">
        <ele>174.62</ele>
        <time>2014-06-08T10:40:19Z</time>
      </trkpt>
      <trkpt lat="43.19914" lon="2.0877">
        <ele>175.1</ele>
        <time>2014-06-08T10:40:20Z</time>
      </trkpt>
      <trkpt lat="43.19911" lon="2.08775">
        <ele>175.1</ele>
        <time>2014-06-08T10:40:21Z</time>
      </trkpt>
      <trkpt lat="43.19908" lon="2.08779">
        <ele>175.1</ele>
        <time>2014-06-08T10:40:22Z</time>
      </trkpt>
      <trkpt lat="43.19906" lon="2.08784">
        <ele>175.1</ele>
        <time>2014-06-08T10:40:23Z</time>
      </trkpt>
      <trkpt lat="43.19903" lon="2.08788">
        <ele>175.58</ele>
        <time>2014-06-08T10:40:24Z</time>
      </trkpt>
      <trkpt lat="43.19901" lon="2.08793">
        <ele>176.06</ele>
        <time>2014-06-08T10:40:25Z</time>
      </trkpt>
      <trkpt lat="43.19887" lon="2.08816">
        <ele>177.98</ele>
        <time>2014-06-08T10:40:33Z</time>
      </trkpt>
      <trkpt lat="43.19886" lon="2.08816">
        <ele>177.98</ele>
        <time>2014-06-08T10:40:34Z</time>
      </trkpt>
      <trkpt lat="43.19878" lon="2.08814">
        <ele>179.42</ele>
        <time>2014-06-08T10:40:44Z</time>
      </trkpt>
      <trkpt lat="43.19864" lon="2.0882">
        <ele>179.9</ele>
        <time>2014-06-08T10:40:48Z</time>
      </trkpt>
      <trkpt lat="43.19798" lon="2.08856">
        <ele>180.87</ele>
        <time>2014-06-08T10:41:04Z</time>
      </trkpt>
      <trkpt lat="43.19713" lon="2.08901">
        <ele>181.83</ele>
        <time>2014-06-08T10:41:23Z</time>
      </trkpt>
      <trkpt lat="43.19631" lon="2.08945">
        <ele>182.31</ele>
        <time>2014-06-08T10:41:41Z</time>
      </trkpt>
      <trkpt lat="43.1956" lon="2.0899">
        <ele>180.87</ele>
        <time>2014-06-08T10:41:57Z</time>
      </trkpt>
      <trkpt lat="43.19512" lon="2.09021">
        <ele>180.87</ele>
        <time>2014-06-08T10:42:08Z</time>
      </trkpt>
      <trkpt lat="43.19508" lon="2.09024">
        <ele>181.35</ele>
        <time>2014-06-08T10:42:09Z</time>
      </trkpt>
      <trkpt lat="43.19482" lon="2.09044">
        <ele>183.27</ele>
        <time>2014-06-08T10:42:15Z</time>
      </trkpt>
      <trkpt lat="43.19477" lon="2.09046">
        <ele>183.75</ele>
        <time>2014-06-08T10:42:16Z</time>
      </trkpt>
      <trkpt lat="43.19473" lon="2.09049">
        <ele>183.75</ele>
        <time>2014-06-08T10:42:17Z</time>
      </trkpt>
      <trkpt lat="43.19469" lon="2.09052">
        <ele>184.23</ele>
        <time>2014-06-08T10:42:18Z</time>
      </trkpt>
      <trkpt lat="43.19464" lon="2.09055">
        <ele>184.71</ele>
        <time>2014-06-08T10:42:19Z</time>
      </trkpt>
      <trkpt lat="43.1946" lon="2.09059">
        <ele>185.19</ele>
        <time>2014-06-08T10:42:20Z</time>
      </trkpt>
      <trkpt lat="43.19407" lon="2.0912">
        <ele>188.56</ele>
        <time>2014-06-08T10:42:35Z</time>
      </trkpt>
      <trkpt lat="43.19404" lon="2.09125">
        <ele>189.04</ele>
        <time>2014-06-08T10:42:36Z</time>
      </trkpt>
      <trkpt lat="43.19401" lon="2.09129">
        <ele>189.04</ele>
        <time>2014-06-08T10:42:37Z</time>
      </trkpt>
      <trkpt lat="43.19399" lon="2.09135">
        <ele>189.52</ele>
        <time>2014-06-08T10:42:38Z</time>
      </trkpt>
      <trkpt lat="43.19397" lon="2.0914">
        <ele>189.52</ele>
        <time>2014-06-08T10:42:39Z</time>
      </trkpt>
      <trkpt lat="43.19383" lon="2.09195">
        <ele>192.4</ele>
        <time>2014-06-08T10:42:50Z</time>
      </trkpt>
      <trkpt lat="43.19381" lon="2.09196">
        <ele>192.4</ele>
        <time>2014-06-08T10:42:51Z</time>
      </trkpt>
      <trkpt lat="43.19379" lon="2.09196">
        <ele>192.88</ele>
        <time>2014-06-08T10:42:52Z</time>
      </trkpt>
      <trkpt lat="43.19376" lon="2.09196">
        <ele>192.88</ele>
        <time>2014-06-08T10:42:53Z</time>
      </trkpt>
      <trkpt lat="43.19374" lon="2.09196">
        <ele>193.36</ele>
        <time>2014-06-08T10:42:54Z</time>
      </trkpt>
      <trkpt lat="43.19371" lon="2.09195">
        <ele>193.36</ele>
        <time>2014-06-08T10:42:55Z</time>
      </trkpt>
      <trkpt lat="43.1936" lon="2.0919">
        <ele>193.36</ele>
        <time>2014-06-08T10:42:58Z</time>
      </trkpt>
      <trkpt lat="43.19356" lon="2.0919">
        <ele>192.88</ele>
        <time>2014-06-08T10:42:59Z</time>
      </trkpt>
      <trkpt lat="43.1935" lon="2.0919">
        <ele>192.88</ele>
        <time>2014-06-08T10:43:00Z</time>
      </trkpt>
      <trkpt lat="43.19345" lon="2.09189">
        <ele>192.4</ele>
        <time>2014-06-08T10:43:01Z</time>
      </trkpt>
      <trkpt lat="43.19339" lon="2.09189">
        <ele>192.4</ele>
        <time>2014-06-08T10:43:02Z</time>
      </trkpt>
      <trkpt lat="43.19317" lon="2.09192">
        <ele>191.92</ele>
        <time>2014-06-08T10:43:06Z</time>
      </trkpt>
      <trkpt lat="43.19311" lon="2.09194">
        <ele>191.44</ele>
        <time>2014-06-08T10:43:07Z</time>
      </trkpt>
      <trkpt lat="43.193" lon="2.09197">
        <ele>191.44</ele>
        <time>2014-06-08T10:43:09Z</time>
      </trkpt>
      <trkpt lat="43.19275" lon="2.09212">
        <ele>191.92</ele>
        <time>2014-06-08T10:43:14Z</time>
      </trkpt>
      <trkpt lat="43.1921" lon="2.09253">
        <ele>193.36</ele>
        <time>2014-06-08T10:43:27Z</time>
      </trkpt>
      <trkpt lat="43.19204" lon="2.09255">
        <ele>193.36</ele>
        <time>2014-06-08T10:43:28Z</time>
      </trkpt>
      <trkpt lat="43.19186" lon="2.09257">
        <ele>192.88</ele>
        <time>2014-06-08T10:43:31Z</time>
      </trkpt>
      <trkpt lat="43.19145" lon="2.09258">
        <ele>193.84</ele>
        <time>2014-06-08T10:43:39Z</time>
      </trkpt>
      <trkpt lat="43.19124" lon="2.09259">
        <ele>194.32</ele>
        <time>2014-06-08T10:43:43Z</time>
      </trkpt>
      <trkpt lat="43.19104" lon="2.09265">
        <ele>194.32</ele>
        <time>2014-06-08T10:43:47Z</time>
      </trkpt>
      <trkpt lat="43.19099" lon="2.09267">
        <ele>194.32</ele>
        <time>2014-06-08T10:43:48Z</time>
      </trkpt>
      <trkpt lat="43.19062" lon="2.09285">
        <ele>193.36</ele>
        <time>2014-06-08T10:43:55Z</time>
      </trkpt>
      <trkpt lat="43.19057" lon="2.0929">
        <ele>193.36</ele>
        <time>2014-06-08T10:43:56Z</time>
      </trkpt>
      <trkpt lat="43.1905" lon="2.09298">
        <ele>192.88</ele>
        <time>2014-06-08T10:43:58Z</time>
      </trkpt>
      <trkpt lat="43.19034" lon="2.09324">
        <ele>192.4</ele>
        <time>2014-06-08T10:44:03Z</time>
      </trkpt>
      <trkpt lat="43.19018" lon="2.09355">
        <ele>193.36</ele>
        <time>2014-06-08T10:44:09Z</time>
      </trkpt>
      <trkpt lat="43.19007" lon="2.0937">
        <ele>194.8</ele>
        <time>2014-06-08T10:44:18Z</time>
      </trkpt>
      <trkpt lat="43.19007" lon="2.09371">
        <ele>194.8</ele>
        <time>2014-06-08T10:44:28Z</time>
      </trkpt>
      <trkpt lat="43.19006" lon="2.09374">
        <ele>194.8</ele>
        <time>2014-06-08T10:44:29Z</time>
      </trkpt>
      <trkpt lat="43.19006" lon="2.09377">
        <ele>194.8</ele>
        <time>2014-06-08T10:44:30Z</time>
      </trkpt>
      <trkpt lat="43.19005" lon="2.0938">
        <ele>194.8</ele>
        <time>2014-06-08T10:44:31Z</time>
      </trkpt>
      <trkpt lat="43.19003" lon="2.09384">
        <ele>195.28</ele>
        <time>2014-06-08T10:44:32Z</time>
      </trkpt>
      <trkpt lat="43.19" lon="2.09389">
        <ele>195.28</ele>
        <time>2014-06-08T10:44:33Z</time>
      </trkpt>
      <trkpt lat="43.18986" lon="2.09416">
        <ele>196.25</ele>
        <time>2014-06-08T10:44:39Z</time>
      </trkpt>
      <trkpt lat="43.18966" lon="2.09461">
        <ele>198.17</ele>
        <time>2014-06-08T10:44:48Z</time>
      </trkpt>
      <trkpt lat="43.18963" lon="2.09466">
        <ele>198.17</ele>
        <time>2014-06-08T10:44:49Z</time>
      </trkpt>
      <trkpt lat="43.18929" lon="2.09545">
        <ele>197.69</ele>
        <time>2014-06-08T10:45:04Z</time>
      </trkpt>
      <trkpt lat="43.18891" lon="2.09597">
        <ele>199.61</ele>
        <time>2014-06-08T10:45:16Z</time>
      </trkpt>
      <trkpt lat="43.18822" lon="2.09645">
        <ele>202.01</ele>
        <time>2014-06-08T10:45:33Z</time>
      </trkpt>
      <trkpt lat="43.18746" lon="2.09718">
        <ele>202.98</ele>
        <time>2014-06-08T10:45:52Z</time>
      </trkpt>
      <trkpt lat="43.18678" lon="2.0979">
        <ele>204.42</ele>
        <time>2014-06-08T10:46:10Z</time>
      </trkpt>
      <trkpt lat="43.18639" lon="2.09849">
        <ele>205.86</ele>
        <time>2014-06-08T10:46:22Z</time>
      </trkpt>
      <trkpt lat="43.18633" lon="2.09859">
        <ele>205.86</ele>
        <time>2014-06-08T10:46:24Z</time>
      </trkpt>
      <trkpt lat="43.1863" lon="2.09863">
        <ele>205.86</ele>
        <time>2014-06-08T10:46:25Z</time>
      </trkpt>
      <trkpt lat="43.18613" lon="2.09892">
        <ele>207.3</ele>
        <time>2014-06-08T10:46:31Z</time>
      </trkpt>
      <trkpt lat="43.186" lon="2.09911">
        <ele>207.3</ele>
        <time>2014-06-08T10:46:35Z</time>
      </trkpt>
      <trkpt lat="43.18593" lon="2.0992">
        <ele>207.78</ele>
        <time>2014-06-08T10:46:37Z</time>
      </trkpt>
      <trkpt lat="43.1859" lon="2.09925">
        <ele>207.78</ele>
        <time>2014-06-08T10:46:38Z</time>
      </trkpt>
      <trkpt lat="43.1857" lon="2.09951">
        <ele>208.74</ele>
        <time>2014-06-08T10:46:44Z</time>
      </trkpt>
      <trkpt lat="43.18566" lon="2.09956">
        <ele>208.74</ele>
        <time>2014-06-08T10:46:45Z</time>
      </trkpt>
      <trkpt lat="43.18517" lon="2.10017">
        <ele>211.63</ele>
        <time>2014-06-08T10:47:00Z</time>
      </trkpt>
      <trkpt lat="43.1847" lon="2.10112">
        <ele>214.99</ele>
        <time>2014-06-08T10:47:20Z</time>
      </trkpt>
      <trkpt lat="43.18437" lon="2.10174">
        <ele>212.11</ele>
        <time>2014-06-08T10:47:33Z</time>
      </trkpt>
      <trkpt lat="43.18434" lon="2.1018">
        <ele>212.11</ele>
        <time>2014-06-08T10:47:34Z</time>
      </trkpt>
      <trkpt lat="43.18432" lon="2.10187">
        <ele>211.63</ele>
        <time>2014-06-08T10:47:35Z</time>
      </trkpt>
      <trkpt lat="43.18414" lon="2.10297">
        <ele>207.3</ele>
        <time>2014-06-08T10:47:48Z</time>
      </trkpt>
      <trkpt lat="43.18384" lon="2.10409">
        <ele>205.86</ele>
        <time>2014-06-08T10:48:03Z</time>
      </trkpt>
      <trkpt lat="43.18383" lon="2.10416">
        <ele>205.86</ele>
        <time>2014-06-08T10:48:04Z</time>
      </trkpt>
      <trkpt lat="43.18364" lon="2.10535">
        <ele>204.42</ele>
        <time>2014-06-08T10:48:20Z</time>
      </trkpt>
      <trkpt lat="43.18347" lon="2.10597">
        <ele>203.94</ele>
        <time>2014-06-08T10:48:29Z</time>
      </trkpt>
      <trkpt lat="43.18331" lon="2.10666">
        <ele>202.98</ele>
        <time>2014-06-08T10:48:39Z</time>
      </trkpt>
      <trkpt lat="43.18328" lon="2.10672">
        <ele>202.98</ele>
        <time>2014-06-08T10:48:40Z</time>
      </trkpt>
      <trkpt lat="43.1828" lon="2.10755">
        <ele>200.09</ele>
        <time>2014-06-08T10:48:54Z</time>
      </trkpt>
      <trkpt lat="43.18228" lon="2.10849">
        <ele>191.44</ele>
        <time>2014-06-08T10:49:05Z</time>
      </trkpt>
      <trkpt lat="43.18116" lon="2.1097">
        <ele>185.67</ele>
        <time>2014-06-08T10:49:22Z</time>
      </trkpt>
      <trkpt lat="43.18077" lon="2.11005">
        <ele>188.08</ele>
        <time>2014-06-08T10:49:32Z</time>
      </trkpt>
      <trkpt lat="43.18056" lon="2.11024">
        <ele>190.48</ele>
        <time>2014-06-08T10:49:40Z</time>
      </trkpt>
      <trkpt lat="43.18038" lon="2.1102">
        <ele>192.88</ele>
        <time>2014-06-08T10:49:45Z</time>
      </trkpt>
      <trkpt lat="43.18014" lon="2.11007">
        <ele>194.32</ele>
        <time>2014-06-08T10:49:52Z</time>
      </trkpt>
      <trkpt lat="43.18009" lon="2.11007">
        <ele>194.32</ele>
        <time>2014-06-08T10:49:53Z</time>
      </trkpt>
      <trkpt lat="43.18005" lon="2.11005">
        <ele>194.32</ele>
        <time>2014-06-08T10:49:54Z</time>
      </trkpt>
      <trkpt lat="43.17997" lon="2.11002">
        <ele>193.84</ele>
        <time>2014-06-08T10:49:56Z</time>
      </trkpt>
      <trkpt lat="43.17993" lon="2.11001">
        <ele>194.32</ele>
        <time>2014-06-08T10:49:57Z</time>
      </trkpt>
      <trkpt lat="43.17989" lon="2.11002">
        <ele>194.8</ele>
        <time>2014-06-08T10:49:58Z</time>
      </trkpt>
      <trkpt lat="43.17973" lon="2.11005">
        <ele>195.77</ele>
        <time>2014-06-08T10:50:02Z</time>
      </trkpt>
      <trkpt lat="43.17969" lon="2.11008">
        <ele>196.25</ele>
        <time>2014-06-08T10:50:03Z</time>
      </trkpt>
      <trkpt lat="43.17966" lon="2.11011">
        <ele>196.25</ele>
        <time>2014-06-08T10:50:04Z</time>
      </trkpt>
      <trkpt lat="43.1796" lon="2.11053">
        <ele>195.28</ele>
        <time>2014-06-08T10:50:14Z</time>
      </trkpt>
      <trkpt lat="43.17968" lon="2.11072">
        <ele>194.32</ele>
        <time>2014-06-08T10:50:23Z</time>
      </trkpt>
      <trkpt lat="43.17968" lon="2.11075">
        <ele>194.8</ele>
        <time>2014-06-08T10:50:27Z</time>
      </trkpt>
      <trkpt lat="43.17967" lon="2.11076">
        <ele>194.8</ele>
        <time>2014-06-08T10:50:28Z</time>
      </trkpt>
      <trkpt lat="43.17966" lon="2.11077">
        <ele>194.8</ele>
        <time>2014-06-08T10:50:29Z</time>
      </trkpt>
      <trkpt lat="43.17964" lon="2.11078">
        <ele>195.28</ele>
        <time>2014-06-08T10:50:30Z</time>
      </trkpt>
      <trkpt lat="43.17963" lon="2.11079">
        <ele>195.28</ele>
        <time>2014-06-08T10:50:31Z</time>
      </trkpt>
      <trkpt lat="43.17961" lon="2.11081">
        <ele>195.28</ele>
        <time>2014-06-08T10:50:32Z</time>
      </trkpt>
      <trkpt lat="43.17959" lon="2.11083">
        <ele>195.28</ele>
        <time>2014-06-08T10:50:33Z</time>
      </trkpt>
      <trkpt lat="43.17958" lon="2.11086">
        <ele>195.28</ele>
        <time>2014-06-08T10:50:34Z</time>
      </trkpt>
      <trkpt lat="43.17955" lon="2.11088">
        <ele>194.8</ele>
        <time>2014-06-08T10:50:35Z</time>
      </trkpt>
      <trkpt lat="43.17951" lon="2.1109">
        <ele>194.8</ele>
        <time>2014-06-08T10:50:36Z</time>
      </trkpt>
      <trkpt lat="43.17927" lon="2.11104">
        <ele>193.84</ele>
        <time>2014-06-08T10:50:42Z</time>
      </trkpt>
      <trkpt lat="43.17923" lon="2.11105">
        <ele>193.84</ele>
        <time>2014-06-08T10:50:43Z</time>
      </trkpt>
      <trkpt lat="43.17919" lon="2.11106">
        <ele>193.36</ele>
        <time>2014-06-08T10:50:44Z</time>
      </trkpt>
      <trkpt lat="43.17916" lon="2.11106">
        <ele>193.36</ele>
        <time>2014-06-08T10:50:45Z</time>
      </trkpt>
      <trkpt lat="43.17912" lon="2.11106">
        <ele>192.88</ele>
        <time>2014-06-08T10:50:46Z</time>
      </trkpt>
      <trkpt lat="43.17908" lon="2.11107">
        <ele>193.36</ele>
        <time>2014-06-08T10:50:47Z</time>
      </trkpt>
      <trkpt lat="43.17906" lon="2.11111">
        <ele>193.36</ele>
        <time>2014-06-08T10:50:48Z</time>
      </trkpt>
      <trkpt lat="43.17905" lon="2.11117">
        <ele>193.36</ele>
        <time>2014-06-08T10:50:49Z</time>
      </trkpt>
      <trkpt lat="43.17906" lon="2.11122">
        <ele>193.36</ele>
        <time>2014-06-08T10:50:50Z</time>
      </trkpt>
      <trkpt lat="43.17909" lon="2.11127">
        <ele>193.36</ele>
        <time>2014-06-08T10:50:51Z</time>
      </trkpt>
      <trkpt lat="43.17911" lon="2.11132">
        <ele>193.36</ele>
        <time>2014-06-08T10:50:52Z</time>
      </trkpt>
      <trkpt lat="43.17913" lon="2.11137">
        <ele>193.36</ele>
        <time>2014-06-08T10:50:53Z</time>
      </trkpt>
      <trkpt lat="43.17913" lon="2.11141">
        <ele>193.36</ele>
        <time>2014-06-08T10:50:54Z</time>
      </trkpt>
      <trkpt lat="43.17913" lon="2.11145">
        <ele>192.88</ele>
        <time>2014-06-08T10:50:55Z</time>
      </trkpt>
      <trkpt lat="43.17913" lon="2.11149">
        <ele>192.88</ele>
        <time>2014-06-08T10:50:56Z</time>
      </trkpt>
      <trkpt lat="43.17913" lon="2.11153">
        <ele>192.4</ele>
        <time>2014-06-08T10:50:57Z</time>
      </trkpt>
      <trkpt lat="43.17913" lon="2.11156">
        <ele>192.88</ele>
        <time>2014-06-08T10:50:58Z</time>
      </trkpt>
      <trkpt lat="43.17913" lon="2.11159">
        <ele>192.88</ele>
        <time>2014-06-08T10:50:59Z</time>
      </trkpt>
      <trkpt lat="43.17912" lon="2.11164">
        <ele>193.36</ele>
        <time>2014-06-08T10:51:10Z</time>
      </trkpt>
      <trkpt lat="43.17912" lon="2.11166">
        <ele>193.36</ele>
        <time>2014-06-08T10:51:11Z</time>
      </trkpt>
      <trkpt lat="43.17912" lon="2.11167">
        <ele>193.36</ele>
        <time>2014-06-08T10:51:12Z</time>
      </trkpt>
      <trkpt lat="43.17907" lon="2.11194">
        <ele>192.4</ele>
        <time>2014-06-08T10:51:20Z</time>
      </trkpt>
      <trkpt lat="43.17905" lon="2.11199">
        <ele>192.4</ele>
        <time>2014-06-08T10:51:21Z</time>
      </trkpt>
      <trkpt lat="43.17902" lon="2.11204">
        <ele>192.4</ele>
        <time>2014-06-08T10:51:22Z</time>
      </trkpt>
      <trkpt lat="43.17899" lon="2.11208">
        <ele>191.92</ele>
        <time>2014-06-08T10:51:23Z</time>
      </trkpt>
      <trkpt lat="43.17896" lon="2.11213">
        <ele>191.44</ele>
        <time>2014-06-08T10:51:24Z</time>
      </trkpt>
      <trkpt lat="43.17892" lon="2.11217">
        <ele>191.44</ele>
        <time>2014-06-08T10:51:25Z</time>
      </trkpt>
      <trkpt lat="43.17842" lon="2.11244">
        <ele>190.96</ele>
        <time>2014-06-08T10:51:36Z</time>
      </trkpt>
      <trkpt lat="43.17838" lon="2.11247">
        <ele>191.44</ele>
        <time>2014-06-08T10:51:37Z</time>
      </trkpt>
      <trkpt lat="43.17834" lon="2.11251">
        <ele>191.44</ele>
        <time>2014-06-08T10:51:38Z</time>
      </trkpt>
      <trkpt lat="43.1783" lon="2.11255">
        <ele>191.44</ele>
        <time>2014-06-08T10:51:39Z</time>
      </trkpt>
      <trkpt lat="43.17827" lon="2.1126">
        <ele>191.92</ele>
        <time>2014-06-08T10:51:40Z</time>
      </trkpt>
      <trkpt lat="43.17824" lon="2.11265">
        <ele>191.92</ele>
        <time>2014-06-08T10:51:41Z</time>
      </trkpt>
      <trkpt lat="43.17814" lon="2.11287">
        <ele>191.44</ele>
        <time>2014-06-08T10:51:45Z</time>
      </trkpt>
      <trkpt lat="43.17811" lon="2.11292">
        <ele>191.44</ele>
        <time>2014-06-08T10:51:46Z</time>
      </trkpt>
      <trkpt lat="43.17789" lon="2.11331">
        <ele>190.48</ele>
        <time>2014-06-08T10:51:53Z</time>
      </trkpt>
      <trkpt lat="43.17787" lon="2.11337">
        <ele>190.48</ele>
        <time>2014-06-08T10:51:54Z</time>
      </trkpt>
      <trkpt lat="43.17784" lon="2.11342">
        <ele>190</ele>
        <time>2014-06-08T10:51:55Z</time>
      </trkpt>
      <trkpt lat="43.17779" lon="2.11345">
        <ele>190</ele>
        <time>2014-06-08T10:51:56Z</time>
      </trkpt>
      <trkpt lat="43.17774" lon="2.11346">
        <ele>190.48</ele>
        <time>2014-06-08T10:51:57Z</time>
      </trkpt>
      <trkpt lat="43.17769" lon="2.11345">
        <ele>190.48</ele>
        <time>2014-06-08T10:51:58Z</time>
      </trkpt>
      <trkpt lat="43.17734" lon="2.11348">
        <ele>190.96</ele>
        <time>2014-06-08T10:52:06Z</time>
      </trkpt>
      <trkpt lat="43.17733" lon="2.11351">
        <ele>190.96</ele>
        <time>2014-06-08T10:52:07Z</time>
      </trkpt>
      <trkpt lat="43.17734" lon="2.11354">
        <ele>190.96</ele>
        <time>2014-06-08T10:52:08Z</time>
      </trkpt>
      <trkpt lat="43.17735" lon="2.11358">
        <ele>190.96</ele>
        <time>2014-06-08T10:52:09Z</time>
      </trkpt>
      <trkpt lat="43.17735" lon="2.11363">
        <ele>190.96</ele>
        <time>2014-06-08T10:52:10Z</time>
      </trkpt>
      <trkpt lat="43.17737" lon="2.11388">
        <ele>188.08</ele>
        <time>2014-06-08T10:52:16Z</time>
      </trkpt>
      <trkpt lat="43.17735" lon="2.11391">
        <ele>188.08</ele>
        <time>2014-06-08T10:52:17Z</time>
      </trkpt>
      <trkpt lat="43.17732" lon="2.11393">
        <ele>187.59</ele>
        <time>2014-06-08T10:52:18Z</time>
      </trkpt>
      <trkpt lat="43.17717" lon="2.11404">
        <ele>188.08</ele>
        <time>2014-06-08T10:52:22Z</time>
      </trkpt>
      <trkpt lat="43.17646" lon="2.11445">
        <ele>188.08</ele>
        <time>2014-06-08T10:52:37Z</time>
      </trkpt>
      <trkpt lat="43.17569" lon="2.11478">
        <ele>189.52</ele>
        <time>2014-06-08T10:52:52Z</time>
      </trkpt>
      <trkpt lat="43.17487" lon="2.11539">
        <ele>189.52</ele>
        <time>2014-06-08T10:53:09Z</time>
      </trkpt>
      <trkpt lat="43.1748" lon="2.11549">
        <ele>190</ele>
        <time>2014-06-08T10:53:11Z</time>
      </trkpt>
      <trkpt lat="43.17469" lon="2.11568">
        <ele>190</ele>
        <time>2014-06-08T10:53:15Z</time>
      </trkpt>
      <trkpt lat="43.17413" lon="2.11623">
        <ele>190</ele>
        <time>2014-06-08T10:53:30Z</time>
      </trkpt>
      <trkpt lat="43.17373" lon="2.11654">
        <ele>190.96</ele>
        <time>2014-06-08T10:53:40Z</time>
      </trkpt>
      <trkpt lat="43.17335" lon="2.11672">
        <ele>191.92</ele>
        <time>2014-06-08T10:53:50Z</time>
      </trkpt>
      <trkpt lat="43.17323" lon="2.11687">
        <ele>192.4</ele>
        <time>2014-06-08T10:53:54Z</time>
      </trkpt>
      <trkpt lat="43.17308" lon="2.11715">
        <ele>192.4</ele>
        <time>2014-06-08T10:54:01Z</time>
      </trkpt>
      <trkpt lat="43.17305" lon="2.11718">
        <ele>192.4</ele>
        <time>2014-06-08T10:54:03Z</time>
      </trkpt>
      <trkpt lat="43.17302" lon="2.11716">
        <ele>192.4</ele>
        <time>2014-06-08T10:54:04Z</time>
      </trkpt>
      <trkpt lat="43.173" lon="2.11713">
        <ele>192.4</ele>
        <time>2014-06-08T10:54:05Z</time>
      </trkpt>
      <trkpt lat="43.17297" lon="2.11709">
        <ele>192.4</ele>
        <time>2014-06-08T10:54:06Z</time>
      </trkpt>
      <trkpt lat="43.17294" lon="2.11705">
        <ele>192.4</ele>
        <time>2014-06-08T10:54:07Z</time>
      </trkpt>
      <trkpt lat="43.1729" lon="2.11701">
        <ele>192.4</ele>
        <time>2014-06-08T10:54:08Z</time>
      </trkpt>
      <trkpt lat="43.17287" lon="2.11698">
        <ele>192.4</ele>
        <time>2014-06-08T10:54:09Z</time>
      </trkpt>
      <trkpt lat="43.17282" lon="2.11695">
        <ele>192.4</ele>
        <time>2014-06-08T10:54:10Z</time>
      </trkpt>
      <trkpt lat="43.17278" lon="2.11693">
        <ele>192.4</ele>
        <time>2014-06-08T10:54:11Z</time>
      </trkpt>
      <trkpt lat="43.17274" lon="2.11691">
        <ele>192.4</ele>
        <time>2014-06-08T10:54:12Z</time>
      </trkpt>
      <trkpt lat="43.17205" lon="2.11671">
        <ele>193.84</ele>
        <time>2014-06-08T10:54:27Z</time>
      </trkpt>
      <trkpt lat="43.17197" lon="2.11669">
        <ele>194.32</ele>
        <time>2014-06-08T10:54:29Z</time>
      </trkpt>
      <trkpt lat="43.17193" lon="2.11667">
        <ele>194.8</ele>
        <time>2014-06-08T10:54:30Z</time>
      </trkpt>
      <trkpt lat="43.17189" lon="2.11666">
        <ele>194.8</ele>
        <time>2014-06-08T10:54:31Z</time>
      </trkpt>
      <trkpt lat="43.17184" lon="2.11665">
        <ele>194.8</ele>
        <time>2014-06-08T10:54:32Z</time>
      </trkpt>
      <trkpt lat="43.1718" lon="2.11664">
        <ele>195.28</ele>
        <time>2014-06-08T10:54:33Z</time>
      </trkpt>
      <trkpt lat="43.17176" lon="2.11662">
        <ele>195.28</ele>
        <time>2014-06-08T10:54:34Z</time>
      </trkpt>
      <trkpt lat="43.17172" lon="2.1166">
        <ele>195.77</ele>
        <time>2014-06-08T10:54:35Z</time>
      </trkpt>
      <trkpt lat="43.17164" lon="2.11658">
        <ele>196.73</ele>
        <time>2014-06-08T10:54:37Z</time>
      </trkpt>
      <trkpt lat="43.1716" lon="2.11656">
        <ele>197.21</ele>
        <time>2014-06-08T10:54:38Z</time>
      </trkpt>
      <trkpt lat="43.1714" lon="2.11646">
        <ele>199.61</ele>
        <time>2014-06-08T10:54:43Z</time>
      </trkpt>
      <trkpt lat="43.17132" lon="2.11641">
        <ele>200.57</ele>
        <time>2014-06-08T10:54:45Z</time>
      </trkpt>
      <trkpt lat="43.17127" lon="2.1164">
        <ele>201.05</ele>
        <time>2014-06-08T10:54:46Z</time>
      </trkpt>
      <trkpt lat="43.17123" lon="2.11639">
        <ele>201.53</ele>
        <time>2014-06-08T10:54:47Z</time>
      </trkpt>
      <trkpt lat="43.17114" lon="2.11639">
        <ele>202.01</ele>
        <time>2014-06-08T10:54:49Z</time>
      </trkpt>
      <trkpt lat="43.1711" lon="2.1164">
        <ele>202.49</ele>
        <time>2014-06-08T10:54:50Z</time>
      </trkpt>
      <trkpt lat="43.17106" lon="2.11642">
        <ele>202.98</ele>
        <time>2014-06-08T10:54:51Z</time>
      </trkpt>
      <trkpt lat="43.17103" lon="2.11645">
        <ele>203.46</ele>
        <time>2014-06-08T10:54:52Z</time>
      </trkpt>
      <trkpt lat="43.17099" lon="2.11647">
        <ele>203.46</ele>
        <time>2014-06-08T10:54:53Z</time>
      </trkpt>
      <trkpt lat="43.17095" lon="2.1165">
        <ele>203.46</ele>
        <time>2014-06-08T10:54:54Z</time>
      </trkpt>
      <trkpt lat="43.17091" lon="2.11653">
        <ele>203.94</ele>
        <time>2014-06-08T10:54:55Z</time>
      </trkpt>
      <trkpt lat="43.17087" lon="2.11656">
        <ele>203.94</ele>
        <time>2014-06-08T10:54:56Z</time>
      </trkpt>
      <trkpt lat="43.17037" lon="2.11699">
        <ele>203.94</ele>
        <time>2014-06-08T10:55:09Z</time>
      </trkpt>
      <trkpt lat="43.17027" lon="2.11712">
        <ele>203.94</ele>
        <time>2014-06-08T10:55:12Z</time>
      </trkpt>
      <trkpt lat="43.17024" lon="2.11715">
        <ele>203.94</ele>
        <time>2014-06-08T10:55:13Z</time>
      </trkpt>
      <trkpt lat="43.1702" lon="2.11714">
        <ele>203.94</ele>
        <time>2014-06-08T10:55:14Z</time>
      </trkpt>
      <trkpt lat="43.17017" lon="2.11711">
        <ele>204.42</ele>
        <time>2014-06-08T10:55:15Z</time>
      </trkpt>
      <trkpt lat="43.17014" lon="2.11708">
        <ele>204.42</ele>
        <time>2014-06-08T10:55:16Z</time>
      </trkpt>
      <trkpt lat="43.1701" lon="2.11708">
        <ele>204.42</ele>
        <time>2014-06-08T10:55:17Z</time>
      </trkpt>
      <trkpt lat="43.17006" lon="2.1171">
        <ele>204.9</ele>
        <time>2014-06-08T10:55:18Z</time>
      </trkpt>
      <trkpt lat="43.17002" lon="2.11714">
        <ele>204.42</ele>
        <time>2014-06-08T10:55:19Z</time>
      </trkpt>
      <trkpt lat="43.16999" lon="2.11718">
        <ele>204.42</ele>
        <time>2014-06-08T10:55:20Z</time>
      </trkpt>
      <trkpt lat="43.16995" lon="2.1172">
        <ele>204.42</ele>
        <time>2014-06-08T10:55:21Z</time>
      </trkpt>
      <trkpt lat="43.16991" lon="2.11723">
        <ele>204.42</ele>
        <time>2014-06-08T10:55:22Z</time>
      </trkpt>
      <trkpt lat="43.16987" lon="2.11726">
        <ele>204.42</ele>
        <time>2014-06-08T10:55:23Z</time>
      </trkpt>
      <trkpt lat="43.16983" lon="2.11729">
        <ele>204.42</ele>
        <time>2014-06-08T10:55:24Z</time>
      </trkpt>
      <trkpt lat="43.16958" lon="2.11745">
        <ele>205.38</ele>
        <time>2014-06-08T10:55:30Z</time>
      </trkpt>
      <trkpt lat="43.16953" lon="2.11748">
        <ele>205.38</ele>
        <time>2014-06-08T10:55:31Z</time>
      </trkpt>
      <trkpt lat="43.16924" lon="2.11765">
        <ele>206.34</ele>
        <time>2014-06-08T10:55:38Z</time>
      </trkpt>
      <trkpt lat="43.16856" lon="2.11794">
        <ele>208.74</ele>
        <time>2014-06-08T10:55:53Z</time>
      </trkpt>
      <trkpt lat="43.16852" lon="2.11795">
        <ele>208.74</ele>
        <time>2014-06-08T10:55:54Z</time>
      </trkpt>
      <trkpt lat="43.16847" lon="2.11796">
        <ele>209.22</ele>
        <time>2014-06-08T10:55:55Z</time>
      </trkpt>
      <trkpt lat="43.16843" lon="2.11797">
        <ele>209.22</ele>
        <time>2014-06-08T10:55:56Z</time>
      </trkpt>
      <trkpt lat="43.16814" lon="2.11806">
        <ele>209.22</ele>
        <time>2014-06-08T10:56:02Z</time>
      </trkpt>
      <trkpt lat="43.16804" lon="2.11807">
        <ele>209.22</ele>
        <time>2014-06-08T10:56:04Z</time>
      </trkpt>
      <trkpt lat="43.168" lon="2.11808">
        <ele>209.22</ele>
        <time>2014-06-08T10:56:05Z</time>
      </trkpt>
      <trkpt lat="43.16795" lon="2.11809">
        <ele>209.22</ele>
        <time>2014-06-08T10:56:06Z</time>
      </trkpt>
      <trkpt lat="43.16729" lon="2.11807">
        <ele>207.78</ele>
        <time>2014-06-08T10:56:20Z</time>
      </trkpt>
      <trkpt lat="43.16709" lon="2.11805">
        <ele>207.78</ele>
        <time>2014-06-08T10:56:24Z</time>
      </trkpt>
      <trkpt lat="43.1663" lon="2.11781">
        <ele>206.34</ele>
        <time>2014-06-08T10:56:41Z</time>
      </trkpt>
      <trkpt lat="43.16609" lon="2.11773">
        <ele>207.3</ele>
        <time>2014-06-08T10:56:51Z</time>
      </trkpt>
      <trkpt lat="43.16609" lon="2.11772">
        <ele>210.67</ele>
        <time>2014-06-08T10:57:11Z</time>
      </trkpt>
      <trkpt lat="43.1661" lon="2.11771">
        <ele>211.15</ele>
        <time>2014-06-08T10:57:37Z</time>
      </trkpt>
      <trkpt lat="43.1661" lon="2.11773">
        <ele>211.63</ele>
        <time>2014-06-08T10:57:54Z</time>
      </trkpt>
      <trkpt lat="43.1661" lon="2.11775">
        <ele>212.11</ele>
        <time>2014-06-08T10:58:32Z</time>
      </trkpt>
      <trkpt lat="43.16611" lon="2.11773">
        <ele>213.55</ele>
        <time>2014-06-08T10:59:09Z</time>
      </trkpt>
      <trkpt lat="43.1661" lon="2.11774">
        <ele>213.07</ele>
        <time>2014-06-08T10:59:51Z</time>
      </trkpt>
      <trkpt lat="43.1661" lon="2.11775">
        <ele>212.11</ele>
        <time>2014-06-08T11:00:25Z</time>
      </trkpt>
      <trkpt lat="43.1661" lon="2.11774">
        <ele>211.15</ele>
        <time>2014-06-08T11:01:04Z</time>
      </trkpt>
      <trkpt lat="43.16609" lon="2.11774">
        <ele>211.15</ele>
        <time>2014-06-08T11:01:33Z</time>
      </trkpt>
      <trkpt lat="43.16592" lon="2.11766">
        <ele>212.59</ele>
        <time>2014-06-08T11:01:41Z</time>
      </trkpt>
      <trkpt lat="43.16565" lon="2.11749">
        <ele>212.11</ele>
        <time>2014-06-08T11:01:48Z</time>
      </trkpt>
      <trkpt lat="43.16561" lon="2.11747">
        <ele>211.63</ele>
        <time>2014-06-08T11:01:49Z</time>
      </trkpt>
      <trkpt lat="43.16495" lon="2.1171">
        <ele>211.63</ele>
        <time>2014-06-08T11:02:05Z</time>
      </trkpt>
      <trkpt lat="43.16491" lon="2.11708">
        <ele>211.63</ele>
        <time>2014-06-08T11:02:06Z</time>
      </trkpt>
      <trkpt lat="43.16469" lon="2.11696">
        <ele>211.63</ele>
        <time>2014-06-08T11:02:11Z</time>
      </trkpt>
      <trkpt lat="43.16465" lon="2.11695">
        <ele>211.63</ele>
        <time>2014-06-08T11:02:12Z</time>
      </trkpt>
      <trkpt lat="43.16461" lon="2.11694">
        <ele>211.15</ele>
        <time>2014-06-08T11:02:13Z</time>
      </trkpt>
      <trkpt lat="43.16457" lon="2.11692">
        <ele>211.15</ele>
        <time>2014-06-08T11:02:14Z</time>
      </trkpt>
      <trkpt lat="43.16453" lon="2.11689">
        <ele>210.67</ele>
        <time>2014-06-08T11:02:15Z</time>
      </trkpt>
      <trkpt lat="43.16449" lon="2.11687">
        <ele>210.67</ele>
        <time>2014-06-08T11:02:16Z</time>
      </trkpt>
      <trkpt lat="43.16436" lon="2.1168">
        <ele>210.67</ele>
        <time>2014-06-08T11:02:19Z</time>
      </trkpt>
      <trkpt lat="43.16432" lon="2.11678">
        <ele>210.67</ele>
        <time>2014-06-08T11:02:20Z</time>
      </trkpt>
      <trkpt lat="43.16429" lon="2.11677">
        <ele>210.67</ele>
        <time>2014-06-08T11:02:21Z</time>
      </trkpt>
      <trkpt lat="43.16425" lon="2.11675">
        <ele>211.15</ele>
        <time>2014-06-08T11:02:22Z</time>
      </trkpt>
      <trkpt lat="43.16421" lon="2.11672">
        <ele>211.15</ele>
        <time>2014-06-08T11:02:23Z</time>
      </trkpt>
      <trkpt lat="43.16387" lon="2.11651">
        <ele>215.95</ele>
        <time>2014-06-08T11:02:33Z</time>
      </trkpt>
      <trkpt lat="43.16324" lon="2.11622">
        <ele>215.47</ele>
        <time>2014-06-08T11:02:48Z</time>
      </trkpt>
      <trkpt lat="43.16312" lon="2.11616">
        <ele>216.43</ele>
        <time>2014-06-08T11:02:51Z</time>
      </trkpt>
      <trkpt lat="43.1624" lon="2.11594">
        <ele>217.4</ele>
        <time>2014-06-08T11:03:07Z</time>
      </trkpt>
      <trkpt lat="43.16165" lon="2.11585">
        <ele>216.91</ele>
        <time>2014-06-08T11:03:24Z</time>
      </trkpt>
      <trkpt lat="43.16121" lon="2.11584">
        <ele>216.43</ele>
        <time>2014-06-08T11:03:35Z</time>
      </trkpt>
      <trkpt lat="43.16117" lon="2.11586">
        <ele>215.95</ele>
        <time>2014-06-08T11:03:36Z</time>
      </trkpt>
      <trkpt lat="43.16114" lon="2.11586">
        <ele>215.95</ele>
        <time>2014-06-08T11:03:37Z</time>
      </trkpt>
      <trkpt lat="43.16111" lon="2.11585">
        <ele>215.95</ele>
        <time>2014-06-08T11:03:38Z</time>
      </trkpt>
      <trkpt lat="43.1611" lon="2.11585">
        <ele>215.95</ele>
        <time>2014-06-08T11:03:39Z</time>
      </trkpt>
      <trkpt lat="43.16106" lon="2.11582">
        <ele>215.95</ele>
        <time>2014-06-08T11:03:43Z</time>
      </trkpt>
      <trkpt lat="43.16104" lon="2.1158">
        <ele>215.95</ele>
        <time>2014-06-08T11:03:44Z</time>
      </trkpt>
      <trkpt lat="43.16102" lon="2.11578">
        <ele>215.95</ele>
        <time>2014-06-08T11:03:45Z</time>
      </trkpt>
      <trkpt lat="43.161" lon="2.11577">
        <ele>216.43</ele>
        <time>2014-06-08T11:03:46Z</time>
      </trkpt>
      <trkpt lat="43.16097" lon="2.11576">
        <ele>216.43</ele>
        <time>2014-06-08T11:03:47Z</time>
      </trkpt>
      <trkpt lat="43.16095" lon="2.11576">
        <ele>216.91</ele>
        <time>2014-06-08T11:03:48Z</time>
      </trkpt>
      <trkpt lat="43.16057" lon="2.1158">
        <ele>219.32</ele>
        <time>2014-06-08T11:04:00Z</time>
      </trkpt>
      <trkpt lat="43.15995" lon="2.1159">
        <ele>221.24</ele>
        <time>2014-06-08T11:04:18Z</time>
      </trkpt>
      <trkpt lat="43.15948" lon="2.11608">
        <ele>223.16</ele>
        <time>2014-06-08T11:04:32Z</time>
      </trkpt>
      <trkpt lat="43.15893" lon="2.11635">
        <ele>224.61</ele>
        <time>2014-06-08T11:04:49Z</time>
      </trkpt>
      <trkpt lat="43.15849" lon="2.11663">
        <ele>223.64</ele>
        <time>2014-06-08T11:05:02Z</time>
      </trkpt>
      <trkpt lat="43.15809" lon="2.11693">
        <ele>222.68</ele>
        <time>2014-06-08T11:05:12Z</time>
      </trkpt>
      <trkpt lat="43.15806" lon="2.11696">
        <ele>222.68</ele>
        <time>2014-06-08T11:05:13Z</time>
      </trkpt>
      <trkpt lat="43.15802" lon="2.11698">
        <ele>222.68</ele>
        <time>2014-06-08T11:05:14Z</time>
      </trkpt>
      <trkpt lat="43.15779" lon="2.11719">
        <ele>225.09</ele>
        <time>2014-06-08T11:05:23Z</time>
      </trkpt>
      <trkpt lat="43.15789" lon="2.11745">
        <ele>226.05</ele>
        <time>2014-06-08T11:05:33Z</time>
      </trkpt>
      <trkpt lat="43.15818" lon="2.11799">
        <ele>226.53</ele>
        <time>2014-06-08T11:05:45Z</time>
      </trkpt>
      <trkpt lat="43.15856" lon="2.11884">
        <ele>230.37</ele>
        <time>2014-06-08T11:06:03Z</time>
      </trkpt>
      <trkpt lat="43.15866" lon="2.11901">
        <ele>231.81</ele>
        <time>2014-06-08T11:06:07Z</time>
      </trkpt>
      <trkpt lat="43.15901" lon="2.11935">
        <ele>232.78</ele>
        <time>2014-06-08T11:06:17Z</time>
      </trkpt>
      <trkpt lat="43.15907" lon="2.11943">
        <ele>232.78</ele>
        <time>2014-06-08T11:06:19Z</time>
      </trkpt>
      <trkpt lat="43.1591" lon="2.11947">
        <ele>232.3</ele>
        <time>2014-06-08T11:06:20Z</time>
      </trkpt>
      <trkpt lat="43.15913" lon="2.11952">
        <ele>232.3</ele>
        <time>2014-06-08T11:06:21Z</time>
      </trkpt>
      <trkpt lat="43.15915" lon="2.11957">
        <ele>232.3</ele>
        <time>2014-06-08T11:06:22Z</time>
      </trkpt>
      <trkpt lat="43.15918" lon="2.11963">
        <ele>232.3</ele>
        <time>2014-06-08T11:06:23Z</time>
      </trkpt>
      <trkpt lat="43.15921" lon="2.11974">
        <ele>232.3</ele>
        <time>2014-06-08T11:06:25Z</time>
      </trkpt>
      <trkpt lat="43.15923" lon="2.1198">
        <ele>232.3</ele>
        <time>2014-06-08T11:06:26Z</time>
      </trkpt>
      <trkpt lat="43.15932" lon="2.1203">
        <ele>232.78</ele>
        <time>2014-06-08T11:06:35Z</time>
      </trkpt>
      <trkpt lat="43.15937" lon="2.12047">
        <ele>232.78</ele>
        <time>2014-06-08T11:06:38Z</time>
      </trkpt>
      <trkpt lat="43.15939" lon="2.12052">
        <ele>232.78</ele>
        <time>2014-06-08T11:06:39Z</time>
      </trkpt>
      <trkpt lat="43.15941" lon="2.12057">
        <ele>233.26</ele>
        <time>2014-06-08T11:06:40Z</time>
      </trkpt>
      <trkpt lat="43.15944" lon="2.12061">
        <ele>232.78</ele>
        <time>2014-06-08T11:06:41Z</time>
      </trkpt>
      <trkpt lat="43.15947" lon="2.12065">
        <ele>232.78</ele>
        <time>2014-06-08T11:06:42Z</time>
      </trkpt>
      <trkpt lat="43.1595" lon="2.12069">
        <ele>232.78</ele>
        <time>2014-06-08T11:06:43Z</time>
      </trkpt>
      <trkpt lat="43.1598" lon="2.12102">
        <ele>228.93</ele>
        <time>2014-06-08T11:06:51Z</time>
      </trkpt>
      <trkpt lat="43.15983" lon="2.12106">
        <ele>227.97</ele>
        <time>2014-06-08T11:06:52Z</time>
      </trkpt>
      <trkpt lat="43.1601" lon="2.12138">
        <ele>222.68</ele>
        <time>2014-06-08T11:06:58Z</time>
      </trkpt>
      <trkpt lat="43.16014" lon="2.12145">
        <ele>221.72</ele>
        <time>2014-06-08T11:06:59Z</time>
      </trkpt>
      <trkpt lat="43.16017" lon="2.12152">
        <ele>221.72</ele>
        <time>2014-06-08T11:07:00Z</time>
      </trkpt>
      <trkpt lat="43.16018" lon="2.12161">
        <ele>221.24</ele>
        <time>2014-06-08T11:07:01Z</time>
      </trkpt>
      <trkpt lat="43.1602" lon="2.12169">
        <ele>220.76</ele>
        <time>2014-06-08T11:07:02Z</time>
      </trkpt>
      <trkpt lat="43.16022" lon="2.12185">
        <ele>220.28</ele>
        <time>2014-06-08T11:07:04Z</time>
      </trkpt>
      <trkpt lat="43.16044" lon="2.12264">
        <ele>222.2</ele>
        <time>2014-06-08T11:07:17Z</time>
      </trkpt>
      <trkpt lat="43.16055" lon="2.123">
        <ele>225.09</ele>
        <time>2014-06-08T11:07:28Z</time>
      </trkpt>
      <trkpt lat="43.16064" lon="2.12352">
        <ele>229.89</ele>
        <time>2014-06-08T11:07:43Z</time>
      </trkpt>
      <trkpt lat="43.16073" lon="2.12398">
        <ele>234.7</ele>
        <time>2014-06-08T11:07:56Z</time>
      </trkpt>
      <trkpt lat="43.1609" lon="2.12439">
        <ele>239.02</ele>
        <time>2014-06-08T11:08:08Z</time>
      </trkpt>
      <trkpt lat="43.16121" lon="2.12513">
        <ele>244.31</ele>
        <time>2014-06-08T11:08:29Z</time>
      </trkpt>
      <trkpt lat="43.16114" lon="2.12551">
        <ele>247.2</ele>
        <time>2014-06-08T11:08:39Z</time>
      </trkpt>
      <trkpt lat="43.16096" lon="2.1261">
        <ele>249.6</ele>
        <time>2014-06-08T11:08:53Z</time>
      </trkpt>
      <trkpt lat="43.16094" lon="2.12627">
        <ele>249.6</ele>
        <time>2014-06-08T11:09:01Z</time>
      </trkpt>
      <trkpt lat="43.16094" lon="2.12628">
        <ele>248.16</ele>
        <time>2014-06-08T11:09:14Z</time>
      </trkpt>
      <trkpt lat="43.16097" lon="2.1263">
        <ele>248.64</ele>
        <time>2014-06-08T11:09:35Z</time>
      </trkpt>
      <trkpt lat="43.16095" lon="2.12625">
        <ele>254.41</ele>
        <time>2014-06-08T11:10:05Z</time>
      </trkpt>
      <trkpt lat="43.16096" lon="2.12624">
        <ele>255.37</ele>
        <time>2014-06-08T11:10:28Z</time>
      </trkpt>
      <trkpt lat="43.16096" lon="2.12626">
        <ele>256.81</ele>
        <time>2014-06-08T11:10:46Z</time>
      </trkpt>
      <trkpt lat="43.16096" lon="2.12624">
        <ele>256.33</ele>
        <time>2014-06-08T11:11:06Z</time>
      </trkpt>
      <trkpt lat="43.16094" lon="2.12627">
        <ele>255.85</ele>
        <time>2014-06-08T11:11:28Z</time>
      </trkpt>
      <trkpt lat="43.16092" lon="2.12628">
        <ele>253.93</ele>
        <time>2014-06-08T11:11:52Z</time>
      </trkpt>
      <trkpt lat="43.16092" lon="2.12627">
        <ele>251.04</ele>
        <time>2014-06-08T11:12:20Z</time>
      </trkpt>
      <trkpt lat="43.16092" lon="2.12626">
        <ele>249.6</ele>
        <time>2014-06-08T11:12:44Z</time>
      </trkpt>
      <trkpt lat="43.16092" lon="2.12633">
        <ele>248.64</ele>
        <time>2014-06-08T11:13:05Z</time>
      </trkpt>
      <trkpt lat="43.16094" lon="2.12636">
        <ele>249.12</ele>
        <time>2014-06-08T11:13:09Z</time>
      </trkpt>
      <trkpt lat="43.16094" lon="2.12638">
        <ele>249.12</ele>
        <time>2014-06-08T11:13:10Z</time>
      </trkpt>
      <trkpt lat="43.16093" lon="2.1264">
        <ele>248.64</ele>
        <time>2014-06-08T11:13:11Z</time>
      </trkpt>
      <trkpt lat="43.16093" lon="2.12642">
        <ele>248.64</ele>
        <time>2014-06-08T11:13:12Z</time>
      </trkpt>
      <trkpt lat="43.16094" lon="2.12646">
        <ele>249.12</ele>
        <time>2014-06-08T11:13:13Z</time>
      </trkpt>
      <trkpt lat="43.16094" lon="2.1265">
        <ele>248.64</ele>
        <time>2014-06-08T11:13:14Z</time>
      </trkpt>
      <trkpt lat="43.16094" lon="2.12655">
        <ele>248.64</ele>
        <time>2014-06-08T11:13:15Z</time>
      </trkpt>
      <trkpt lat="43.16094" lon="2.1266">
        <ele>248.64</ele>
        <time>2014-06-08T11:13:16Z</time>
      </trkpt>
      <trkpt lat="43.16098" lon="2.12681">
        <ele>248.64</ele>
        <time>2014-06-08T11:13:20Z</time>
      </trkpt>
      <trkpt lat="43.16099" lon="2.12687">
        <ele>248.64</ele>
        <time>2014-06-08T11:13:21Z</time>
      </trkpt>
      <trkpt lat="43.16106" lon="2.12724">
        <ele>247.68</ele>
        <time>2014-06-08T11:13:27Z</time>
      </trkpt>
      <trkpt lat="43.16104" lon="2.12731">
        <ele>247.2</ele>
        <time>2014-06-08T11:13:28Z</time>
      </trkpt>
      <trkpt lat="43.16101" lon="2.12736">
        <ele>247.2</ele>
        <time>2014-06-08T11:13:29Z</time>
      </trkpt>
      <trkpt lat="43.16097" lon="2.1274">
        <ele>247.2</ele>
        <time>2014-06-08T11:13:30Z</time>
      </trkpt>
      <trkpt lat="43.16092" lon="2.12743">
        <ele>246.72</ele>
        <time>2014-06-08T11:13:31Z</time>
      </trkpt>
      <trkpt lat="43.16086" lon="2.12744">
        <ele>246.72</ele>
        <time>2014-06-08T11:13:32Z</time>
      </trkpt>
      <trkpt lat="43.1608" lon="2.12744">
        <ele>246.23</ele>
        <time>2014-06-08T11:13:33Z</time>
      </trkpt>
      <trkpt lat="43.15981" lon="2.12752">
        <ele>245.27</ele>
        <time>2014-06-08T11:13:48Z</time>
      </trkpt>
      <trkpt lat="43.15941" lon="2.12763">
        <ele>246.23</ele>
        <time>2014-06-08T11:13:55Z</time>
      </trkpt>
      <trkpt lat="43.15858" lon="2.12762">
        <ele>246.23</ele>
        <time>2014-06-08T11:14:10Z</time>
      </trkpt>
      <trkpt lat="43.15788" lon="2.12726">
        <ele>245.75</ele>
        <time>2014-06-08T11:14:23Z</time>
      </trkpt>
      <trkpt lat="43.15706" lon="2.12646">
        <ele>241.91</ele>
        <time>2014-06-08T11:14:37Z</time>
      </trkpt>
      <trkpt lat="43.15588" lon="2.12558">
        <ele>238.54</ele>
        <time>2014-06-08T11:14:53Z</time>
      </trkpt>
      <trkpt lat="43.15524" lon="2.12508">
        <ele>238.06</ele>
        <time>2014-06-08T11:15:03Z</time>
      </trkpt>
      <trkpt lat="43.15511" lon="2.125">
        <ele>237.58</ele>
        <time>2014-06-08T11:15:05Z</time>
      </trkpt>
      <trkpt lat="43.15504" lon="2.12497">
        <ele>237.58</ele>
        <time>2014-06-08T11:15:06Z</time>
      </trkpt>
      <trkpt lat="43.15497" lon="2.12496">
        <ele>237.58</ele>
        <time>2014-06-08T11:15:07Z</time>
      </trkpt>
      <trkpt lat="43.15489" lon="2.12495">
        <ele>237.1</ele>
        <time>2014-06-08T11:15:08Z</time>
      </trkpt>
      <trkpt lat="43.15482" lon="2.12495">
        <ele>237.1</ele>
        <time>2014-06-08T11:15:09Z</time>
      </trkpt>
      <trkpt lat="43.15474" lon="2.12496">
        <ele>237.1</ele>
        <time>2014-06-08T11:15:10Z</time>
      </trkpt>
      <trkpt lat="43.15355" lon="2.12515">
        <ele>231.33</ele>
        <time>2014-06-08T11:15:25Z</time>
      </trkpt>
      <trkpt lat="43.15245" lon="2.12532">
        <ele>226.05</ele>
        <time>2014-06-08T11:15:38Z</time>
      </trkpt>
      <trkpt lat="43.15134" lon="2.12559">
        <ele>223.64</ele>
        <time>2014-06-08T11:15:53Z</time>
      </trkpt>
      <trkpt lat="43.15075" lon="2.12572">
        <ele>221.72</ele>
        <time>2014-06-08T11:16:02Z</time>
      </trkpt>
      <trkpt lat="43.15071" lon="2.12574">
        <ele>221.72</ele>
        <time>2014-06-08T11:16:03Z</time>
      </trkpt>
      <trkpt lat="43.15068" lon="2.12577">
        <ele>221.24</ele>
        <time>2014-06-08T11:16:04Z</time>
      </trkpt>
      <trkpt lat="43.15067" lon="2.12581">
        <ele>221.24</ele>
        <time>2014-06-08T11:16:05Z</time>
      </trkpt>
      <trkpt lat="43.15066" lon="2.12586">
        <ele>221.24</ele>
        <time>2014-06-08T11:16:06Z</time>
      </trkpt>
      <trkpt lat="43.15066" lon="2.12592">
        <ele>221.24</ele>
        <time>2014-06-08T11:16:07Z</time>
      </trkpt>
      <trkpt lat="43.15067" lon="2.12663">
        <ele>222.68</ele>
        <time>2014-06-08T11:16:20Z</time>
      </trkpt>
      <trkpt lat="43.15075" lon="2.12726">
        <ele>224.12</ele>
        <time>2014-06-08T11:16:33Z</time>
      </trkpt>
      <trkpt lat="43.15077" lon="2.12782">
        <ele>224.61</ele>
        <time>2014-06-08T11:16:48Z</time>
      </trkpt>
      <trkpt lat="43.15077" lon="2.1278">
        <ele>225.09</ele>
        <time>2014-06-08T11:17:04Z</time>
      </trkpt>
      <trkpt lat="43.15076" lon="2.12781">
        <ele>224.61</ele>
        <time>2014-06-08T11:17:43Z</time>
      </trkpt>
      <trkpt lat="43.15076" lon="2.12781">
        <ele>224.12</ele>
        <time>2014-06-08T11:18:12Z</time>
      </trkpt>
      <trkpt lat="43.15076" lon="2.12781">
        <ele>223.64</ele>
        <time>2014-06-08T11:18:51Z</time>
      </trkpt>
      <trkpt lat="43.15076" lon="2.12795">
        <ele>224.61</ele>
        <time>2014-06-08T11:19:14Z</time>
      </trkpt>
      <trkpt lat="43.15081" lon="2.12862">
        <ele>225.57</ele>
        <time>2014-06-08T11:19:30Z</time>
      </trkpt>
      <trkpt lat="43.15079" lon="2.12934">
        <ele>227.01</ele>
        <time>2014-06-08T11:19:46Z</time>
      </trkpt>
      <trkpt lat="43.15073" lon="2.1301">
        <ele>228.45</ele>
        <time>2014-06-08T11:20:03Z</time>
      </trkpt>
      <trkpt lat="43.15072" lon="2.13026">
        <ele>228.93</ele>
        <time>2014-06-08T11:20:07Z</time>
      </trkpt>
      <trkpt lat="43.15073" lon="2.13029">
        <ele>228.93</ele>
        <time>2014-06-08T11:20:08Z</time>
      </trkpt>
      <trkpt lat="43.15078" lon="2.13035">
        <ele>230.37</ele>
        <time>2014-06-08T11:20:11Z</time>
      </trkpt>
      <trkpt lat="43.15093" lon="2.13044">
        <ele>232.3</ele>
        <time>2014-06-08T11:20:18Z</time>
      </trkpt>
      <trkpt lat="43.15092" lon="2.13056">
        <ele>233.74</ele>
        <time>2014-06-08T11:20:23Z</time>
      </trkpt>
      <trkpt lat="43.15069" lon="2.13057">
        <ele>234.22</ele>
        <time>2014-06-08T11:20:34Z</time>
      </trkpt>
      <trkpt lat="43.15051" lon="2.13075">
        <ele>233.74</ele>
        <time>2014-06-08T11:20:46Z</time>
      </trkpt>
      <trkpt lat="43.15038" lon="2.13093">
        <ele>233.26</ele>
        <time>2014-06-08T11:20:58Z</time>
      </trkpt>
      <trkpt lat="43.15037" lon="2.13093">
        <ele>233.26</ele>
        <time>2014-06-08T11:20:59Z</time>
      </trkpt>
      <trkpt lat="43.15036" lon="2.13093">
        <ele>233.74</ele>
        <time>2014-06-08T11:21:00Z</time>
      </trkpt>
      <trkpt lat="43.15036" lon="2.13091">
        <ele>233.74</ele>
        <time>2014-06-08T11:21:01Z</time>
      </trkpt>
      <trkpt lat="43.15037" lon="2.1309">
        <ele>233.74</ele>
        <time>2014-06-08T11:21:02Z</time>
      </trkpt>
      <trkpt lat="43.15038" lon="2.13088">
        <ele>233.74</ele>
        <time>2014-06-08T11:21:03Z</time>
      </trkpt>
      <trkpt lat="43.15039" lon="2.13087">
        <ele>233.74</ele>
        <time>2014-06-08T11:21:04Z</time>
      </trkpt>
      <trkpt lat="43.1504" lon="2.13085">
        <ele>234.22</ele>
        <time>2014-06-08T11:21:05Z</time>
      </trkpt>
      <trkpt lat="43.1504" lon="2.1308">
        <ele>232.78</ele>
        <time>2014-06-08T11:21:15Z</time>
      </trkpt>
      <trkpt lat="43.15038" lon="2.13078">
        <ele>232.78</ele>
        <time>2014-06-08T11:21:18Z</time>
      </trkpt>
      <trkpt lat="43.15037" lon="2.13078">
        <ele>232.78</ele>
        <time>2014-06-08T11:21:19Z</time>
      </trkpt>
      <trkpt lat="43.15027" lon="2.13084">
        <ele>232.78</ele>
        <time>2014-06-08T11:21:29Z</time>
      </trkpt>
      <trkpt lat="43.15004" lon="2.13093">
        <ele>234.22</ele>
        <time>2014-06-08T11:21:39Z</time>
      </trkpt>
      <trkpt lat="43.15001" lon="2.13093">
        <ele>234.22</ele>
        <time>2014-06-08T11:21:40Z</time>
      </trkpt>
      <trkpt lat="43.14998" lon="2.13094">
        <ele>234.22</ele>
        <time>2014-06-08T11:21:41Z</time>
      </trkpt>
      <trkpt lat="43.14996" lon="2.13095">
        <ele>234.22</ele>
        <time>2014-06-08T11:21:42Z</time>
      </trkpt>
      <trkpt lat="43.14993" lon="2.13096">
        <ele>234.22</ele>
        <time>2014-06-08T11:21:43Z</time>
      </trkpt>
      <trkpt lat="43.14956" lon="2.13124">
        <ele>237.1</ele>
        <time>2014-06-08T11:21:58Z</time>
      </trkpt>
      <trkpt lat="43.14919" lon="2.13172">
        <ele>238.06</ele>
        <time>2014-06-08T11:22:15Z</time>
      </trkpt>
      <trkpt lat="43.14903" lon="2.13221">
        <ele>237.1</ele>
        <time>2014-06-08T11:22:28Z</time>
      </trkpt>
      <trkpt lat="43.14873" lon="2.13313">
        <ele>234.7</ele>
        <time>2014-06-08T11:22:48Z</time>
      </trkpt>
      <trkpt lat="43.14864" lon="2.13341">
        <ele>233.74</ele>
        <time>2014-06-08T11:22:53Z</time>
      </trkpt>
      <trkpt lat="43.14862" lon="2.13347">
        <ele>233.26</ele>
        <time>2014-06-08T11:22:54Z</time>
      </trkpt>
      <trkpt lat="43.14828" lon="2.13427">
        <ele>232.3</ele>
        <time>2014-06-08T11:23:11Z</time>
      </trkpt>
      <trkpt lat="43.14816" lon="2.13479">
        <ele>233.26</ele>
        <time>2014-06-08T11:23:22Z</time>
      </trkpt>
      <trkpt lat="43.14823" lon="2.13534">
        <ele>236.62</ele>
        <time>2014-06-08T11:23:34Z</time>
      </trkpt>
      <trkpt lat="43.14797" lon="2.13542">
        <ele>238.54</ele>
        <time>2014-06-08T11:23:44Z</time>
      </trkpt>
      <trkpt lat="43.1477" lon="2.13549">
        <ele>241.43</ele>
        <time>2014-06-08T11:23:55Z</time>
      </trkpt>
      <trkpt lat="43.14767" lon="2.13551">
        <ele>241.43</ele>
        <time>2014-06-08T11:23:56Z</time>
      </trkpt>
      <trkpt lat="43.14765" lon="2.13553">
        <ele>241.91</ele>
        <time>2014-06-08T11:23:57Z</time>
      </trkpt>
      <trkpt lat="43.14763" lon="2.13555">
        <ele>241.91</ele>
        <time>2014-06-08T11:23:58Z</time>
      </trkpt>
      <trkpt lat="43.14761" lon="2.13557">
        <ele>242.39</ele>
        <time>2014-06-08T11:23:59Z</time>
      </trkpt>
      <trkpt lat="43.14736" lon="2.13579">
        <ele>245.75</ele>
        <time>2014-06-08T11:24:11Z</time>
      </trkpt>
      <trkpt lat="43.14718" lon="2.13593">
        <ele>249.12</ele>
        <time>2014-06-08T11:24:22Z</time>
      </trkpt>
      <trkpt lat="43.14694" lon="2.13626">
        <ele>250.08</ele>
        <time>2014-06-08T11:24:37Z</time>
      </trkpt>
      <trkpt lat="43.14687" lon="2.13645">
        <ele>252.96</ele>
        <time>2014-06-08T11:24:47Z</time>
      </trkpt>
      <trkpt lat="43.14687" lon="2.13646">
        <ele>256.81</ele>
        <time>2014-06-08T11:25:02Z</time>
      </trkpt>
      <trkpt lat="43.14684" lon="2.13648">
        <ele>263.06</ele>
        <time>2014-06-08T11:25:32Z</time>
      </trkpt>
      <trkpt lat="43.14686" lon="2.13651">
        <ele>269.31</ele>
        <time>2014-06-08T11:26:05Z</time>
      </trkpt>
      <trkpt lat="43.14684" lon="2.13651">
        <ele>270.27</ele>
        <time>2014-06-08T11:26:42Z</time>
      </trkpt>
      <trkpt lat="43.14683" lon="2.13657">
        <ele>270.27</ele>
        <time>2014-06-08T11:27:11Z</time>
      </trkpt>
      <trkpt lat="43.14684" lon="2.13661">
        <ele>268.83</ele>
        <time>2014-06-08T11:27:14Z</time>
      </trkpt>
      <trkpt lat="43.14683" lon="2.13663">
        <ele>268.35</ele>
        <time>2014-06-08T11:27:15Z</time>
      </trkpt>
      <trkpt lat="43.14681" lon="2.13665">
        <ele>267.86</ele>
        <time>2014-06-08T11:27:16Z</time>
      </trkpt>
      <trkpt lat="43.1468" lon="2.13666">
        <ele>267.38</ele>
        <time>2014-06-08T11:27:17Z</time>
      </trkpt>
      <trkpt lat="43.14677" lon="2.13667">
        <ele>267.38</ele>
        <time>2014-06-08T11:27:18Z</time>
      </trkpt>
      <trkpt lat="43.14675" lon="2.1367">
        <ele>266.9</ele>
        <time>2014-06-08T11:27:19Z</time>
      </trkpt>
      <trkpt lat="43.14673" lon="2.13673">
        <ele>266.9</ele>
        <time>2014-06-08T11:27:20Z</time>
      </trkpt>
      <trkpt lat="43.14671" lon="2.13677">
        <ele>266.42</ele>
        <time>2014-06-08T11:27:21Z</time>
      </trkpt>
      <trkpt lat="43.1467" lon="2.13681">
        <ele>266.42</ele>
        <time>2014-06-08T11:27:22Z</time>
      </trkpt>
      <trkpt lat="43.14669" lon="2.13684">
        <ele>265.94</ele>
        <time>2014-06-08T11:27:23Z</time>
      </trkpt>
      <trkpt lat="43.14667" lon="2.13687">
        <ele>265.94</ele>
        <time>2014-06-08T11:27:24Z</time>
      </trkpt>
      <trkpt lat="43.14666" lon="2.13731">
        <ele>263.06</ele>
        <time>2014-06-08T11:27:34Z</time>
      </trkpt>
      <trkpt lat="43.14672" lon="2.13764">
        <ele>262.58</ele>
        <time>2014-06-08T11:27:40Z</time>
      </trkpt>
      <trkpt lat="43.14674" lon="2.1377">
        <ele>262.58</ele>
        <time>2014-06-08T11:27:41Z</time>
      </trkpt>
      <trkpt lat="43.14676" lon="2.13775">
        <ele>262.1</ele>
        <time>2014-06-08T11:27:42Z</time>
      </trkpt>
      <trkpt lat="43.14692" lon="2.13825">
        <ele>260.17</ele>
        <time>2014-06-08T11:27:52Z</time>
      </trkpt>
      <trkpt lat="43.14692" lon="2.13831">
        <ele>260.65</ele>
        <time>2014-06-08T11:27:53Z</time>
      </trkpt>
      <trkpt lat="43.14686" lon="2.13859">
        <ele>260.65</ele>
        <time>2014-06-08T11:27:58Z</time>
      </trkpt>
      <trkpt lat="43.14685" lon="2.13865">
        <ele>260.65</ele>
        <time>2014-06-08T11:27:59Z</time>
      </trkpt>
      <trkpt lat="43.14675" lon="2.13887">
        <ele>260.65</ele>
        <time>2014-06-08T11:28:03Z</time>
      </trkpt>
      <trkpt lat="43.14663" lon="2.13921">
        <ele>261.14</ele>
        <time>2014-06-08T11:28:09Z</time>
      </trkpt>
      <trkpt lat="43.14647" lon="2.1396">
        <ele>261.62</ele>
        <time>2014-06-08T11:28:16Z</time>
      </trkpt>
      <trkpt lat="43.1464" lon="2.13983">
        <ele>262.1</ele>
        <time>2014-06-08T11:28:20Z</time>
      </trkpt>
      <trkpt lat="43.14636" lon="2.14002">
        <ele>262.1</ele>
        <time>2014-06-08T11:28:23Z</time>
      </trkpt>
      <trkpt lat="43.14636" lon="2.14008">
        <ele>262.1</ele>
        <time>2014-06-08T11:28:24Z</time>
      </trkpt>
      <trkpt lat="43.14636" lon="2.1402">
        <ele>262.1</ele>
        <time>2014-06-08T11:28:26Z</time>
      </trkpt>
      <trkpt lat="43.14637" lon="2.14027">
        <ele>262.1</ele>
        <time>2014-06-08T11:28:27Z</time>
      </trkpt>
      <trkpt lat="43.14638" lon="2.14033">
        <ele>262.1</ele>
        <time>2014-06-08T11:28:28Z</time>
      </trkpt>
      <trkpt lat="43.14642" lon="2.1405">
        <ele>262.1</ele>
        <time>2014-06-08T11:28:31Z</time>
      </trkpt>
      <trkpt lat="43.14653" lon="2.14084">
        <ele>262.1</ele>
        <time>2014-06-08T11:28:37Z</time>
      </trkpt>
      <trkpt lat="43.14675" lon="2.14176">
        <ele>263.54</ele>
        <time>2014-06-08T11:28:52Z</time>
      </trkpt>
      <trkpt lat="43.14682" lon="2.14259">
        <ele>265.46</ele>
        <time>2014-06-08T11:29:05Z</time>
      </trkpt>
      <trkpt lat="43.14682" lon="2.14324">
        <ele>268.35</ele>
        <time>2014-06-08T11:29:16Z</time>
      </trkpt>
      <trkpt lat="43.14682" lon="2.14418">
        <ele>269.79</ele>
        <time>2014-06-08T11:29:30Z</time>
      </trkpt>
      <trkpt lat="43.14683" lon="2.14442">
        <ele>270.75</ele>
        <time>2014-06-08T11:29:34Z</time>
      </trkpt>
      <trkpt lat="43.14685" lon="2.14525">
        <ele>274.59</ele>
        <time>2014-06-08T11:29:48Z</time>
      </trkpt>
      <trkpt lat="43.14692" lon="2.14595">
        <ele>277.48</ele>
        <time>2014-06-08T11:30:00Z</time>
      </trkpt>
      <trkpt lat="43.14694" lon="2.14601">
        <ele>277.48</ele>
        <time>2014-06-08T11:30:01Z</time>
      </trkpt>
      <trkpt lat="43.14696" lon="2.14606">
        <ele>277.96</ele>
        <time>2014-06-08T11:30:02Z</time>
      </trkpt>
      <trkpt lat="43.14698" lon="2.1461">
        <ele>277.96</ele>
        <time>2014-06-08T11:30:03Z</time>
      </trkpt>
      <trkpt lat="43.14702" lon="2.14613">
        <ele>277.96</ele>
        <time>2014-06-08T11:30:04Z</time>
      </trkpt>
      <trkpt lat="43.14705" lon="2.14616">
        <ele>277.48</ele>
        <time>2014-06-08T11:30:05Z</time>
      </trkpt>
      <trkpt lat="43.14709" lon="2.14618">
        <ele>277.48</ele>
        <time>2014-06-08T11:30:06Z</time>
      </trkpt>
      <trkpt lat="43.14714" lon="2.14619">
        <ele>277</ele>
        <time>2014-06-08T11:30:07Z</time>
      </trkpt>
      <trkpt lat="43.14718" lon="2.1462">
        <ele>276.52</ele>
        <time>2014-06-08T11:30:08Z</time>
      </trkpt>
      <trkpt lat="43.14722" lon="2.14619">
        <ele>276.52</ele>
        <time>2014-06-08T11:30:09Z</time>
      </trkpt>
      <trkpt lat="43.14727" lon="2.14619">
        <ele>276.52</ele>
        <time>2014-06-08T11:30:10Z</time>
      </trkpt>
      <trkpt lat="43.14752" lon="2.14617">
        <ele>277.48</ele>
        <time>2014-06-08T11:30:16Z</time>
      </trkpt>
      <trkpt lat="43.14756" lon="2.14618">
        <ele>277.48</ele>
        <time>2014-06-08T11:30:17Z</time>
      </trkpt>
      <trkpt lat="43.1476" lon="2.14619">
        <ele>277.48</ele>
        <time>2014-06-08T11:30:18Z</time>
      </trkpt>
      <trkpt lat="43.14764" lon="2.14621">
        <ele>277.48</ele>
        <time>2014-06-08T11:30:19Z</time>
      </trkpt>
      <trkpt lat="43.14768" lon="2.14624">
        <ele>277.48</ele>
        <time>2014-06-08T11:30:20Z</time>
      </trkpt>
      <trkpt lat="43.14771" lon="2.14626">
        <ele>277.48</ele>
        <time>2014-06-08T11:30:21Z</time>
      </trkpt>
      <trkpt lat="43.14775" lon="2.14628">
        <ele>277.48</ele>
        <time>2014-06-08T11:30:22Z</time>
      </trkpt>
      <trkpt lat="43.14827" lon="2.14636">
        <ele>279.88</ele>
        <time>2014-06-08T11:30:35Z</time>
      </trkpt>
      <trkpt lat="43.14856" lon="2.1463">
        <ele>279.88</ele>
        <time>2014-06-08T11:30:42Z</time>
      </trkpt>
      <trkpt lat="43.14861" lon="2.14631">
        <ele>279.88</ele>
        <time>2014-06-08T11:30:43Z</time>
      </trkpt>
      <trkpt lat="43.14865" lon="2.14632">
        <ele>279.4</ele>
        <time>2014-06-08T11:30:44Z</time>
      </trkpt>
      <trkpt lat="43.14869" lon="2.14635">
        <ele>279.4</ele>
        <time>2014-06-08T11:30:45Z</time>
      </trkpt>
      <trkpt lat="43.14873" lon="2.14638">
        <ele>279.88</ele>
        <time>2014-06-08T11:30:46Z</time>
      </trkpt>
      <trkpt lat="43.14876" lon="2.14642">
        <ele>279.88</ele>
        <time>2014-06-08T11:30:47Z</time>
      </trkpt>
      <trkpt lat="43.14878" lon="2.14646">
        <ele>279.88</ele>
        <time>2014-06-08T11:30:48Z</time>
      </trkpt>
      <trkpt lat="43.14891" lon="2.14692">
        <ele>283.73</ele>
        <time>2014-06-08T11:30:58Z</time>
      </trkpt>
      <trkpt lat="43.14904" lon="2.14753">
        <ele>286.61</ele>
        <time>2014-06-08T11:31:10Z</time>
      </trkpt>
      <trkpt lat="43.14909" lon="2.14763">
        <ele>287.09</ele>
        <time>2014-06-08T11:31:12Z</time>
      </trkpt>
      <trkpt lat="43.14911" lon="2.14768">
        <ele>287.09</ele>
        <time>2014-06-08T11:31:13Z</time>
      </trkpt>
      <trkpt lat="43.14914" lon="2.14772">
        <ele>287.09</ele>
        <time>2014-06-08T11:31:14Z</time>
      </trkpt>
      <trkpt lat="43.14947" lon="2.14812">
        <ele>288.05</ele>
        <time>2014-06-08T11:31:25Z</time>
      </trkpt>
      <trkpt lat="43.14969" lon="2.14874">
        <ele>289.01</ele>
        <time>2014-06-08T11:31:37Z</time>
      </trkpt>
      <trkpt lat="43.15005" lon="2.14935">
        <ele>290.46</ele>
        <time>2014-06-08T11:31:50Z</time>
      </trkpt>
      <trkpt lat="43.1507" lon="2.15005">
        <ele>290.46</ele>
        <time>2014-06-08T11:32:07Z</time>
      </trkpt>
      <trkpt lat="43.15133" lon="2.15075">
        <ele>291.42</ele>
        <time>2014-06-08T11:32:24Z</time>
      </trkpt>
      <trkpt lat="43.15142" lon="2.1509">
        <ele>291.42</ele>
        <time>2014-06-08T11:32:27Z</time>
      </trkpt>
      <trkpt lat="43.15149" lon="2.15108">
        <ele>291.42</ele>
        <time>2014-06-08T11:32:30Z</time>
      </trkpt>
      <trkpt lat="43.15152" lon="2.1512">
        <ele>291.42</ele>
        <time>2014-06-08T11:32:32Z</time>
      </trkpt>
      <trkpt lat="43.15153" lon="2.15126">
        <ele>291.9</ele>
        <time>2014-06-08T11:32:33Z</time>
      </trkpt>
      <trkpt lat="43.15154" lon="2.15133">
        <ele>291.9</ele>
        <time>2014-06-08T11:32:34Z</time>
      </trkpt>
      <trkpt lat="43.15154" lon="2.15139">
        <ele>292.38</ele>
        <time>2014-06-08T11:32:35Z</time>
      </trkpt>
      <trkpt lat="43.15154" lon="2.15145">
        <ele>292.38</ele>
        <time>2014-06-08T11:32:36Z</time>
      </trkpt>
      <trkpt lat="43.15153" lon="2.15151">
        <ele>292.38</ele>
        <time>2014-06-08T11:32:37Z</time>
      </trkpt>
      <trkpt lat="43.15132" lon="2.15244">
        <ele>290.94</ele>
        <time>2014-06-08T11:32:53Z</time>
      </trkpt>
      <trkpt lat="43.15132" lon="2.1525">
        <ele>290.94</ele>
        <time>2014-06-08T11:32:54Z</time>
      </trkpt>
      <trkpt lat="43.15131" lon="2.15268">
        <ele>291.42</ele>
        <time>2014-06-08T11:32:57Z</time>
      </trkpt>
      <trkpt lat="43.15132" lon="2.15274">
        <ele>291.9</ele>
        <time>2014-06-08T11:32:58Z</time>
      </trkpt>
      <trkpt lat="43.15133" lon="2.1528">
        <ele>291.9</ele>
        <time>2014-06-08T11:32:59Z</time>
      </trkpt>
      <trkpt lat="43.15139" lon="2.15298">
        <ele>292.86</ele>
        <time>2014-06-08T11:33:02Z</time>
      </trkpt>
      <trkpt lat="43.15175" lon="2.15367">
        <ele>295.74</ele>
        <time>2014-06-08T11:33:15Z</time>
      </trkpt>
      <trkpt lat="43.15178" lon="2.15371">
        <ele>295.74</ele>
        <time>2014-06-08T11:33:16Z</time>
      </trkpt>
      <trkpt lat="43.15182" lon="2.15375">
        <ele>295.74</ele>
        <time>2014-06-08T11:33:17Z</time>
      </trkpt>
      <trkpt lat="43.15186" lon="2.15379">
        <ele>296.22</ele>
        <time>2014-06-08T11:33:18Z</time>
      </trkpt>
      <trkpt lat="43.15189" lon="2.15382">
        <ele>296.22</ele>
        <time>2014-06-08T11:33:19Z</time>
      </trkpt>
      <trkpt lat="43.15194" lon="2.15385">
        <ele>296.22</ele>
        <time>2014-06-08T11:33:20Z</time>
      </trkpt>
      <trkpt lat="43.15202" lon="2.15389">
        <ele>296.7</ele>
        <time>2014-06-08T11:33:22Z</time>
      </trkpt>
      <trkpt lat="43.15207" lon="2.1539">
        <ele>296.7</ele>
        <time>2014-06-08T11:33:23Z</time>
      </trkpt>
      <trkpt lat="43.15238" lon="2.15394">
        <ele>297.67</ele>
        <time>2014-06-08T11:33:30Z</time>
      </trkpt>
      <trkpt lat="43.15243" lon="2.15396">
        <ele>298.15</ele>
        <time>2014-06-08T11:33:31Z</time>
      </trkpt>
      <trkpt lat="43.15247" lon="2.15399">
        <ele>298.63</ele>
        <time>2014-06-08T11:33:32Z</time>
      </trkpt>
      <trkpt lat="43.1525" lon="2.15402">
        <ele>299.11</ele>
        <time>2014-06-08T11:33:33Z</time>
      </trkpt>
      <trkpt lat="43.15254" lon="2.15406">
        <ele>299.59</ele>
        <time>2014-06-08T11:33:34Z</time>
      </trkpt>
      <trkpt lat="43.15257" lon="2.15411">
        <ele>300.07</ele>
        <time>2014-06-08T11:33:35Z</time>
      </trkpt>
      <trkpt lat="43.1526" lon="2.15416">
        <ele>300.07</ele>
        <time>2014-06-08T11:33:36Z</time>
      </trkpt>
      <trkpt lat="43.15262" lon="2.15421">
        <ele>301.03</ele>
        <time>2014-06-08T11:33:37Z</time>
      </trkpt>
      <trkpt lat="43.15264" lon="2.15427">
        <ele>301.03</ele>
        <time>2014-06-08T11:33:38Z</time>
      </trkpt>
      <trkpt lat="43.15266" lon="2.15432">
        <ele>301.99</ele>
        <time>2014-06-08T11:33:39Z</time>
      </trkpt>
      <trkpt lat="43.15269" lon="2.15493">
        <ele>306.8</ele>
        <time>2014-06-08T11:33:50Z</time>
      </trkpt>
      <trkpt lat="43.15267" lon="2.15499">
        <ele>307.76</ele>
        <time>2014-06-08T11:33:51Z</time>
      </trkpt>
      <trkpt lat="43.15264" lon="2.15506">
        <ele>307.76</ele>
        <time>2014-06-08T11:33:52Z</time>
      </trkpt>
      <trkpt lat="43.15261" lon="2.15512">
        <ele>308.24</ele>
        <time>2014-06-08T11:33:53Z</time>
      </trkpt>
      <trkpt lat="43.15257" lon="2.15516">
        <ele>308.24</ele>
        <time>2014-06-08T11:33:54Z</time>
      </trkpt>
      <trkpt lat="43.15252" lon="2.15519">
        <ele>308.72</ele>
        <time>2014-06-08T11:33:55Z</time>
      </trkpt>
      <trkpt lat="43.15247" lon="2.15521">
        <ele>308.72</ele>
        <time>2014-06-08T11:33:56Z</time>
      </trkpt>
      <trkpt lat="43.15243" lon="2.15524">
        <ele>308.72</ele>
        <time>2014-06-08T11:33:57Z</time>
      </trkpt>
      <trkpt lat="43.15238" lon="2.15527">
        <ele>308.72</ele>
        <time>2014-06-08T11:33:58Z</time>
      </trkpt>
      <trkpt lat="43.15233" lon="2.15529">
        <ele>308.24</ele>
        <time>2014-06-08T11:33:59Z</time>
      </trkpt>
      <trkpt lat="43.15224" lon="2.15534">
        <ele>307.28</ele>
        <time>2014-06-08T11:34:01Z</time>
      </trkpt>
      <trkpt lat="43.1522" lon="2.15538">
        <ele>307.28</ele>
        <time>2014-06-08T11:34:02Z</time>
      </trkpt>
      <trkpt lat="43.15216" lon="2.15542">
        <ele>307.28</ele>
        <time>2014-06-08T11:34:03Z</time>
      </trkpt>
      <trkpt lat="43.15212" lon="2.15546">
        <ele>307.28</ele>
        <time>2014-06-08T11:34:04Z</time>
      </trkpt>
      <trkpt lat="43.15208" lon="2.15551">
        <ele>307.28</ele>
        <time>2014-06-08T11:34:05Z</time>
      </trkpt>
      <trkpt lat="43.15147" lon="2.15635">
        <ele>306.32</ele>
        <time>2014-06-08T11:34:22Z</time>
      </trkpt>
      <trkpt lat="43.15131" lon="2.15661">
        <ele>305.84</ele>
        <time>2014-06-08T11:34:27Z</time>
      </trkpt>
      <trkpt lat="43.15129" lon="2.15667">
        <ele>305.84</ele>
        <time>2014-06-08T11:34:28Z</time>
      </trkpt>
      <trkpt lat="43.15127" lon="2.15674">
        <ele>305.84</ele>
        <time>2014-06-08T11:34:29Z</time>
      </trkpt>
      <trkpt lat="43.15124" lon="2.1568">
        <ele>305.84</ele>
        <time>2014-06-08T11:34:30Z</time>
      </trkpt>
      <trkpt lat="43.15122" lon="2.15686">
        <ele>305.84</ele>
        <time>2014-06-08T11:34:31Z</time>
      </trkpt>
      <trkpt lat="43.15114" lon="2.15727">
        <ele>305.84</ele>
        <time>2014-06-08T11:34:37Z</time>
      </trkpt>
      <trkpt lat="43.15115" lon="2.1576">
        <ele>306.32</ele>
        <time>2014-06-08T11:34:42Z</time>
      </trkpt>
      <trkpt lat="43.15122" lon="2.1582">
        <ele>308.24</ele>
        <time>2014-06-08T11:34:51Z</time>
      </trkpt>
      <trkpt lat="43.15114" lon="2.15865">
        <ele>308.72</ele>
        <time>2014-06-08T11:34:58Z</time>
      </trkpt>
      <trkpt lat="43.15091" lon="2.15952">
        <ele>309.2</ele>
        <time>2014-06-08T11:35:11Z</time>
      </trkpt>
      <trkpt lat="43.15083" lon="2.16011">
        <ele>310.16</ele>
        <time>2014-06-08T11:35:20Z</time>
      </trkpt>
      <trkpt lat="43.15095" lon="2.16127">
        <ele>310.16</ele>
        <time>2014-06-08T11:35:38Z</time>
      </trkpt>
      <trkpt lat="43.15098" lon="2.16147">
        <ele>310.16</ele>
        <time>2014-06-08T11:35:41Z</time>
      </trkpt>
      <trkpt lat="43.1511" lon="2.16189">
        <ele>310.64</ele>
        <time>2014-06-08T11:35:48Z</time>
      </trkpt>
      <trkpt lat="43.1516" lon="2.16272">
        <ele>308.72</ele>
        <time>2014-06-08T11:36:04Z</time>
      </trkpt>
      <trkpt lat="43.15199" lon="2.16309">
        <ele>309.68</ele>
        <time>2014-06-08T11:36:14Z</time>
      </trkpt>
      <trkpt lat="43.15212" lon="2.16316">
        <ele>310.16</ele>
        <time>2014-06-08T11:36:17Z</time>
      </trkpt>
      <trkpt lat="43.15237" lon="2.16317">
        <ele>310.16</ele>
        <time>2014-06-08T11:36:22Z</time>
      </trkpt>
      <trkpt lat="43.15242" lon="2.16316">
        <ele>310.16</ele>
        <time>2014-06-08T11:36:23Z</time>
      </trkpt>
      <trkpt lat="43.1528" lon="2.163">
        <ele>312.09</ele>
        <time>2014-06-08T11:36:31Z</time>
      </trkpt>
      <trkpt lat="43.1529" lon="2.16298">
        <ele>312.09</ele>
        <time>2014-06-08T11:36:33Z</time>
      </trkpt>
      <trkpt lat="43.15295" lon="2.16298">
        <ele>312.09</ele>
        <time>2014-06-08T11:36:34Z</time>
      </trkpt>
      <trkpt lat="43.153" lon="2.16299">
        <ele>312.09</ele>
        <time>2014-06-08T11:36:35Z</time>
      </trkpt>
      <trkpt lat="43.1531" lon="2.16303">
        <ele>312.57</ele>
        <time>2014-06-08T11:36:37Z</time>
      </trkpt>
      <trkpt lat="43.15314" lon="2.16306">
        <ele>312.57</ele>
        <time>2014-06-08T11:36:38Z</time>
      </trkpt>
      <trkpt lat="43.15319" lon="2.1631">
        <ele>312.57</ele>
        <time>2014-06-08T11:36:39Z</time>
      </trkpt>
      <trkpt lat="43.15323" lon="2.16314">
        <ele>312.57</ele>
        <time>2014-06-08T11:36:40Z</time>
      </trkpt>
      <trkpt lat="43.15327" lon="2.16319">
        <ele>312.57</ele>
        <time>2014-06-08T11:36:41Z</time>
      </trkpt>
      <trkpt lat="43.1533" lon="2.16325">
        <ele>312.57</ele>
        <time>2014-06-08T11:36:42Z</time>
      </trkpt>
      <trkpt lat="43.15333" lon="2.1633">
        <ele>312.57</ele>
        <time>2014-06-08T11:36:43Z</time>
      </trkpt>
      <trkpt lat="43.15335" lon="2.16337">
        <ele>312.57</ele>
        <time>2014-06-08T11:36:44Z</time>
      </trkpt>
      <trkpt lat="43.15336" lon="2.16343">
        <ele>313.05</ele>
        <time>2014-06-08T11:36:45Z</time>
      </trkpt>
      <trkpt lat="43.15337" lon="2.1635">
        <ele>313.05</ele>
        <time>2014-06-08T11:36:46Z</time>
      </trkpt>
      <trkpt lat="43.15338" lon="2.16357">
        <ele>313.05</ele>
        <time>2014-06-08T11:36:47Z</time>
      </trkpt>
      <trkpt lat="43.15338" lon="2.16364">
        <ele>313.05</ele>
        <time>2014-06-08T11:36:48Z</time>
      </trkpt>
      <trkpt lat="43.15338" lon="2.16377">
        <ele>313.53</ele>
        <time>2014-06-08T11:36:50Z</time>
      </trkpt>
      <trkpt lat="43.15337" lon="2.16384">
        <ele>313.53</ele>
        <time>2014-06-08T11:36:51Z</time>
      </trkpt>
      <trkpt lat="43.1533" lon="2.16417">
        <ele>314.49</ele>
        <time>2014-06-08T11:36:56Z</time>
      </trkpt>
      <trkpt lat="43.15329" lon="2.16424">
        <ele>314.49</ele>
        <time>2014-06-08T11:36:57Z</time>
      </trkpt>
      <trkpt lat="43.15329" lon="2.16431">
        <ele>314.97</ele>
        <time>2014-06-08T11:36:58Z</time>
      </trkpt>
      <trkpt lat="43.1533" lon="2.16437">
        <ele>314.97</ele>
        <time>2014-06-08T11:36:59Z</time>
      </trkpt>
      <trkpt lat="43.15332" lon="2.16444">
        <ele>314.97</ele>
        <time>2014-06-08T11:37:00Z</time>
      </trkpt>
      <trkpt lat="43.15334" lon="2.16451">
        <ele>315.45</ele>
        <time>2014-06-08T11:37:01Z</time>
      </trkpt>
      <trkpt lat="43.15336" lon="2.16457">
        <ele>315.45</ele>
        <time>2014-06-08T11:37:02Z</time>
      </trkpt>
      <trkpt lat="43.15339" lon="2.16463">
        <ele>315.45</ele>
        <time>2014-06-08T11:37:03Z</time>
      </trkpt>
      <trkpt lat="43.15342" lon="2.16469">
        <ele>315.45</ele>
        <time>2014-06-08T11:37:04Z</time>
      </trkpt>
      <trkpt lat="43.15346" lon="2.16475">
        <ele>315.45</ele>
        <time>2014-06-08T11:37:05Z</time>
      </trkpt>
      <trkpt lat="43.15386" lon="2.16565">
        <ele>317.37</ele>
        <time>2014-06-08T11:37:20Z</time>
      </trkpt>
      <trkpt lat="43.15391" lon="2.16584">
        <ele>317.85</ele>
        <time>2014-06-08T11:37:23Z</time>
      </trkpt>
      <trkpt lat="43.15395" lon="2.16603">
        <ele>319.78</ele>
        <time>2014-06-08T11:37:26Z</time>
      </trkpt>
      <trkpt lat="43.15396" lon="2.1661">
        <ele>320.26</ele>
        <time>2014-06-08T11:37:27Z</time>
      </trkpt>
      <trkpt lat="43.15396" lon="2.16617">
        <ele>320.74</ele>
        <time>2014-06-08T11:37:28Z</time>
      </trkpt>
      <trkpt lat="43.15396" lon="2.16624">
        <ele>321.22</ele>
        <time>2014-06-08T11:37:29Z</time>
      </trkpt>
      <trkpt lat="43.15396" lon="2.16631">
        <ele>321.7</ele>
        <time>2014-06-08T11:37:30Z</time>
      </trkpt>
      <trkpt lat="43.15395" lon="2.16638">
        <ele>322.18</ele>
        <time>2014-06-08T11:37:31Z</time>
      </trkpt>
      <trkpt lat="43.15394" lon="2.16644">
        <ele>322.66</ele>
        <time>2014-06-08T11:37:32Z</time>
      </trkpt>
      <trkpt lat="43.15392" lon="2.16651">
        <ele>323.14</ele>
        <time>2014-06-08T11:37:33Z</time>
      </trkpt>
      <trkpt lat="43.1539" lon="2.16657">
        <ele>323.62</ele>
        <time>2014-06-08T11:37:34Z</time>
      </trkpt>
      <trkpt lat="43.15387" lon="2.16662">
        <ele>324.1</ele>
        <time>2014-06-08T11:37:35Z</time>
      </trkpt>
      <trkpt lat="43.15385" lon="2.16667">
        <ele>324.1</ele>
        <time>2014-06-08T11:37:36Z</time>
      </trkpt>
      <trkpt lat="43.15381" lon="2.16672">
        <ele>324.1</ele>
        <time>2014-06-08T11:37:37Z</time>
      </trkpt>
      <trkpt lat="43.15377" lon="2.16677">
        <ele>324.1</ele>
        <time>2014-06-08T11:37:38Z</time>
      </trkpt>
      <trkpt lat="43.15373" lon="2.16681">
        <ele>324.1</ele>
        <time>2014-06-08T11:37:39Z</time>
      </trkpt>
      <trkpt lat="43.15369" lon="2.16685">
        <ele>324.1</ele>
        <time>2014-06-08T11:37:40Z</time>
      </trkpt>
      <trkpt lat="43.15364" lon="2.16688">
        <ele>323.62</ele>
        <time>2014-06-08T11:37:41Z</time>
      </trkpt>
      <trkpt lat="43.1536" lon="2.1669">
        <ele>323.62</ele>
        <time>2014-06-08T11:37:42Z</time>
      </trkpt>
      <trkpt lat="43.15336" lon="2.16703">
        <ele>321.7</ele>
        <time>2014-06-08T11:37:47Z</time>
      </trkpt>
      <trkpt lat="43.15332" lon="2.16706">
        <ele>321.22</ele>
        <time>2014-06-08T11:37:48Z</time>
      </trkpt>
      <trkpt lat="43.15327" lon="2.1671">
        <ele>320.74</ele>
        <time>2014-06-08T11:37:49Z</time>
      </trkpt>
      <trkpt lat="43.15324" lon="2.16714">
        <ele>320.26</ele>
        <time>2014-06-08T11:37:50Z</time>
      </trkpt>
      <trkpt lat="43.1532" lon="2.1672">
        <ele>320.74</ele>
        <time>2014-06-08T11:37:51Z</time>
      </trkpt>
      <trkpt lat="43.15317" lon="2.16725">
        <ele>320.74</ele>
        <time>2014-06-08T11:37:52Z</time>
      </trkpt>
      <trkpt lat="43.15314" lon="2.16732">
        <ele>320.74</ele>
        <time>2014-06-08T11:37:53Z</time>
      </trkpt>
      <trkpt lat="43.15311" lon="2.16738">
        <ele>320.74</ele>
        <time>2014-06-08T11:37:54Z</time>
      </trkpt>
      <trkpt lat="43.15307" lon="2.16751">
        <ele>321.7</ele>
        <time>2014-06-08T11:37:56Z</time>
      </trkpt>
      <trkpt lat="43.15294" lon="2.16806">
        <ele>322.66</ele>
        <time>2014-06-08T11:38:05Z</time>
      </trkpt>
      <trkpt lat="43.15288" lon="2.16846">
        <ele>323.14</ele>
        <time>2014-06-08T11:38:11Z</time>
      </trkpt>
      <trkpt lat="43.15287" lon="2.16853">
        <ele>323.14</ele>
        <time>2014-06-08T11:38:12Z</time>
      </trkpt>
      <trkpt lat="43.15268" lon="2.1699">
        <ele>323.62</ele>
        <time>2014-06-08T11:38:33Z</time>
      </trkpt>
      <trkpt lat="43.15266" lon="2.17003">
        <ele>323.62</ele>
        <time>2014-06-08T11:38:35Z</time>
      </trkpt>
      <trkpt lat="43.15265" lon="2.17009">
        <ele>323.62</ele>
        <time>2014-06-08T11:38:36Z</time>
      </trkpt>
      <trkpt lat="43.15255" lon="2.17077">
        <ele>324.58</ele>
        <time>2014-06-08T11:38:47Z</time>
      </trkpt>
      <trkpt lat="43.15253" lon="2.17101">
        <ele>325.06</ele>
        <time>2014-06-08T11:38:51Z</time>
      </trkpt>
      <trkpt lat="43.15253" lon="2.17107">
        <ele>325.54</ele>
        <time>2014-06-08T11:38:52Z</time>
      </trkpt>
      <trkpt lat="43.15254" lon="2.17132">
        <ele>325.54</ele>
        <time>2014-06-08T11:38:56Z</time>
      </trkpt>
      <trkpt lat="43.15255" lon="2.17138">
        <ele>326.02</ele>
        <time>2014-06-08T11:38:57Z</time>
      </trkpt>
      <trkpt lat="43.15258" lon="2.1715">
        <ele>326.02</ele>
        <time>2014-06-08T11:38:59Z</time>
      </trkpt>
      <trkpt lat="43.15268" lon="2.17185">
        <ele>327.47</ele>
        <time>2014-06-08T11:39:05Z</time>
      </trkpt>
      <trkpt lat="43.1527" lon="2.17191">
        <ele>327.47</ele>
        <time>2014-06-08T11:39:06Z</time>
      </trkpt>
      <trkpt lat="43.15272" lon="2.17197">
        <ele>327.95</ele>
        <time>2014-06-08T11:39:07Z</time>
      </trkpt>
      <trkpt lat="43.15273" lon="2.17203">
        <ele>327.95</ele>
        <time>2014-06-08T11:39:08Z</time>
      </trkpt>
      <trkpt lat="43.15275" lon="2.17208">
        <ele>327.95</ele>
        <time>2014-06-08T11:39:09Z</time>
      </trkpt>
      <trkpt lat="43.15288" lon="2.17265">
        <ele>329.87</ele>
        <time>2014-06-08T11:39:19Z</time>
      </trkpt>
      <trkpt lat="43.15289" lon="2.17271">
        <ele>329.87</ele>
        <time>2014-06-08T11:39:20Z</time>
      </trkpt>
      <trkpt lat="43.15288" lon="2.17276">
        <ele>330.35</ele>
        <time>2014-06-08T11:39:21Z</time>
      </trkpt>
      <trkpt lat="43.15288" lon="2.17281">
        <ele>330.83</ele>
        <time>2014-06-08T11:39:22Z</time>
      </trkpt>
      <trkpt lat="43.15287" lon="2.17286">
        <ele>331.31</ele>
        <time>2014-06-08T11:39:23Z</time>
      </trkpt>
      <trkpt lat="43.15269" lon="2.17348">
        <ele>332.75</ele>
        <time>2014-06-08T11:39:35Z</time>
      </trkpt>
      <trkpt lat="43.15242" lon="2.17402">
        <ele>331.31</ele>
        <time>2014-06-08T11:39:47Z</time>
      </trkpt>
      <trkpt lat="43.15231" lon="2.17419">
        <ele>332.27</ele>
        <time>2014-06-08T11:39:51Z</time>
      </trkpt>
      <trkpt lat="43.15228" lon="2.17423">
        <ele>332.75</ele>
        <time>2014-06-08T11:39:52Z</time>
      </trkpt>
      <trkpt lat="43.15226" lon="2.17429">
        <ele>333.23</ele>
        <time>2014-06-08T11:39:53Z</time>
      </trkpt>
      <trkpt lat="43.15224" lon="2.17434">
        <ele>333.23</ele>
        <time>2014-06-08T11:39:54Z</time>
      </trkpt>
      <trkpt lat="43.15223" lon="2.1744">
        <ele>333.71</ele>
        <time>2014-06-08T11:39:55Z</time>
      </trkpt>
      <trkpt lat="43.15222" lon="2.17446">
        <ele>334.2</ele>
        <time>2014-06-08T11:39:56Z</time>
      </trkpt>
      <trkpt lat="43.15222" lon="2.17452">
        <ele>334.68</ele>
        <time>2014-06-08T11:39:57Z</time>
      </trkpt>
      <trkpt lat="43.15223" lon="2.17458">
        <ele>335.64</ele>
        <time>2014-06-08T11:39:58Z</time>
      </trkpt>
      <trkpt lat="43.15224" lon="2.17464">
        <ele>336.12</ele>
        <time>2014-06-08T11:39:59Z</time>
      </trkpt>
      <trkpt lat="43.15226" lon="2.17469">
        <ele>336.6</ele>
        <time>2014-06-08T11:40:00Z</time>
      </trkpt>
      <trkpt lat="43.15237" lon="2.17508">
        <ele>338.04</ele>
        <time>2014-06-08T11:40:07Z</time>
      </trkpt>
      <trkpt lat="43.15251" lon="2.17555">
        <ele>339.96</ele>
        <time>2014-06-08T11:40:16Z</time>
      </trkpt>
      <trkpt lat="43.15254" lon="2.17559">
        <ele>340.44</ele>
        <time>2014-06-08T11:40:17Z</time>
      </trkpt>
      <trkpt lat="43.15257" lon="2.17562">
        <ele>340.44</ele>
        <time>2014-06-08T11:40:18Z</time>
      </trkpt>
      <trkpt lat="43.15296" lon="2.17593">
        <ele>340.92</ele>
        <time>2014-06-08T11:40:29Z</time>
      </trkpt>
      <trkpt lat="43.15299" lon="2.17597">
        <ele>341.41</ele>
        <time>2014-06-08T11:40:30Z</time>
      </trkpt>
      <trkpt lat="43.15304" lon="2.17606">
        <ele>341.41</ele>
        <time>2014-06-08T11:40:32Z</time>
      </trkpt>
      <trkpt lat="43.15306" lon="2.1761">
        <ele>341.89</ele>
        <time>2014-06-08T11:40:33Z</time>
      </trkpt>
      <trkpt lat="43.15315" lon="2.1763">
        <ele>342.37</ele>
        <time>2014-06-08T11:40:37Z</time>
      </trkpt>
      <trkpt lat="43.15323" lon="2.17667">
        <ele>343.33</ele>
        <time>2014-06-08T11:40:44Z</time>
      </trkpt>
      <trkpt lat="43.15323" lon="2.17673">
        <ele>343.33</ele>
        <time>2014-06-08T11:40:45Z</time>
      </trkpt>
      <trkpt lat="43.15324" lon="2.17684">
        <ele>343.33</ele>
        <time>2014-06-08T11:40:47Z</time>
      </trkpt>
      <trkpt lat="43.15322" lon="2.17695">
        <ele>343.33</ele>
        <time>2014-06-08T11:40:49Z</time>
      </trkpt>
      <trkpt lat="43.15321" lon="2.17701">
        <ele>343.33</ele>
        <time>2014-06-08T11:40:50Z</time>
      </trkpt>
      <trkpt lat="43.15318" lon="2.17711">
        <ele>342.85</ele>
        <time>2014-06-08T11:40:52Z</time>
      </trkpt>
      <trkpt lat="43.15316" lon="2.17716">
        <ele>342.85</ele>
        <time>2014-06-08T11:40:53Z</time>
      </trkpt>
      <trkpt lat="43.15313" lon="2.17721">
        <ele>343.33</ele>
        <time>2014-06-08T11:40:54Z</time>
      </trkpt>
      <trkpt lat="43.1531" lon="2.17725">
        <ele>343.33</ele>
        <time>2014-06-08T11:40:55Z</time>
      </trkpt>
      <trkpt lat="43.15308" lon="2.17729">
        <ele>343.33</ele>
        <time>2014-06-08T11:40:56Z</time>
      </trkpt>
      <trkpt lat="43.15301" lon="2.17736">
        <ele>343.81</ele>
        <time>2014-06-08T11:40:58Z</time>
      </trkpt>
      <trkpt lat="43.15244" lon="2.1778">
        <ele>347.17</ele>
        <time>2014-06-08T11:41:13Z</time>
      </trkpt>
      <trkpt lat="43.15241" lon="2.17783">
        <ele>347.17</ele>
        <time>2014-06-08T11:41:14Z</time>
      </trkpt>
      <trkpt lat="43.15237" lon="2.17788">
        <ele>347.65</ele>
        <time>2014-06-08T11:41:15Z</time>
      </trkpt>
      <trkpt lat="43.15235" lon="2.17792">
        <ele>347.65</ele>
        <time>2014-06-08T11:41:16Z</time>
      </trkpt>
      <trkpt lat="43.15232" lon="2.17797">
        <ele>347.65</ele>
        <time>2014-06-08T11:41:17Z</time>
      </trkpt>
      <trkpt lat="43.1523" lon="2.17802">
        <ele>347.65</ele>
        <time>2014-06-08T11:41:18Z</time>
      </trkpt>
      <trkpt lat="43.15229" lon="2.17807">
        <ele>347.17</ele>
        <time>2014-06-08T11:41:19Z</time>
      </trkpt>
      <trkpt lat="43.15229" lon="2.17812">
        <ele>347.17</ele>
        <time>2014-06-08T11:41:20Z</time>
      </trkpt>
      <trkpt lat="43.15228" lon="2.17818">
        <ele>347.17</ele>
        <time>2014-06-08T11:41:21Z</time>
      </trkpt>
      <trkpt lat="43.15228" lon="2.17824">
        <ele>347.17</ele>
        <time>2014-06-08T11:41:22Z</time>
      </trkpt>
      <trkpt lat="43.15229" lon="2.17829">
        <ele>346.69</ele>
        <time>2014-06-08T11:41:23Z</time>
      </trkpt>
      <trkpt lat="43.1523" lon="2.17835">
        <ele>346.69</ele>
        <time>2014-06-08T11:41:24Z</time>
      </trkpt>
      <trkpt lat="43.15231" lon="2.1784">
        <ele>346.69</ele>
        <time>2014-06-08T11:41:25Z</time>
      </trkpt>
      <trkpt lat="43.15248" lon="2.179">
        <ele>347.17</ele>
        <time>2014-06-08T11:41:36Z</time>
      </trkpt>
      <trkpt lat="43.15256" lon="2.17932">
        <ele>348.62</ele>
        <time>2014-06-08T11:41:42Z</time>
      </trkpt>
      <trkpt lat="43.15256" lon="2.17938">
        <ele>349.1</ele>
        <time>2014-06-08T11:41:43Z</time>
      </trkpt>
      <trkpt lat="43.15255" lon="2.17944">
        <ele>349.1</ele>
        <time>2014-06-08T11:41:44Z</time>
      </trkpt>
      <trkpt lat="43.15253" lon="2.17949">
        <ele>349.1</ele>
        <time>2014-06-08T11:41:45Z</time>
      </trkpt>
      <trkpt lat="43.15251" lon="2.17954">
        <ele>349.1</ele>
        <time>2014-06-08T11:41:46Z</time>
      </trkpt>
      <trkpt lat="43.15248" lon="2.17957">
        <ele>349.58</ele>
        <time>2014-06-08T11:41:47Z</time>
      </trkpt>
      <trkpt lat="43.15245" lon="2.1796">
        <ele>349.58</ele>
        <time>2014-06-08T11:41:48Z</time>
      </trkpt>
      <trkpt lat="43.15241" lon="2.17961">
        <ele>349.58</ele>
        <time>2014-06-08T11:41:49Z</time>
      </trkpt>
      <trkpt lat="43.15238" lon="2.17962">
        <ele>349.58</ele>
        <time>2014-06-08T11:41:50Z</time>
      </trkpt>
      <trkpt lat="43.15234" lon="2.17962">
        <ele>349.1</ele>
        <time>2014-06-08T11:41:51Z</time>
      </trkpt>
      <trkpt lat="43.1523" lon="2.17963">
        <ele>349.1</ele>
        <time>2014-06-08T11:41:52Z</time>
      </trkpt>
      <trkpt lat="43.15226" lon="2.17963">
        <ele>349.1</ele>
        <time>2014-06-08T11:41:53Z</time>
      </trkpt>
      <trkpt lat="43.15222" lon="2.17963">
        <ele>349.58</ele>
        <time>2014-06-08T11:41:54Z</time>
      </trkpt>
      <trkpt lat="43.15209" lon="2.17963">
        <ele>349.58</ele>
        <time>2014-06-08T11:41:57Z</time>
      </trkpt>
      <trkpt lat="43.15204" lon="2.17964">
        <ele>350.06</ele>
        <time>2014-06-08T11:41:58Z</time>
      </trkpt>
      <trkpt lat="43.152" lon="2.17966">
        <ele>350.54</ele>
        <time>2014-06-08T11:41:59Z</time>
      </trkpt>
      <trkpt lat="43.15196" lon="2.1797">
        <ele>350.54</ele>
        <time>2014-06-08T11:42:00Z</time>
      </trkpt>
      <trkpt lat="43.15193" lon="2.17974">
        <ele>350.54</ele>
        <time>2014-06-08T11:42:01Z</time>
      </trkpt>
      <trkpt lat="43.1519" lon="2.17978">
        <ele>350.54</ele>
        <time>2014-06-08T11:42:02Z</time>
      </trkpt>
      <trkpt lat="43.15188" lon="2.17982">
        <ele>351.02</ele>
        <time>2014-06-08T11:42:03Z</time>
      </trkpt>
      <trkpt lat="43.15177" lon="2.18017">
        <ele>352.46</ele>
        <time>2014-06-08T11:42:10Z</time>
      </trkpt>
      <trkpt lat="43.15174" lon="2.18022">
        <ele>352.94</ele>
        <time>2014-06-08T11:42:11Z</time>
      </trkpt>
      <trkpt lat="43.15171" lon="2.18026">
        <ele>352.94</ele>
        <time>2014-06-08T11:42:12Z</time>
      </trkpt>
      <trkpt lat="43.15168" lon="2.18029">
        <ele>353.42</ele>
        <time>2014-06-08T11:42:13Z</time>
      </trkpt>
      <trkpt lat="43.15164" lon="2.18032">
        <ele>353.42</ele>
        <time>2014-06-08T11:42:14Z</time>
      </trkpt>
      <trkpt lat="43.1516" lon="2.18034">
        <ele>353.9</ele>
        <time>2014-06-08T11:42:15Z</time>
      </trkpt>
      <trkpt lat="43.15156" lon="2.18037">
        <ele>353.9</ele>
        <time>2014-06-08T11:42:16Z</time>
      </trkpt>
      <trkpt lat="43.15152" lon="2.18039">
        <ele>353.9</ele>
        <time>2014-06-08T11:42:17Z</time>
      </trkpt>
      <trkpt lat="43.15118" lon="2.18057">
        <ele>354.38</ele>
        <time>2014-06-08T11:42:25Z</time>
      </trkpt>
      <trkpt lat="43.15111" lon="2.18064">
        <ele>354.86</ele>
        <time>2014-06-08T11:42:27Z</time>
      </trkpt>
      <trkpt lat="43.15103" lon="2.18072">
        <ele>355.34</ele>
        <time>2014-06-08T11:42:29Z</time>
      </trkpt>
      <trkpt lat="43.15058" lon="2.18148">
        <ele>356.31</ele>
        <time>2014-06-08T11:42:45Z</time>
      </trkpt>
      <trkpt lat="43.15022" lon="2.18218">
        <ele>358.71</ele>
        <time>2014-06-08T11:43:00Z</time>
      </trkpt>
      <trkpt lat="43.14996" lon="2.18282">
        <ele>362.55</ele>
        <time>2014-06-08T11:43:12Z</time>
      </trkpt>
      <trkpt lat="43.14993" lon="2.18306">
        <ele>364.48</ele>
        <time>2014-06-08T11:43:16Z</time>
      </trkpt>
      <trkpt lat="43.14993" lon="2.18312">
        <ele>364.96</ele>
        <time>2014-06-08T11:43:17Z</time>
      </trkpt>
      <trkpt lat="43.14992" lon="2.18318">
        <ele>364.96</ele>
        <time>2014-06-08T11:43:18Z</time>
      </trkpt>
      <trkpt lat="43.14992" lon="2.18324">
        <ele>365.44</ele>
        <time>2014-06-08T11:43:19Z</time>
      </trkpt>
      <trkpt lat="43.14991" lon="2.1833">
        <ele>365.44</ele>
        <time>2014-06-08T11:43:20Z</time>
      </trkpt>
      <trkpt lat="43.14991" lon="2.18337">
        <ele>365.44</ele>
        <time>2014-06-08T11:43:21Z</time>
      </trkpt>
      <trkpt lat="43.14995" lon="2.18424">
        <ele>365.44</ele>
        <time>2014-06-08T11:43:34Z</time>
      </trkpt>
      <trkpt lat="43.14995" lon="2.18431">
        <ele>365.44</ele>
        <time>2014-06-08T11:43:35Z</time>
      </trkpt>
      <trkpt lat="43.14995" lon="2.18438">
        <ele>365.44</ele>
        <time>2014-06-08T11:43:36Z</time>
      </trkpt>
      <trkpt lat="43.14999" lon="2.18517">
        <ele>365.44</ele>
        <time>2014-06-08T11:43:47Z</time>
      </trkpt>
      <trkpt lat="43.15002" lon="2.18538">
        <ele>366.4</ele>
        <time>2014-06-08T11:43:50Z</time>
      </trkpt>
      <trkpt lat="43.15039" lon="2.18623">
        <ele>364.96</ele>
        <time>2014-06-08T11:44:03Z</time>
      </trkpt>
      <trkpt lat="43.1509" lon="2.1869">
        <ele>364.96</ele>
        <time>2014-06-08T11:44:15Z</time>
      </trkpt>
      <trkpt lat="43.15168" lon="2.18778">
        <ele>363.04</ele>
        <time>2014-06-08T11:44:32Z</time>
      </trkpt>
      <trkpt lat="43.15248" lon="2.18849">
        <ele>361.59</ele>
        <time>2014-06-08T11:44:48Z</time>
      </trkpt>
      <trkpt lat="43.15258" lon="2.18859">
        <ele>361.59</ele>
        <time>2014-06-08T11:44:50Z</time>
      </trkpt>
      <trkpt lat="43.15277" lon="2.1888">
        <ele>361.11</ele>
        <time>2014-06-08T11:44:54Z</time>
      </trkpt>
      <trkpt lat="43.15327" lon="2.18972">
        <ele>359.67</ele>
        <time>2014-06-08T11:45:08Z</time>
      </trkpt>
      <trkpt lat="43.15334" lon="2.18985">
        <ele>359.67</ele>
        <time>2014-06-08T11:45:10Z</time>
      </trkpt>
      <trkpt lat="43.15372" lon="2.19101">
        <ele>362.07</ele>
        <time>2014-06-08T11:45:27Z</time>
      </trkpt>
      <trkpt lat="43.15373" lon="2.19108">
        <ele>362.07</ele>
        <time>2014-06-08T11:45:28Z</time>
      </trkpt>
      <trkpt lat="43.15375" lon="2.19114">
        <ele>362.07</ele>
        <time>2014-06-08T11:45:29Z</time>
      </trkpt>
      <trkpt lat="43.15384" lon="2.1916">
        <ele>362.07</ele>
        <time>2014-06-08T11:45:36Z</time>
      </trkpt>
      <trkpt lat="43.15384" lon="2.19174">
        <ele>362.07</ele>
        <time>2014-06-08T11:45:38Z</time>
      </trkpt>
      <trkpt lat="43.15384" lon="2.19186">
        <ele>362.07</ele>
        <time>2014-06-08T11:45:40Z</time>
      </trkpt>
      <trkpt lat="43.15383" lon="2.19193">
        <ele>362.07</ele>
        <time>2014-06-08T11:45:41Z</time>
      </trkpt>
      <trkpt lat="43.15383" lon="2.192">
        <ele>361.59</ele>
        <time>2014-06-08T11:45:42Z</time>
      </trkpt>
      <trkpt lat="43.15382" lon="2.19206">
        <ele>361.59</ele>
        <time>2014-06-08T11:45:43Z</time>
      </trkpt>
      <trkpt lat="43.15381" lon="2.19213">
        <ele>361.59</ele>
        <time>2014-06-08T11:45:44Z</time>
      </trkpt>
      <trkpt lat="43.1538" lon="2.19219">
        <ele>362.07</ele>
        <time>2014-06-08T11:45:45Z</time>
      </trkpt>
      <trkpt lat="43.15379" lon="2.19225">
        <ele>362.07</ele>
        <time>2014-06-08T11:45:46Z</time>
      </trkpt>
      <trkpt lat="43.15369" lon="2.19255">
        <ele>363.52</ele>
        <time>2014-06-08T11:45:51Z</time>
      </trkpt>
      <trkpt lat="43.15368" lon="2.19261">
        <ele>364</ele>
        <time>2014-06-08T11:45:52Z</time>
      </trkpt>
      <trkpt lat="43.15356" lon="2.19308">
        <ele>365.92</ele>
        <time>2014-06-08T11:45:59Z</time>
      </trkpt>
      <trkpt lat="43.15355" lon="2.19315">
        <ele>366.4</ele>
        <time>2014-06-08T11:46:00Z</time>
      </trkpt>
      <trkpt lat="43.15355" lon="2.19322">
        <ele>366.88</ele>
        <time>2014-06-08T11:46:01Z</time>
      </trkpt>
      <trkpt lat="43.15354" lon="2.19401">
        <ele>369.28</ele>
        <time>2014-06-08T11:46:13Z</time>
      </trkpt>
      <trkpt lat="43.15354" lon="2.19407">
        <ele>369.76</ele>
        <time>2014-06-08T11:46:14Z</time>
      </trkpt>
      <trkpt lat="43.15354" lon="2.19419">
        <ele>370.24</ele>
        <time>2014-06-08T11:46:16Z</time>
      </trkpt>
      <trkpt lat="43.15354" lon="2.19425">
        <ele>370.73</ele>
        <time>2014-06-08T11:46:17Z</time>
      </trkpt>
      <trkpt lat="43.15353" lon="2.19437">
        <ele>371.69</ele>
        <time>2014-06-08T11:46:19Z</time>
      </trkpt>
      <trkpt lat="43.15352" lon="2.19479">
        <ele>373.13</ele>
        <time>2014-06-08T11:46:26Z</time>
      </trkpt>
      <trkpt lat="43.15337" lon="2.19557">
        <ele>374.57</ele>
        <time>2014-06-08T11:46:39Z</time>
      </trkpt>
      <trkpt lat="43.15337" lon="2.19563">
        <ele>375.05</ele>
        <time>2014-06-08T11:46:40Z</time>
      </trkpt>
      <trkpt lat="43.15337" lon="2.19569">
        <ele>375.05</ele>
        <time>2014-06-08T11:46:41Z</time>
      </trkpt>
      <trkpt lat="43.15337" lon="2.19575">
        <ele>375.05</ele>
        <time>2014-06-08T11:46:42Z</time>
      </trkpt>
      <trkpt lat="43.15338" lon="2.1958">
        <ele>375.05</ele>
        <time>2014-06-08T11:46:43Z</time>
      </trkpt>
      <trkpt lat="43.15339" lon="2.19586">
        <ele>375.53</ele>
        <time>2014-06-08T11:46:44Z</time>
      </trkpt>
      <trkpt lat="43.15341" lon="2.19591">
        <ele>375.53</ele>
        <time>2014-06-08T11:46:45Z</time>
      </trkpt>
      <trkpt lat="43.15343" lon="2.19596">
        <ele>375.53</ele>
        <time>2014-06-08T11:46:46Z</time>
      </trkpt>
      <trkpt lat="43.15354" lon="2.19627">
        <ele>376.49</ele>
        <time>2014-06-08T11:46:52Z</time>
      </trkpt>
      <trkpt lat="43.15355" lon="2.19633">
        <ele>376.49</ele>
        <time>2014-06-08T11:46:53Z</time>
      </trkpt>
      <trkpt lat="43.15358" lon="2.19643">
        <ele>376.97</ele>
        <time>2014-06-08T11:46:55Z</time>
      </trkpt>
      <trkpt lat="43.15359" lon="2.19649">
        <ele>376.97</ele>
        <time>2014-06-08T11:46:56Z</time>
      </trkpt>
      <trkpt lat="43.1536" lon="2.19666">
        <ele>376.97</ele>
        <time>2014-06-08T11:46:59Z</time>
      </trkpt>
      <trkpt lat="43.15359" lon="2.19672">
        <ele>376.97</ele>
        <time>2014-06-08T11:47:00Z</time>
      </trkpt>
      <trkpt lat="43.15359" lon="2.19678">
        <ele>376.97</ele>
        <time>2014-06-08T11:47:01Z</time>
      </trkpt>
      <trkpt lat="43.15358" lon="2.19683">
        <ele>376.97</ele>
        <time>2014-06-08T11:47:02Z</time>
      </trkpt>
      <trkpt lat="43.15357" lon="2.19689">
        <ele>376.97</ele>
        <time>2014-06-08T11:47:03Z</time>
      </trkpt>
      <trkpt lat="43.15356" lon="2.19694">
        <ele>376.49</ele>
        <time>2014-06-08T11:47:04Z</time>
      </trkpt>
      <trkpt lat="43.15353" lon="2.19712">
        <ele>377.45</ele>
        <time>2014-06-08T11:47:07Z</time>
      </trkpt>
      <trkpt lat="43.15352" lon="2.19717">
        <ele>377.45</ele>
        <time>2014-06-08T11:47:08Z</time>
      </trkpt>
      <trkpt lat="43.15347" lon="2.19757">
        <ele>378.42</ele>
        <time>2014-06-08T11:47:15Z</time>
      </trkpt>
      <trkpt lat="43.15347" lon="2.19763">
        <ele>378.9</ele>
        <time>2014-06-08T11:47:16Z</time>
      </trkpt>
      <trkpt lat="43.15351" lon="2.19869">
        <ele>380.82</ele>
        <time>2014-06-08T11:47:35Z</time>
      </trkpt>
      <trkpt lat="43.15356" lon="2.19977">
        <ele>384.66</ele>
        <time>2014-06-08T11:47:54Z</time>
      </trkpt>
      <trkpt lat="43.15362" lon="2.20095">
        <ele>389.47</ele>
        <time>2014-06-08T11:48:15Z</time>
      </trkpt>
      <trkpt lat="43.15358" lon="2.20133">
        <ele>390.43</ele>
        <time>2014-06-08T11:48:22Z</time>
      </trkpt>
      <trkpt lat="43.15357" lon="2.20138">
        <ele>390.91</ele>
        <time>2014-06-08T11:48:23Z</time>
      </trkpt>
      <trkpt lat="43.15355" lon="2.20143">
        <ele>390.91</ele>
        <time>2014-06-08T11:48:24Z</time>
      </trkpt>
      <trkpt lat="43.1533" lon="2.20206">
        <ele>391.87</ele>
        <time>2014-06-08T11:48:37Z</time>
      </trkpt>
      <trkpt lat="43.15317" lon="2.20266">
        <ele>392.84</ele>
        <time>2014-06-08T11:48:48Z</time>
      </trkpt>
      <trkpt lat="43.15317" lon="2.20272">
        <ele>393.32</ele>
        <time>2014-06-08T11:48:49Z</time>
      </trkpt>
      <trkpt lat="43.15318" lon="2.20277">
        <ele>393.32</ele>
        <time>2014-06-08T11:48:50Z</time>
      </trkpt>
      <trkpt lat="43.15319" lon="2.20283">
        <ele>393.8</ele>
        <time>2014-06-08T11:48:51Z</time>
      </trkpt>
      <trkpt lat="43.15321" lon="2.20288">
        <ele>393.8</ele>
        <time>2014-06-08T11:48:52Z</time>
      </trkpt>
      <trkpt lat="43.15323" lon="2.20293">
        <ele>394.28</ele>
        <time>2014-06-08T11:48:53Z</time>
      </trkpt>
      <trkpt lat="43.15326" lon="2.20298">
        <ele>394.28</ele>
        <time>2014-06-08T11:48:54Z</time>
      </trkpt>
      <trkpt lat="43.15329" lon="2.20302">
        <ele>394.76</ele>
        <time>2014-06-08T11:48:55Z</time>
      </trkpt>
      <trkpt lat="43.15333" lon="2.20305">
        <ele>394.76</ele>
        <time>2014-06-08T11:48:56Z</time>
      </trkpt>
      <trkpt lat="43.15337" lon="2.20307">
        <ele>395.24</ele>
        <time>2014-06-08T11:48:57Z</time>
      </trkpt>
      <trkpt lat="43.15341" lon="2.2031">
        <ele>395.24</ele>
        <time>2014-06-08T11:48:58Z</time>
      </trkpt>
      <trkpt lat="43.15345" lon="2.20311">
        <ele>395.72</ele>
        <time>2014-06-08T11:48:59Z</time>
      </trkpt>
      <trkpt lat="43.15349" lon="2.20313">
        <ele>395.72</ele>
        <time>2014-06-08T11:49:00Z</time>
      </trkpt>
      <trkpt lat="43.15353" lon="2.20314">
        <ele>395.72</ele>
        <time>2014-06-08T11:49:01Z</time>
      </trkpt>
      <trkpt lat="43.15418" lon="2.20353">
        <ele>398.12</ele>
        <time>2014-06-08T11:49:18Z</time>
      </trkpt>
      <trkpt lat="43.15421" lon="2.20357">
        <ele>398.6</ele>
        <time>2014-06-08T11:49:19Z</time>
      </trkpt>
      <trkpt lat="43.15424" lon="2.20362">
        <ele>398.6</ele>
        <time>2014-06-08T11:49:20Z</time>
      </trkpt>
      <trkpt lat="43.15426" lon="2.20368">
        <ele>398.6</ele>
        <time>2014-06-08T11:49:21Z</time>
      </trkpt>
      <trkpt lat="43.15428" lon="2.20373">
        <ele>398.6</ele>
        <time>2014-06-08T11:49:22Z</time>
      </trkpt>
      <trkpt lat="43.15429" lon="2.20379">
        <ele>398.6</ele>
        <time>2014-06-08T11:49:23Z</time>
      </trkpt>
      <trkpt lat="43.1543" lon="2.20384">
        <ele>398.6</ele>
        <time>2014-06-08T11:49:24Z</time>
      </trkpt>
      <trkpt lat="43.1543" lon="2.2039">
        <ele>399.08</ele>
        <time>2014-06-08T11:49:25Z</time>
      </trkpt>
      <trkpt lat="43.1543" lon="2.20396">
        <ele>399.08</ele>
        <time>2014-06-08T11:49:26Z</time>
      </trkpt>
      <trkpt lat="43.15429" lon="2.20401">
        <ele>399.57</ele>
        <time>2014-06-08T11:49:27Z</time>
      </trkpt>
      <trkpt lat="43.15428" lon="2.20406">
        <ele>399.57</ele>
        <time>2014-06-08T11:49:28Z</time>
      </trkpt>
      <trkpt lat="43.15426" lon="2.20411">
        <ele>400.05</ele>
        <time>2014-06-08T11:49:29Z</time>
      </trkpt>
      <trkpt lat="43.15423" lon="2.20416">
        <ele>400.05</ele>
        <time>2014-06-08T11:49:30Z</time>
      </trkpt>
      <trkpt lat="43.15421" lon="2.20421">
        <ele>400.05</ele>
        <time>2014-06-08T11:49:31Z</time>
      </trkpt>
      <trkpt lat="43.15419" lon="2.20426">
        <ele>400.53</ele>
        <time>2014-06-08T11:49:32Z</time>
      </trkpt>
      <trkpt lat="43.15402" lon="2.20459">
        <ele>401.97</ele>
        <time>2014-06-08T11:49:39Z</time>
      </trkpt>
      <trkpt lat="43.15395" lon="2.20492">
        <ele>402.93</ele>
        <time>2014-06-08T11:49:45Z</time>
      </trkpt>
      <trkpt lat="43.15395" lon="2.20527">
        <ele>403.89</ele>
        <time>2014-06-08T11:49:51Z</time>
      </trkpt>
      <trkpt lat="43.15397" lon="2.20539">
        <ele>404.37</ele>
        <time>2014-06-08T11:49:53Z</time>
      </trkpt>
      <trkpt lat="43.15401" lon="2.20555">
        <ele>405.33</ele>
        <time>2014-06-08T11:49:56Z</time>
      </trkpt>
      <trkpt lat="43.15413" lon="2.20585">
        <ele>405.81</ele>
        <time>2014-06-08T11:50:02Z</time>
      </trkpt>
      <trkpt lat="43.15427" lon="2.20608">
        <ele>406.29</ele>
        <time>2014-06-08T11:50:07Z</time>
      </trkpt>
      <trkpt lat="43.15497" lon="2.20659">
        <ele>408.7</ele>
        <time>2014-06-08T11:50:26Z</time>
      </trkpt>
      <trkpt lat="43.15514" lon="2.20676">
        <ele>409.18</ele>
        <time>2014-06-08T11:50:31Z</time>
      </trkpt>
      <trkpt lat="43.1552" lon="2.20685">
        <ele>409.66</ele>
        <time>2014-06-08T11:50:33Z</time>
      </trkpt>
      <trkpt lat="43.15529" lon="2.20703">
        <ele>410.14</ele>
        <time>2014-06-08T11:50:37Z</time>
      </trkpt>
      <trkpt lat="43.15563" lon="2.20798">
        <ele>413.02</ele>
        <time>2014-06-08T11:50:55Z</time>
      </trkpt>
      <trkpt lat="43.15579" lon="2.20849">
        <ele>414.47</ele>
        <time>2014-06-08T11:51:04Z</time>
      </trkpt>
      <trkpt lat="43.15598" lon="2.20883">
        <ele>416.39</ele>
        <time>2014-06-08T11:51:11Z</time>
      </trkpt>
      <trkpt lat="43.15602" lon="2.20887">
        <ele>416.87</ele>
        <time>2014-06-08T11:51:12Z</time>
      </trkpt>
      <trkpt lat="43.15645" lon="2.20921">
        <ele>418.31</ele>
        <time>2014-06-08T11:51:22Z</time>
      </trkpt>
      <trkpt lat="43.1569" lon="2.20938">
        <ele>420.23</ele>
        <time>2014-06-08T11:51:31Z</time>
      </trkpt>
      <trkpt lat="43.15738" lon="2.20944">
        <ele>421.19</ele>
        <time>2014-06-08T11:51:40Z</time>
      </trkpt>
      <trkpt lat="43.15743" lon="2.20946">
        <ele>421.19</ele>
        <time>2014-06-08T11:51:41Z</time>
      </trkpt>
      <trkpt lat="43.15748" lon="2.20949">
        <ele>421.19</ele>
        <time>2014-06-08T11:51:42Z</time>
      </trkpt>
      <trkpt lat="43.15752" lon="2.20953">
        <ele>421.19</ele>
        <time>2014-06-08T11:51:43Z</time>
      </trkpt>
      <trkpt lat="43.15757" lon="2.20957">
        <ele>421.19</ele>
        <time>2014-06-08T11:51:44Z</time>
      </trkpt>
      <trkpt lat="43.15825" lon="2.21038">
        <ele>419.75</ele>
        <time>2014-06-08T11:52:00Z</time>
      </trkpt>
      <trkpt lat="43.15857" lon="2.21109">
        <ele>417.83</ele>
        <time>2014-06-08T11:52:10Z</time>
      </trkpt>
      <trkpt lat="43.15862" lon="2.21114">
        <ele>417.35</ele>
        <time>2014-06-08T11:52:11Z</time>
      </trkpt>
      <trkpt lat="43.15867" lon="2.21119">
        <ele>417.35</ele>
        <time>2014-06-08T11:52:12Z</time>
      </trkpt>
      <trkpt lat="43.15873" lon="2.21122">
        <ele>417.35</ele>
        <time>2014-06-08T11:52:13Z</time>
      </trkpt>
      <trkpt lat="43.1588" lon="2.21123">
        <ele>417.35</ele>
        <time>2014-06-08T11:52:14Z</time>
      </trkpt>
      <trkpt lat="43.15887" lon="2.21122">
        <ele>417.35</ele>
        <time>2014-06-08T11:52:15Z</time>
      </trkpt>
      <trkpt lat="43.15894" lon="2.2112">
        <ele>416.87</ele>
        <time>2014-06-08T11:52:16Z</time>
      </trkpt>
      <trkpt lat="43.159" lon="2.21118">
        <ele>416.87</ele>
        <time>2014-06-08T11:52:17Z</time>
      </trkpt>
      <trkpt lat="43.1592" lon="2.21111">
        <ele>416.87</ele>
        <time>2014-06-08T11:52:20Z</time>
      </trkpt>
      <trkpt lat="43.15926" lon="2.21111">
        <ele>416.87</ele>
        <time>2014-06-08T11:52:21Z</time>
      </trkpt>
      <trkpt lat="43.15933" lon="2.21111">
        <ele>416.39</ele>
        <time>2014-06-08T11:52:22Z</time>
      </trkpt>
      <trkpt lat="43.1594" lon="2.21112">
        <ele>416.39</ele>
        <time>2014-06-08T11:52:23Z</time>
      </trkpt>
      <trkpt lat="43.15947" lon="2.21115">
        <ele>416.39</ele>
        <time>2014-06-08T11:52:24Z</time>
      </trkpt>
      <trkpt lat="43.15953" lon="2.21117">
        <ele>415.91</ele>
        <time>2014-06-08T11:52:25Z</time>
      </trkpt>
      <trkpt lat="43.15967" lon="2.21121">
        <ele>415.91</ele>
        <time>2014-06-08T11:52:27Z</time>
      </trkpt>
      <trkpt lat="43.15974" lon="2.21121">
        <ele>415.43</ele>
        <time>2014-06-08T11:52:28Z</time>
      </trkpt>
      <trkpt lat="43.1598" lon="2.2112">
        <ele>415.43</ele>
        <time>2014-06-08T11:52:29Z</time>
      </trkpt>
      <trkpt lat="43.15987" lon="2.21117">
        <ele>415.43</ele>
        <time>2014-06-08T11:52:30Z</time>
      </trkpt>
      <trkpt lat="43.15993" lon="2.21112">
        <ele>414.95</ele>
        <time>2014-06-08T11:52:31Z</time>
      </trkpt>
      <trkpt lat="43.16" lon="2.21106">
        <ele>414.95</ele>
        <time>2014-06-08T11:52:32Z</time>
      </trkpt>
      <trkpt lat="43.16006" lon="2.211">
        <ele>414.47</ele>
        <time>2014-06-08T11:52:33Z</time>
      </trkpt>
      <trkpt lat="43.16081" lon="2.21015">
        <ele>412.54</ele>
        <time>2014-06-08T11:52:45Z</time>
      </trkpt>
      <trkpt lat="43.16087" lon="2.21009">
        <ele>412.06</ele>
        <time>2014-06-08T11:52:46Z</time>
      </trkpt>
      <trkpt lat="43.16094" lon="2.21006">
        <ele>412.06</ele>
        <time>2014-06-08T11:52:47Z</time>
      </trkpt>
      <trkpt lat="43.16102" lon="2.21004">
        <ele>412.06</ele>
        <time>2014-06-08T11:52:48Z</time>
      </trkpt>
      <trkpt lat="43.16109" lon="2.21004">
        <ele>411.58</ele>
        <time>2014-06-08T11:52:49Z</time>
      </trkpt>
      <trkpt lat="43.16117" lon="2.21005">
        <ele>411.58</ele>
        <time>2014-06-08T11:52:50Z</time>
      </trkpt>
      <trkpt lat="43.16124" lon="2.21009">
        <ele>411.1</ele>
        <time>2014-06-08T11:52:51Z</time>
      </trkpt>
      <trkpt lat="43.16131" lon="2.21014">
        <ele>411.1</ele>
        <time>2014-06-08T11:52:52Z</time>
      </trkpt>
      <trkpt lat="43.16136" lon="2.21022">
        <ele>410.62</ele>
        <time>2014-06-08T11:52:53Z</time>
      </trkpt>
      <trkpt lat="43.1614" lon="2.21031">
        <ele>410.62</ele>
        <time>2014-06-08T11:52:54Z</time>
      </trkpt>
      <trkpt lat="43.16145" lon="2.2104">
        <ele>410.14</ele>
        <time>2014-06-08T11:52:55Z</time>
      </trkpt>
      <trkpt lat="43.16213" lon="2.21191">
        <ele>406.77</ele>
        <time>2014-06-08T11:53:11Z</time>
      </trkpt>
      <trkpt lat="43.16245" lon="2.21244">
        <ele>404.85</ele>
        <time>2014-06-08T11:53:17Z</time>
      </trkpt>
      <trkpt lat="43.16248" lon="2.21254">
        <ele>404.85</ele>
        <time>2014-06-08T11:53:18Z</time>
      </trkpt>
      <trkpt lat="43.1625" lon="2.21265">
        <ele>404.85</ele>
        <time>2014-06-08T11:53:19Z</time>
      </trkpt>
      <trkpt lat="43.16251" lon="2.21276">
        <ele>404.37</ele>
        <time>2014-06-08T11:53:20Z</time>
      </trkpt>
      <trkpt lat="43.16252" lon="2.21287">
        <ele>404.37</ele>
        <time>2014-06-08T11:53:21Z</time>
      </trkpt>
      <trkpt lat="43.16254" lon="2.21298">
        <ele>403.89</ele>
        <time>2014-06-08T11:53:22Z</time>
      </trkpt>
      <trkpt lat="43.16259" lon="2.21307">
        <ele>402.93</ele>
        <time>2014-06-08T11:53:23Z</time>
      </trkpt>
      <trkpt lat="43.16265" lon="2.21314">
        <ele>402.45</ele>
        <time>2014-06-08T11:53:24Z</time>
      </trkpt>
      <trkpt lat="43.16273" lon="2.21317">
        <ele>401.49</ele>
        <time>2014-06-08T11:53:25Z</time>
      </trkpt>
      <trkpt lat="43.16281" lon="2.21317">
        <ele>401.01</ele>
        <time>2014-06-08T11:53:26Z</time>
      </trkpt>
      <trkpt lat="43.1629" lon="2.21312">
        <ele>400.05</ele>
        <time>2014-06-08T11:53:27Z</time>
      </trkpt>
      <trkpt lat="43.163" lon="2.21303">
        <ele>399.08</ele>
        <time>2014-06-08T11:53:28Z</time>
      </trkpt>
      <trkpt lat="43.16307" lon="2.21293">
        <ele>398.6</ele>
        <time>2014-06-08T11:53:29Z</time>
      </trkpt>
      <trkpt lat="43.16314" lon="2.21281">
        <ele>398.6</ele>
        <time>2014-06-08T11:53:30Z</time>
      </trkpt>
      <trkpt lat="43.16319" lon="2.21269">
        <ele>398.12</ele>
        <time>2014-06-08T11:53:31Z</time>
      </trkpt>
      <trkpt lat="43.16324" lon="2.21257">
        <ele>397.64</ele>
        <time>2014-06-08T11:53:32Z</time>
      </trkpt>
      <trkpt lat="43.1633" lon="2.21246">
        <ele>397.16</ele>
        <time>2014-06-08T11:53:33Z</time>
      </trkpt>
      <trkpt lat="43.16338" lon="2.21236">
        <ele>396.68</ele>
        <time>2014-06-08T11:53:34Z</time>
      </trkpt>
      <trkpt lat="43.16347" lon="2.21227">
        <ele>396.2</ele>
        <time>2014-06-08T11:53:35Z</time>
      </trkpt>
      <trkpt lat="43.16356" lon="2.21221">
        <ele>395.72</ele>
        <time>2014-06-08T11:53:36Z</time>
      </trkpt>
      <trkpt lat="43.16366" lon="2.21218">
        <ele>395.24</ele>
        <time>2014-06-08T11:53:37Z</time>
      </trkpt>
      <trkpt lat="43.16377" lon="2.21218">
        <ele>394.76</ele>
        <time>2014-06-08T11:53:38Z</time>
      </trkpt>
      <trkpt lat="43.16387" lon="2.21219">
        <ele>394.28</ele>
        <time>2014-06-08T11:53:39Z</time>
      </trkpt>
      <trkpt lat="43.16397" lon="2.21221">
        <ele>393.8</ele>
        <time>2014-06-08T11:53:40Z</time>
      </trkpt>
      <trkpt lat="43.16448" lon="2.21233">
        <ele>390.91</ele>
        <time>2014-06-08T11:53:45Z</time>
      </trkpt>
      <trkpt lat="43.16457" lon="2.21241">
        <ele>390.43</ele>
        <time>2014-06-08T11:53:46Z</time>
      </trkpt>
      <trkpt lat="43.16464" lon="2.21252">
        <ele>389.95</ele>
        <time>2014-06-08T11:53:47Z</time>
      </trkpt>
      <trkpt lat="43.16468" lon="2.21265">
        <ele>389.47</ele>
        <time>2014-06-08T11:53:48Z</time>
      </trkpt>
      <trkpt lat="43.16469" lon="2.21279">
        <ele>388.99</ele>
        <time>2014-06-08T11:53:49Z</time>
      </trkpt>
      <trkpt lat="43.1647" lon="2.21293">
        <ele>388.51</ele>
        <time>2014-06-08T11:53:50Z</time>
      </trkpt>
      <trkpt lat="43.16491" lon="2.21509">
        <ele>384.18</ele>
        <time>2014-06-08T11:54:05Z</time>
      </trkpt>
      <trkpt lat="43.16508" lon="2.21582">
        <ele>382.26</ele>
        <time>2014-06-08T11:54:10Z</time>
      </trkpt>
      <trkpt lat="43.16509" lon="2.21597">
        <ele>381.78</ele>
        <time>2014-06-08T11:54:11Z</time>
      </trkpt>
      <trkpt lat="43.16509" lon="2.21612">
        <ele>381.3</ele>
        <time>2014-06-08T11:54:12Z</time>
      </trkpt>
      <trkpt lat="43.16507" lon="2.21627">
        <ele>380.82</ele>
        <time>2014-06-08T11:54:13Z</time>
      </trkpt>
      <trkpt lat="43.16503" lon="2.21641">
        <ele>380.34</ele>
        <time>2014-06-08T11:54:14Z</time>
      </trkpt>
      <trkpt lat="43.16496" lon="2.21653">
        <ele>379.86</ele>
        <time>2014-06-08T11:54:15Z</time>
      </trkpt>
      <trkpt lat="43.16488" lon="2.21663">
        <ele>379.38</ele>
        <time>2014-06-08T11:54:16Z</time>
      </trkpt>
      <trkpt lat="43.16479" lon="2.21671">
        <ele>378.9</ele>
        <time>2014-06-08T11:54:17Z</time>
      </trkpt>
      <trkpt lat="43.16454" lon="2.217">
        <ele>376.97</ele>
        <time>2014-06-08T11:54:20Z</time>
      </trkpt>
      <trkpt lat="43.16447" lon="2.21711">
        <ele>376.01</ele>
        <time>2014-06-08T11:54:21Z</time>
      </trkpt>
      <trkpt lat="43.16442" lon="2.21724">
        <ele>375.05</ele>
        <time>2014-06-08T11:54:22Z</time>
      </trkpt>
      <trkpt lat="43.16437" lon="2.21738">
        <ele>374.09</ele>
        <time>2014-06-08T11:54:23Z</time>
      </trkpt>
      <trkpt lat="43.16433" lon="2.21752">
        <ele>373.13</ele>
        <time>2014-06-08T11:54:24Z</time>
      </trkpt>
      <trkpt lat="43.1643" lon="2.21767">
        <ele>372.17</ele>
        <time>2014-06-08T11:54:25Z</time>
      </trkpt>
      <trkpt lat="43.164" lon="2.2194">
        <ele>362.07</ele>
        <time>2014-06-08T11:54:37Z</time>
      </trkpt>
      <trkpt lat="43.16402" lon="2.21954">
        <ele>361.59</ele>
        <time>2014-06-08T11:54:38Z</time>
      </trkpt>
      <trkpt lat="43.16406" lon="2.21967">
        <ele>360.63</ele>
        <time>2014-06-08T11:54:39Z</time>
      </trkpt>
      <trkpt lat="43.16412" lon="2.2198">
        <ele>359.67</ele>
        <time>2014-06-08T11:54:40Z</time>
      </trkpt>
      <trkpt lat="43.16418" lon="2.21993">
        <ele>359.19</ele>
        <time>2014-06-08T11:54:41Z</time>
      </trkpt>
      <trkpt lat="43.16422" lon="2.22007">
        <ele>358.23</ele>
        <time>2014-06-08T11:54:42Z</time>
      </trkpt>
      <trkpt lat="43.16425" lon="2.2202">
        <ele>357.27</ele>
        <time>2014-06-08T11:54:43Z</time>
      </trkpt>
      <trkpt lat="43.16427" lon="2.22031">
        <ele>356.31</ele>
        <time>2014-06-08T11:54:44Z</time>
      </trkpt>
      <trkpt lat="43.16428" lon="2.22037">
        <ele>355.34</ele>
        <time>2014-06-08T11:54:45Z</time>
      </trkpt>
      <trkpt lat="43.16429" lon="2.2204">
        <ele>354.38</ele>
        <time>2014-06-08T11:54:46Z</time>
      </trkpt>
      <trkpt lat="43.16427" lon="2.22096">
        <ele>348.13</ele>
        <time>2014-06-08T11:54:52Z</time>
      </trkpt>
      <trkpt lat="43.16423" lon="2.22111">
        <ele>348.13</ele>
        <time>2014-06-08T11:54:53Z</time>
      </trkpt>
      <trkpt lat="43.16424" lon="2.22133">
        <ele>348.62</ele>
        <time>2014-06-08T11:54:55Z</time>
      </trkpt>
      <trkpt lat="43.16429" lon="2.22153">
        <ele>348.62</ele>
        <time>2014-06-08T11:54:57Z</time>
      </trkpt>
      <trkpt lat="43.16434" lon="2.22163">
        <ele>348.62</ele>
        <time>2014-06-08T11:54:58Z</time>
      </trkpt>
      <trkpt lat="43.16451" lon="2.2218">
        <ele>349.1</ele>
        <time>2014-06-08T11:55:00Z</time>
      </trkpt>
      <trkpt lat="43.16458" lon="2.22191">
        <ele>348.62</ele>
        <time>2014-06-08T11:55:01Z</time>
      </trkpt>
      <trkpt lat="43.16464" lon="2.22204">
        <ele>348.62</ele>
        <time>2014-06-08T11:55:02Z</time>
      </trkpt>
      <trkpt lat="43.16474" lon="2.2223">
        <ele>347.65</ele>
        <time>2014-06-08T11:55:04Z</time>
      </trkpt>
      <trkpt lat="43.16476" lon="2.22244">
        <ele>347.17</ele>
        <time>2014-06-08T11:55:05Z</time>
      </trkpt>
      <trkpt lat="43.16475" lon="2.22258">
        <ele>346.69</ele>
        <time>2014-06-08T11:55:06Z</time>
      </trkpt>
      <trkpt lat="43.1647" lon="2.22275">
        <ele>345.73</ele>
        <time>2014-06-08T11:55:07Z</time>
      </trkpt>
      <trkpt lat="43.16461" lon="2.22295">
        <ele>344.29</ele>
        <time>2014-06-08T11:55:08Z</time>
      </trkpt>
      <trkpt lat="43.16445" lon="2.22395">
        <ele>339.96</ele>
        <time>2014-06-08T11:55:14Z</time>
      </trkpt>
      <trkpt lat="43.16445" lon="2.22412">
        <ele>339</ele>
        <time>2014-06-08T11:55:15Z</time>
      </trkpt>
      <trkpt lat="43.16447" lon="2.22428">
        <ele>338.52</ele>
        <time>2014-06-08T11:55:16Z</time>
      </trkpt>
      <trkpt lat="43.16451" lon="2.22444">
        <ele>338.04</ele>
        <time>2014-06-08T11:55:17Z</time>
      </trkpt>
      <trkpt lat="43.16455" lon="2.22458">
        <ele>337.08</ele>
        <time>2014-06-08T11:55:18Z</time>
      </trkpt>
      <trkpt lat="43.1646" lon="2.22472">
        <ele>336.6</ele>
        <time>2014-06-08T11:55:19Z</time>
      </trkpt>
      <trkpt lat="43.16476" lon="2.22494">
        <ele>334.68</ele>
        <time>2014-06-08T11:55:21Z</time>
      </trkpt>
      <trkpt lat="43.16514" lon="2.22523">
        <ele>330.83</ele>
        <time>2014-06-08T11:55:24Z</time>
      </trkpt>
      <trkpt lat="43.16523" lon="2.22536">
        <ele>329.87</ele>
        <time>2014-06-08T11:55:25Z</time>
      </trkpt>
      <trkpt lat="43.1653" lon="2.22551">
        <ele>329.39</ele>
        <time>2014-06-08T11:55:26Z</time>
      </trkpt>
      <trkpt lat="43.16534" lon="2.22567">
        <ele>328.43</ele>
        <time>2014-06-08T11:55:27Z</time>
      </trkpt>
      <trkpt lat="43.16537" lon="2.22583">
        <ele>327.95</ele>
        <time>2014-06-08T11:55:28Z</time>
      </trkpt>
      <trkpt lat="43.16543" lon="2.2263">
        <ele>326.99</ele>
        <time>2014-06-08T11:55:31Z</time>
      </trkpt>
      <trkpt lat="43.16543" lon="2.22645">
        <ele>326.5</ele>
        <time>2014-06-08T11:55:32Z</time>
      </trkpt>
      <trkpt lat="43.1654" lon="2.22659">
        <ele>326.02</ele>
        <time>2014-06-08T11:55:33Z</time>
      </trkpt>
      <trkpt lat="43.16534" lon="2.22671">
        <ele>325.54</ele>
        <time>2014-06-08T11:55:34Z</time>
      </trkpt>
      <trkpt lat="43.16526" lon="2.22681">
        <ele>325.54</ele>
        <time>2014-06-08T11:55:35Z</time>
      </trkpt>
      <trkpt lat="43.16518" lon="2.22691">
        <ele>325.06</ele>
        <time>2014-06-08T11:55:36Z</time>
      </trkpt>
      <trkpt lat="43.16511" lon="2.22702">
        <ele>324.58</ele>
        <time>2014-06-08T11:55:37Z</time>
      </trkpt>
      <trkpt lat="43.16507" lon="2.22715">
        <ele>324.1</ele>
        <time>2014-06-08T11:55:38Z</time>
      </trkpt>
      <trkpt lat="43.16504" lon="2.2273">
        <ele>323.14</ele>
        <time>2014-06-08T11:55:39Z</time>
      </trkpt>
      <trkpt lat="43.16503" lon="2.22745">
        <ele>322.66</ele>
        <time>2014-06-08T11:55:40Z</time>
      </trkpt>
      <trkpt lat="43.16504" lon="2.2276">
        <ele>322.18</ele>
        <time>2014-06-08T11:55:41Z</time>
      </trkpt>
      <trkpt lat="43.16512" lon="2.2286">
        <ele>318.81</ele>
        <time>2014-06-08T11:55:48Z</time>
      </trkpt>
      <trkpt lat="43.16522" lon="2.22885">
        <ele>317.37</ele>
        <time>2014-06-08T11:55:50Z</time>
      </trkpt>
      <trkpt lat="43.1653" lon="2.22896">
        <ele>316.89</ele>
        <time>2014-06-08T11:55:51Z</time>
      </trkpt>
      <trkpt lat="43.16538" lon="2.22905">
        <ele>315.93</ele>
        <time>2014-06-08T11:55:52Z</time>
      </trkpt>
      <trkpt lat="43.16547" lon="2.22913">
        <ele>315.45</ele>
        <time>2014-06-08T11:55:53Z</time>
      </trkpt>
      <trkpt lat="43.16556" lon="2.22921">
        <ele>314.97</ele>
        <time>2014-06-08T11:55:54Z</time>
      </trkpt>
      <trkpt lat="43.16566" lon="2.22928">
        <ele>314.01</ele>
        <time>2014-06-08T11:55:55Z</time>
      </trkpt>
      <trkpt lat="43.16678" lon="2.23015">
        <ele>306.8</ele>
        <time>2014-06-08T11:56:07Z</time>
      </trkpt>
      <trkpt lat="43.16685" lon="2.23026">
        <ele>306.32</ele>
        <time>2014-06-08T11:56:08Z</time>
      </trkpt>
      <trkpt lat="43.16691" lon="2.23038">
        <ele>305.36</ele>
        <time>2014-06-08T11:56:09Z</time>
      </trkpt>
      <trkpt lat="43.16694" lon="2.23053">
        <ele>304.88</ele>
        <time>2014-06-08T11:56:10Z</time>
      </trkpt>
      <trkpt lat="43.16696" lon="2.23067">
        <ele>304.39</ele>
        <time>2014-06-08T11:56:11Z</time>
      </trkpt>
      <trkpt lat="43.16697" lon="2.23082">
        <ele>303.91</ele>
        <time>2014-06-08T11:56:12Z</time>
      </trkpt>
      <trkpt lat="43.16704" lon="2.23181">
        <ele>300.55</ele>
        <time>2014-06-08T11:56:19Z</time>
      </trkpt>
      <trkpt lat="43.16706" lon="2.23194">
        <ele>300.55</ele>
        <time>2014-06-08T11:56:20Z</time>
      </trkpt>
      <trkpt lat="43.1671" lon="2.23206">
        <ele>300.07</ele>
        <time>2014-06-08T11:56:21Z</time>
      </trkpt>
      <trkpt lat="43.16715" lon="2.23216">
        <ele>299.11</ele>
        <time>2014-06-08T11:56:22Z</time>
      </trkpt>
      <trkpt lat="43.16722" lon="2.23225">
        <ele>298.63</ele>
        <time>2014-06-08T11:56:23Z</time>
      </trkpt>
      <trkpt lat="43.16729" lon="2.23232">
        <ele>298.15</ele>
        <time>2014-06-08T11:56:24Z</time>
      </trkpt>
      <trkpt lat="43.16737" lon="2.23242">
        <ele>297.18</ele>
        <time>2014-06-08T11:56:25Z</time>
      </trkpt>
      <trkpt lat="43.16743" lon="2.23254">
        <ele>296.7</ele>
        <time>2014-06-08T11:56:26Z</time>
      </trkpt>
      <trkpt lat="43.16745" lon="2.23267">
        <ele>296.22</ele>
        <time>2014-06-08T11:56:27Z</time>
      </trkpt>
      <trkpt lat="43.16745" lon="2.2328">
        <ele>295.74</ele>
        <time>2014-06-08T11:56:28Z</time>
      </trkpt>
      <trkpt lat="43.16743" lon="2.23293">
        <ele>294.78</ele>
        <time>2014-06-08T11:56:29Z</time>
      </trkpt>
      <trkpt lat="43.1674" lon="2.23306">
        <ele>294.3</ele>
        <time>2014-06-08T11:56:30Z</time>
      </trkpt>
      <trkpt lat="43.16731" lon="2.23358">
        <ele>291.9</ele>
        <time>2014-06-08T11:56:34Z</time>
      </trkpt>
      <trkpt lat="43.16731" lon="2.23372">
        <ele>291.42</ele>
        <time>2014-06-08T11:56:35Z</time>
      </trkpt>
      <trkpt lat="43.16732" lon="2.23385">
        <ele>290.94</ele>
        <time>2014-06-08T11:56:36Z</time>
      </trkpt>
      <trkpt lat="43.16737" lon="2.23393">
        <ele>290.46</ele>
        <time>2014-06-08T11:56:37Z</time>
      </trkpt>
      <trkpt lat="43.16746" lon="2.23396">
        <ele>289.49</ele>
        <time>2014-06-08T11:56:38Z</time>
      </trkpt>
      <trkpt lat="43.16755" lon="2.23393">
        <ele>289.01</ele>
        <time>2014-06-08T11:56:39Z</time>
      </trkpt>
      <trkpt lat="43.16765" lon="2.23387">
        <ele>288.53</ele>
        <time>2014-06-08T11:56:40Z</time>
      </trkpt>
      <trkpt lat="43.16774" lon="2.23379">
        <ele>288.05</ele>
        <time>2014-06-08T11:56:41Z</time>
      </trkpt>
      <trkpt lat="43.16784" lon="2.23372">
        <ele>287.57</ele>
        <time>2014-06-08T11:56:42Z</time>
      </trkpt>
      <trkpt lat="43.16795" lon="2.23368">
        <ele>287.09</ele>
        <time>2014-06-08T11:56:43Z</time>
      </trkpt>
      <trkpt lat="43.16805" lon="2.23366">
        <ele>286.61</ele>
        <time>2014-06-08T11:56:44Z</time>
      </trkpt>
      <trkpt lat="43.16816" lon="2.23366">
        <ele>286.61</ele>
        <time>2014-06-08T11:56:45Z</time>
      </trkpt>
      <trkpt lat="43.16825" lon="2.23367">
        <ele>286.13</ele>
        <time>2014-06-08T11:56:46Z</time>
      </trkpt>
      <trkpt lat="43.16834" lon="2.23371">
        <ele>285.65</ele>
        <time>2014-06-08T11:56:47Z</time>
      </trkpt>
      <trkpt lat="43.16843" lon="2.23375">
        <ele>285.17</ele>
        <time>2014-06-08T11:56:48Z</time>
      </trkpt>
      <trkpt lat="43.16853" lon="2.23382">
        <ele>284.69</ele>
        <time>2014-06-08T11:56:49Z</time>
      </trkpt>
      <trkpt lat="43.1686" lon="2.23391">
        <ele>284.21</ele>
        <time>2014-06-08T11:56:50Z</time>
      </trkpt>
      <trkpt lat="43.16867" lon="2.23402">
        <ele>284.21</ele>
        <time>2014-06-08T11:56:51Z</time>
      </trkpt>
      <trkpt lat="43.16871" lon="2.23416">
        <ele>284.21</ele>
        <time>2014-06-08T11:56:52Z</time>
      </trkpt>
      <trkpt lat="43.16873" lon="2.23429">
        <ele>284.21</ele>
        <time>2014-06-08T11:56:53Z</time>
      </trkpt>
      <trkpt lat="43.16875" lon="2.23443">
        <ele>284.21</ele>
        <time>2014-06-08T11:56:54Z</time>
      </trkpt>
      <trkpt lat="43.16874" lon="2.23456">
        <ele>284.69</ele>
        <time>2014-06-08T11:56:55Z</time>
      </trkpt>
      <trkpt lat="43.16873" lon="2.2347">
        <ele>284.69</ele>
        <time>2014-06-08T11:56:56Z</time>
      </trkpt>
      <trkpt lat="43.16874" lon="2.23483">
        <ele>284.69</ele>
        <time>2014-06-08T11:56:57Z</time>
      </trkpt>
      <trkpt lat="43.16877" lon="2.23496">
        <ele>284.21</ele>
        <time>2014-06-08T11:56:58Z</time>
      </trkpt>
      <trkpt lat="43.16881" lon="2.23509">
        <ele>284.21</ele>
        <time>2014-06-08T11:56:59Z</time>
      </trkpt>
      <trkpt lat="43.16886" lon="2.23521">
        <ele>284.21</ele>
        <time>2014-06-08T11:57:00Z</time>
      </trkpt>
      <trkpt lat="43.1689" lon="2.23534">
        <ele>283.73</ele>
        <time>2014-06-08T11:57:01Z</time>
      </trkpt>
      <trkpt lat="43.16893" lon="2.23547">
        <ele>283.73</ele>
        <time>2014-06-08T11:57:02Z</time>
      </trkpt>
      <trkpt lat="43.16894" lon="2.23559">
        <ele>283.25</ele>
        <time>2014-06-08T11:57:03Z</time>
      </trkpt>
      <trkpt lat="43.16891" lon="2.23571">
        <ele>282.77</ele>
        <time>2014-06-08T11:57:04Z</time>
      </trkpt>
      <trkpt lat="43.16887" lon="2.23583">
        <ele>281.8</ele>
        <time>2014-06-08T11:57:05Z</time>
      </trkpt>
      <trkpt lat="43.16883" lon="2.23596">
        <ele>281.32</ele>
        <time>2014-06-08T11:57:06Z</time>
      </trkpt>
      <trkpt lat="43.16881" lon="2.2361">
        <ele>280.84</ele>
        <time>2014-06-08T11:57:07Z</time>
      </trkpt>
      <trkpt lat="43.16882" lon="2.23624">
        <ele>280.36</ele>
        <time>2014-06-08T11:57:08Z</time>
      </trkpt>
      <trkpt lat="43.16886" lon="2.23635">
        <ele>279.4</ele>
        <time>2014-06-08T11:57:09Z</time>
      </trkpt>
      <trkpt lat="43.16893" lon="2.23645">
        <ele>278.92</ele>
        <time>2014-06-08T11:57:10Z</time>
      </trkpt>
      <trkpt lat="43.169" lon="2.23654">
        <ele>278.44</ele>
        <time>2014-06-08T11:57:11Z</time>
      </trkpt>
      <trkpt lat="43.16904" lon="2.23667">
        <ele>277.96</ele>
        <time>2014-06-08T11:57:12Z</time>
      </trkpt>
      <trkpt lat="43.16907" lon="2.2368">
        <ele>277.48</ele>
        <time>2014-06-08T11:57:13Z</time>
      </trkpt>
      <trkpt lat="43.16908" lon="2.23691">
        <ele>277</ele>
        <time>2014-06-08T11:57:14Z</time>
      </trkpt>
      <trkpt lat="43.16905" lon="2.23701">
        <ele>276.04</ele>
        <time>2014-06-08T11:57:15Z</time>
      </trkpt>
      <trkpt lat="43.16898" lon="2.23712">
        <ele>275.56</ele>
        <time>2014-06-08T11:57:16Z</time>
      </trkpt>
      <trkpt lat="43.16891" lon="2.23723">
        <ele>274.59</ele>
        <time>2014-06-08T11:57:17Z</time>
      </trkpt>
      <trkpt lat="43.16885" lon="2.23734">
        <ele>274.11</ele>
        <time>2014-06-08T11:57:18Z</time>
      </trkpt>
      <trkpt lat="43.16881" lon="2.23746">
        <ele>273.63</ele>
        <time>2014-06-08T11:57:19Z</time>
      </trkpt>
      <trkpt lat="43.16878" lon="2.23759">
        <ele>273.15</ele>
        <time>2014-06-08T11:57:20Z</time>
      </trkpt>
      <trkpt lat="43.16878" lon="2.23773">
        <ele>272.67</ele>
        <time>2014-06-08T11:57:21Z</time>
      </trkpt>
      <trkpt lat="43.1688" lon="2.23785">
        <ele>272.19</ele>
        <time>2014-06-08T11:57:22Z</time>
      </trkpt>
      <trkpt lat="43.16882" lon="2.23794">
        <ele>272.19</ele>
        <time>2014-06-08T11:57:23Z</time>
      </trkpt>
      <trkpt lat="43.16887" lon="2.23798">
        <ele>271.71</ele>
        <time>2014-06-08T11:57:24Z</time>
      </trkpt>
      <trkpt lat="43.16894" lon="2.23796">
        <ele>271.23</ele>
        <time>2014-06-08T11:57:25Z</time>
      </trkpt>
      <trkpt lat="43.16903" lon="2.23788">
        <ele>270.27</ele>
        <time>2014-06-08T11:57:26Z</time>
      </trkpt>
      <trkpt lat="43.16912" lon="2.23777">
        <ele>270.27</ele>
        <time>2014-06-08T11:57:27Z</time>
      </trkpt>
      <trkpt lat="43.16919" lon="2.23766">
        <ele>270.27</ele>
        <time>2014-06-08T11:57:28Z</time>
      </trkpt>
      <trkpt lat="43.16927" lon="2.23756">
        <ele>269.79</ele>
        <time>2014-06-08T11:57:29Z</time>
      </trkpt>
      <trkpt lat="43.16964" lon="2.23707">
        <ele>269.31</ele>
        <time>2014-06-08T11:57:34Z</time>
      </trkpt>
      <trkpt lat="43.16974" lon="2.23702">
        <ele>269.31</ele>
        <time>2014-06-08T11:57:35Z</time>
      </trkpt>
      <trkpt lat="43.16984" lon="2.237">
        <ele>269.31</ele>
        <time>2014-06-08T11:57:36Z</time>
      </trkpt>
      <trkpt lat="43.16994" lon="2.23701">
        <ele>269.31</ele>
        <time>2014-06-08T11:57:37Z</time>
      </trkpt>
      <trkpt lat="43.17004" lon="2.23703">
        <ele>269.31</ele>
        <time>2014-06-08T11:57:38Z</time>
      </trkpt>
      <trkpt lat="43.17044" lon="2.23711">
        <ele>268.83</ele>
        <time>2014-06-08T11:57:42Z</time>
      </trkpt>
      <trkpt lat="43.17053" lon="2.23716">
        <ele>268.35</ele>
        <time>2014-06-08T11:57:43Z</time>
      </trkpt>
      <trkpt lat="43.17061" lon="2.23725">
        <ele>268.35</ele>
        <time>2014-06-08T11:57:44Z</time>
      </trkpt>
      <trkpt lat="43.17069" lon="2.23736">
        <ele>268.83</ele>
        <time>2014-06-08T11:57:45Z</time>
      </trkpt>
      <trkpt lat="43.17074" lon="2.23748">
        <ele>269.31</ele>
        <time>2014-06-08T11:57:46Z</time>
      </trkpt>
      <trkpt lat="43.17077" lon="2.23761">
        <ele>269.79</ele>
        <time>2014-06-08T11:57:47Z</time>
      </trkpt>
      <trkpt lat="43.17086" lon="2.23796">
        <ele>270.27</ele>
        <time>2014-06-08T11:57:50Z</time>
      </trkpt>
      <trkpt lat="43.17091" lon="2.23807">
        <ele>270.27</ele>
        <time>2014-06-08T11:57:51Z</time>
      </trkpt>
      <trkpt lat="43.17101" lon="2.23825">
        <ele>270.27</ele>
        <time>2014-06-08T11:57:53Z</time>
      </trkpt>
      <trkpt lat="43.17181" lon="2.23948">
        <ele>269.31</ele>
        <time>2014-06-08T11:58:07Z</time>
      </trkpt>
      <trkpt lat="43.17214" lon="2.24029">
        <ele>269.31</ele>
        <time>2014-06-08T11:58:15Z</time>
      </trkpt>
      <trkpt lat="43.17216" lon="2.2404">
        <ele>268.83</ele>
        <time>2014-06-08T11:58:16Z</time>
      </trkpt>
      <trkpt lat="43.17217" lon="2.24051">
        <ele>268.83</ele>
        <time>2014-06-08T11:58:17Z</time>
      </trkpt>
      <trkpt lat="43.17218" lon="2.24063">
        <ele>268.83</ele>
        <time>2014-06-08T11:58:18Z</time>
      </trkpt>
      <trkpt lat="43.17216" lon="2.24075">
        <ele>268.35</ele>
        <time>2014-06-08T11:58:19Z</time>
      </trkpt>
      <trkpt lat="43.17213" lon="2.24086">
        <ele>268.35</ele>
        <time>2014-06-08T11:58:20Z</time>
      </trkpt>
      <trkpt lat="43.1721" lon="2.24097">
        <ele>267.86</ele>
        <time>2014-06-08T11:58:21Z</time>
      </trkpt>
      <trkpt lat="43.17205" lon="2.24108">
        <ele>267.38</ele>
        <time>2014-06-08T11:58:22Z</time>
      </trkpt>
      <trkpt lat="43.172" lon="2.24119">
        <ele>266.9</ele>
        <time>2014-06-08T11:58:23Z</time>
      </trkpt>
      <trkpt lat="43.17176" lon="2.24174">
        <ele>264.5</ele>
        <time>2014-06-08T11:58:28Z</time>
      </trkpt>
      <trkpt lat="43.17173" lon="2.24186">
        <ele>264.02</ele>
        <time>2014-06-08T11:58:29Z</time>
      </trkpt>
      <trkpt lat="43.17171" lon="2.24199">
        <ele>263.54</ele>
        <time>2014-06-08T11:58:30Z</time>
      </trkpt>
      <trkpt lat="43.17173" lon="2.2421">
        <ele>262.58</ele>
        <time>2014-06-08T11:58:31Z</time>
      </trkpt>
      <trkpt lat="43.17178" lon="2.24219">
        <ele>261.62</ele>
        <time>2014-06-08T11:58:32Z</time>
      </trkpt>
      <trkpt lat="43.17185" lon="2.24223">
        <ele>260.65</ele>
        <time>2014-06-08T11:58:33Z</time>
      </trkpt>
      <trkpt lat="43.17194" lon="2.24222">
        <ele>260.17</ele>
        <time>2014-06-08T11:58:34Z</time>
      </trkpt>
      <trkpt lat="43.17203" lon="2.24218">
        <ele>259.69</ele>
        <time>2014-06-08T11:58:35Z</time>
      </trkpt>
      <trkpt lat="43.17211" lon="2.24211">
        <ele>259.21</ele>
        <time>2014-06-08T11:58:36Z</time>
      </trkpt>
      <trkpt lat="43.17219" lon="2.24204">
        <ele>258.73</ele>
        <time>2014-06-08T11:58:37Z</time>
      </trkpt>
      <trkpt lat="43.17228" lon="2.24198">
        <ele>258.25</ele>
        <time>2014-06-08T11:58:38Z</time>
      </trkpt>
      <trkpt lat="43.17237" lon="2.24197">
        <ele>257.77</ele>
        <time>2014-06-08T11:58:39Z</time>
      </trkpt>
      <trkpt lat="43.17247" lon="2.24199">
        <ele>257.29</ele>
        <time>2014-06-08T11:58:40Z</time>
      </trkpt>
      <trkpt lat="43.17256" lon="2.24204">
        <ele>256.81</ele>
        <time>2014-06-08T11:58:41Z</time>
      </trkpt>
      <trkpt lat="43.17265" lon="2.24211">
        <ele>256.81</ele>
        <time>2014-06-08T11:58:42Z</time>
      </trkpt>
      <trkpt lat="43.17273" lon="2.24219">
        <ele>256.33</ele>
        <time>2014-06-08T11:58:43Z</time>
      </trkpt>
      <trkpt lat="43.17281" lon="2.24228">
        <ele>256.33</ele>
        <time>2014-06-08T11:58:44Z</time>
      </trkpt>
      <trkpt lat="43.17361" lon="2.24322">
        <ele>252.96</ele>
        <time>2014-06-08T11:58:54Z</time>
      </trkpt>
      <trkpt lat="43.17367" lon="2.24333">
        <ele>252.96</ele>
        <time>2014-06-08T11:58:55Z</time>
      </trkpt>
      <trkpt lat="43.17373" lon="2.24345">
        <ele>252.48</ele>
        <time>2014-06-08T11:58:56Z</time>
      </trkpt>
      <trkpt lat="43.17377" lon="2.24358">
        <ele>252.48</ele>
        <time>2014-06-08T11:58:57Z</time>
      </trkpt>
      <trkpt lat="43.1738" lon="2.24371">
        <ele>252.48</ele>
        <time>2014-06-08T11:58:58Z</time>
      </trkpt>
      <trkpt lat="43.17382" lon="2.24385">
        <ele>252</ele>
        <time>2014-06-08T11:58:59Z</time>
      </trkpt>
      <trkpt lat="43.17384" lon="2.24398">
        <ele>252</ele>
        <time>2014-06-08T11:59:00Z</time>
      </trkpt>
      <trkpt lat="43.174" lon="2.24481">
        <ele>250.56</ele>
        <time>2014-06-08T11:59:07Z</time>
      </trkpt>
      <trkpt lat="43.17404" lon="2.24491">
        <ele>250.56</ele>
        <time>2014-06-08T11:59:08Z</time>
      </trkpt>
      <trkpt lat="43.1741" lon="2.24499">
        <ele>250.08</ele>
        <time>2014-06-08T11:59:09Z</time>
      </trkpt>
      <trkpt lat="43.17417" lon="2.24505">
        <ele>249.6</ele>
        <time>2014-06-08T11:59:10Z</time>
      </trkpt>
      <trkpt lat="43.17425" lon="2.24509">
        <ele>249.12</ele>
        <time>2014-06-08T11:59:11Z</time>
      </trkpt>
      <trkpt lat="43.17434" lon="2.24511">
        <ele>248.64</ele>
        <time>2014-06-08T11:59:12Z</time>
      </trkpt>
      <trkpt lat="43.17443" lon="2.24511">
        <ele>248.16</ele>
        <time>2014-06-08T11:59:13Z</time>
      </trkpt>
      <trkpt lat="43.17568" lon="2.24515">
        <ele>241.91</ele>
        <time>2014-06-08T11:59:26Z</time>
      </trkpt>
      <trkpt lat="43.17578" lon="2.24517">
        <ele>241.43</ele>
        <time>2014-06-08T11:59:27Z</time>
      </trkpt>
      <trkpt lat="43.17588" lon="2.2452">
        <ele>240.95</ele>
        <time>2014-06-08T11:59:28Z</time>
      </trkpt>
      <trkpt lat="43.17596" lon="2.24526">
        <ele>240.95</ele>
        <time>2014-06-08T11:59:29Z</time>
      </trkpt>
      <trkpt lat="43.17604" lon="2.24534">
        <ele>240.47</ele>
        <time>2014-06-08T11:59:30Z</time>
      </trkpt>
      <trkpt lat="43.1761" lon="2.24544">
        <ele>240.47</ele>
        <time>2014-06-08T11:59:31Z</time>
      </trkpt>
      <trkpt lat="43.17615" lon="2.24555">
        <ele>239.99</ele>
        <time>2014-06-08T11:59:32Z</time>
      </trkpt>
      <trkpt lat="43.17618" lon="2.24566">
        <ele>239.99</ele>
        <time>2014-06-08T11:59:33Z</time>
      </trkpt>
      <trkpt lat="43.1762" lon="2.24578">
        <ele>239.99</ele>
        <time>2014-06-08T11:59:34Z</time>
      </trkpt>
      <trkpt lat="43.17621" lon="2.2459">
        <ele>239.99</ele>
        <time>2014-06-08T11:59:35Z</time>
      </trkpt>
      <trkpt lat="43.1762" lon="2.24602">
        <ele>239.51</ele>
        <time>2014-06-08T11:59:36Z</time>
      </trkpt>
      <trkpt lat="43.17618" lon="2.24613">
        <ele>239.51</ele>
        <time>2014-06-08T11:59:37Z</time>
      </trkpt>
      <trkpt lat="43.17615" lon="2.24624">
        <ele>239.02</ele>
        <time>2014-06-08T11:59:38Z</time>
      </trkpt>
      <trkpt lat="43.17611" lon="2.24634">
        <ele>238.54</ele>
        <time>2014-06-08T11:59:39Z</time>
      </trkpt>
      <trkpt lat="43.17606" lon="2.24644">
        <ele>238.54</ele>
        <time>2014-06-08T11:59:40Z</time>
      </trkpt>
      <trkpt lat="43.17562" lon="2.24733">
        <ele>237.58</ele>
        <time>2014-06-08T11:59:50Z</time>
      </trkpt>
      <trkpt lat="43.17556" lon="2.24752">
        <ele>237.58</ele>
        <time>2014-06-08T11:59:52Z</time>
      </trkpt>
      <trkpt lat="43.17554" lon="2.24762">
        <ele>237.1</ele>
        <time>2014-06-08T11:59:53Z</time>
      </trkpt>
      <trkpt lat="43.17553" lon="2.24773">
        <ele>237.1</ele>
        <time>2014-06-08T11:59:54Z</time>
      </trkpt>
      <trkpt lat="43.17554" lon="2.24783">
        <ele>236.62</ele>
        <time>2014-06-08T11:59:55Z</time>
      </trkpt>
      <trkpt lat="43.17554" lon="2.24792">
        <ele>236.62</ele>
        <time>2014-06-08T11:59:56Z</time>
      </trkpt>
      <trkpt lat="43.17556" lon="2.24802">
        <ele>236.62</ele>
        <time>2014-06-08T11:59:57Z</time>
      </trkpt>
      <trkpt lat="43.17574" lon="2.24893">
        <ele>234.7</ele>
        <time>2014-06-08T12:00:06Z</time>
      </trkpt>
      <trkpt lat="43.17582" lon="2.2491">
        <ele>234.22</ele>
        <time>2014-06-08T12:00:08Z</time>
      </trkpt>
      <trkpt lat="43.17592" lon="2.24926">
        <ele>233.74</ele>
        <time>2014-06-08T12:00:10Z</time>
      </trkpt>
      <trkpt lat="43.17597" lon="2.24933">
        <ele>233.26</ele>
        <time>2014-06-08T12:00:11Z</time>
      </trkpt>
      <trkpt lat="43.17603" lon="2.2494">
        <ele>233.26</ele>
        <time>2014-06-08T12:00:12Z</time>
      </trkpt>
      <trkpt lat="43.177" lon="2.25043">
        <ele>227.01</ele>
        <time>2014-06-08T12:00:28Z</time>
      </trkpt>
      <trkpt lat="43.17745" lon="2.25087">
        <ele>226.05</ele>
        <time>2014-06-08T12:00:35Z</time>
      </trkpt>
      <trkpt lat="43.17821" lon="2.25166">
        <ele>227.97</ele>
        <time>2014-06-08T12:00:47Z</time>
      </trkpt>
      <trkpt lat="43.17826" lon="2.25174">
        <ele>227.97</ele>
        <time>2014-06-08T12:00:48Z</time>
      </trkpt>
      <trkpt lat="43.17895" lon="2.25308">
        <ele>227.49</ele>
        <time>2014-06-08T12:01:04Z</time>
      </trkpt>
      <trkpt lat="43.1796" lon="2.25438">
        <ele>226.53</ele>
        <time>2014-06-08T12:01:20Z</time>
      </trkpt>
      <trkpt lat="43.17995" lon="2.25561">
        <ele>221.72</ele>
        <time>2014-06-08T12:01:33Z</time>
      </trkpt>
      <trkpt lat="43.18027" lon="2.25758">
        <ele>212.11</ele>
        <time>2014-06-08T12:01:51Z</time>
      </trkpt>
      <trkpt lat="43.18041" lon="2.25835">
        <ele>208.26</ele>
        <time>2014-06-08T12:01:58Z</time>
      </trkpt>
      <trkpt lat="43.18044" lon="2.25845">
        <ele>207.78</ele>
        <time>2014-06-08T12:01:59Z</time>
      </trkpt>
      <trkpt lat="43.18049" lon="2.25855">
        <ele>207.3</ele>
        <time>2014-06-08T12:02:00Z</time>
      </trkpt>
      <trkpt lat="43.18055" lon="2.25864">
        <ele>206.82</ele>
        <time>2014-06-08T12:02:01Z</time>
      </trkpt>
      <trkpt lat="43.18061" lon="2.25872">
        <ele>205.86</ele>
        <time>2014-06-08T12:02:02Z</time>
      </trkpt>
      <trkpt lat="43.18068" lon="2.25879">
        <ele>205.38</ele>
        <time>2014-06-08T12:02:03Z</time>
      </trkpt>
      <trkpt lat="43.18075" lon="2.25886">
        <ele>204.9</ele>
        <time>2014-06-08T12:02:04Z</time>
      </trkpt>
      <trkpt lat="43.18176" lon="2.25987">
        <ele>196.73</ele>
        <time>2014-06-08T12:02:17Z</time>
      </trkpt>
      <trkpt lat="43.18198" lon="2.26012">
        <ele>194.8</ele>
        <time>2014-06-08T12:02:20Z</time>
      </trkpt>
      <trkpt lat="43.18203" lon="2.26023">
        <ele>194.32</ele>
        <time>2014-06-08T12:02:21Z</time>
      </trkpt>
      <trkpt lat="43.18207" lon="2.26034">
        <ele>193.84</ele>
        <time>2014-06-08T12:02:22Z</time>
      </trkpt>
      <trkpt lat="43.1821" lon="2.26046">
        <ele>193.84</ele>
        <time>2014-06-08T12:02:23Z</time>
      </trkpt>
      <trkpt lat="43.18213" lon="2.26057">
        <ele>192.88</ele>
        <time>2014-06-08T12:02:24Z</time>
      </trkpt>
      <trkpt lat="43.18214" lon="2.26069">
        <ele>192.4</ele>
        <time>2014-06-08T12:02:25Z</time>
      </trkpt>
      <trkpt lat="43.18214" lon="2.2608">
        <ele>191.92</ele>
        <time>2014-06-08T12:02:26Z</time>
      </trkpt>
      <trkpt lat="43.18213" lon="2.26091">
        <ele>191.44</ele>
        <time>2014-06-08T12:02:27Z</time>
      </trkpt>
      <trkpt lat="43.18211" lon="2.26102">
        <ele>191.44</ele>
        <time>2014-06-08T12:02:28Z</time>
      </trkpt>
      <trkpt lat="43.18199" lon="2.26232">
        <ele>189.04</ele>
        <time>2014-06-08T12:02:40Z</time>
      </trkpt>
      <trkpt lat="43.182" lon="2.26243">
        <ele>189.04</ele>
        <time>2014-06-08T12:02:41Z</time>
      </trkpt>
      <trkpt lat="43.18202" lon="2.26253">
        <ele>188.56</ele>
        <time>2014-06-08T12:02:42Z</time>
      </trkpt>
      <trkpt lat="43.18206" lon="2.26263">
        <ele>188.08</ele>
        <time>2014-06-08T12:02:43Z</time>
      </trkpt>
      <trkpt lat="43.18212" lon="2.2627">
        <ele>187.59</ele>
        <time>2014-06-08T12:02:44Z</time>
      </trkpt>
      <trkpt lat="43.18219" lon="2.26277">
        <ele>187.59</ele>
        <time>2014-06-08T12:02:45Z</time>
      </trkpt>
      <trkpt lat="43.18227" lon="2.26281">
        <ele>187.11</ele>
        <time>2014-06-08T12:02:46Z</time>
      </trkpt>
      <trkpt lat="43.18235" lon="2.26284">
        <ele>186.63</ele>
        <time>2014-06-08T12:02:47Z</time>
      </trkpt>
      <trkpt lat="43.18243" lon="2.26286">
        <ele>186.15</ele>
        <time>2014-06-08T12:02:48Z</time>
      </trkpt>
      <trkpt lat="43.1835" lon="2.26317">
        <ele>184.71</ele>
        <time>2014-06-08T12:03:01Z</time>
      </trkpt>
      <trkpt lat="43.18385" lon="2.26331">
        <ele>185.67</ele>
        <time>2014-06-08T12:03:06Z</time>
      </trkpt>
      <trkpt lat="43.18397" lon="2.26339">
        <ele>185.67</ele>
        <time>2014-06-08T12:03:08Z</time>
      </trkpt>
      <trkpt lat="43.18403" lon="2.26344">
        <ele>186.15</ele>
        <time>2014-06-08T12:03:09Z</time>
      </trkpt>
      <trkpt lat="43.18407" lon="2.26351">
        <ele>186.15</ele>
        <time>2014-06-08T12:03:10Z</time>
      </trkpt>
      <trkpt lat="43.18473" lon="2.26467">
        <ele>186.15</ele>
        <time>2014-06-08T12:03:25Z</time>
      </trkpt>
      <trkpt lat="43.18509" lon="2.26554">
        <ele>187.11</ele>
        <time>2014-06-08T12:03:35Z</time>
      </trkpt>
      <trkpt lat="43.18511" lon="2.26564">
        <ele>187.11</ele>
        <time>2014-06-08T12:03:36Z</time>
      </trkpt>
      <trkpt lat="43.18512" lon="2.26574">
        <ele>187.11</ele>
        <time>2014-06-08T12:03:37Z</time>
      </trkpt>
      <trkpt lat="43.18499" lon="2.26678">
        <ele>186.15</ele>
        <time>2014-06-08T12:03:48Z</time>
      </trkpt>
      <trkpt lat="43.18458" lon="2.26833">
        <ele>182.31</ele>
        <time>2014-06-08T12:04:05Z</time>
      </trkpt>
      <trkpt lat="43.18443" lon="2.26901">
        <ele>180.38</ele>
        <time>2014-06-08T12:04:12Z</time>
      </trkpt>
      <trkpt lat="43.18443" lon="2.26912">
        <ele>179.9</ele>
        <time>2014-06-08T12:04:13Z</time>
      </trkpt>
      <trkpt lat="43.18443" lon="2.26923">
        <ele>179.9</ele>
        <time>2014-06-08T12:04:14Z</time>
      </trkpt>
      <trkpt lat="43.18444" lon="2.26933">
        <ele>179.42</ele>
        <time>2014-06-08T12:04:15Z</time>
      </trkpt>
      <trkpt lat="43.18445" lon="2.26944">
        <ele>179.42</ele>
        <time>2014-06-08T12:04:16Z</time>
      </trkpt>
      <trkpt lat="43.18446" lon="2.26955">
        <ele>178.94</ele>
        <time>2014-06-08T12:04:17Z</time>
      </trkpt>
      <trkpt lat="43.18454" lon="2.27093">
        <ele>174.14</ele>
        <time>2014-06-08T12:04:30Z</time>
      </trkpt>
      <trkpt lat="43.18428" lon="2.27245">
        <ele>171.73</ele>
        <time>2014-06-08T12:04:45Z</time>
      </trkpt>
      <trkpt lat="43.18413" lon="2.27409">
        <ele>168.85</ele>
        <time>2014-06-08T12:05:01Z</time>
      </trkpt>
      <trkpt lat="43.18407" lon="2.27567">
        <ele>165</ele>
        <time>2014-06-08T12:05:16Z</time>
      </trkpt>
      <trkpt lat="43.1842" lon="2.2774">
        <ele>162.6</ele>
        <time>2014-06-08T12:05:33Z</time>
      </trkpt>
      <trkpt lat="43.18431" lon="2.27899">
        <ele>160.2</ele>
        <time>2014-06-08T12:05:49Z</time>
      </trkpt>
      <trkpt lat="43.18449" lon="2.27998">
        <ele>159.24</ele>
        <time>2014-06-08T12:06:00Z</time>
      </trkpt>
      <trkpt lat="43.18515" lon="2.28144">
        <ele>156.35</ele>
        <time>2014-06-08T12:06:18Z</time>
      </trkpt>
      <trkpt lat="43.18546" lon="2.28214">
        <ele>155.39</ele>
        <time>2014-06-08T12:06:27Z</time>
      </trkpt>
      <trkpt lat="43.18586" lon="2.28352">
        <ele>153.47</ele>
        <time>2014-06-08T12:06:43Z</time>
      </trkpt>
      <trkpt lat="43.18618" lon="2.28492">
        <ele>151.54</ele>
        <time>2014-06-08T12:07:00Z</time>
      </trkpt>
      <trkpt lat="43.18652" lon="2.28648">
        <ele>150.1</ele>
        <time>2014-06-08T12:07:18Z</time>
      </trkpt>
      <trkpt lat="43.18662" lon="2.28691">
        <ele>149.62</ele>
        <time>2014-06-08T12:07:23Z</time>
      </trkpt>
      <trkpt lat="43.18664" lon="2.287">
        <ele>149.14</ele>
        <time>2014-06-08T12:07:24Z</time>
      </trkpt>
      <trkpt lat="43.18702" lon="2.28806">
        <ele>147.22</ele>
        <time>2014-06-08T12:07:37Z</time>
      </trkpt>
      <trkpt lat="43.18772" lon="2.28908">
        <ele>144.34</ele>
        <time>2014-06-08T12:07:52Z</time>
      </trkpt>
      <trkpt lat="43.18851" lon="2.2902">
        <ele>140.49</ele>
        <time>2014-06-08T12:08:08Z</time>
      </trkpt>
      <trkpt lat="43.18897" lon="2.29154">
        <ele>137.61</ele>
        <time>2014-06-08T12:08:23Z</time>
      </trkpt>
      <trkpt lat="43.18946" lon="2.29308">
        <ele>134.72</ele>
        <time>2014-06-08T12:08:40Z</time>
      </trkpt>
      <trkpt lat="43.1902" lon="2.2946">
        <ele>130.4</ele>
        <time>2014-06-08T12:08:59Z</time>
      </trkpt>
      <trkpt lat="43.19089" lon="2.29596">
        <ele>128.47</ele>
        <time>2014-06-08T12:09:16Z</time>
      </trkpt>
      <trkpt lat="43.19159" lon="2.29732">
        <ele>127.51</ele>
        <time>2014-06-08T12:09:34Z</time>
      </trkpt>
      <trkpt lat="43.19198" lon="2.29807">
        <ele>127.03</ele>
        <time>2014-06-08T12:09:45Z</time>
      </trkpt>
      <trkpt lat="43.19202" lon="2.29812">
        <ele>127.03</ele>
        <time>2014-06-08T12:09:46Z</time>
      </trkpt>
      <trkpt lat="43.19211" lon="2.29823">
        <ele>127.51</ele>
        <time>2014-06-08T12:09:48Z</time>
      </trkpt>
      <trkpt lat="43.19217" lon="2.29827">
        <ele>127.51</ele>
        <time>2014-06-08T12:09:49Z</time>
      </trkpt>
      <trkpt lat="43.19228" lon="2.29833">
        <ele>128.47</ele>
        <time>2014-06-08T12:09:51Z</time>
      </trkpt>
      <trkpt lat="43.19234" lon="2.29834">
        <ele>128.47</ele>
        <time>2014-06-08T12:09:52Z</time>
      </trkpt>
      <trkpt lat="43.1924" lon="2.29836">
        <ele>128.47</ele>
        <time>2014-06-08T12:09:53Z</time>
      </trkpt>
      <trkpt lat="43.19299" lon="2.29853">
        <ele>127.51</ele>
        <time>2014-06-08T12:10:02Z</time>
      </trkpt>
      <trkpt lat="43.19322" lon="2.29872">
        <ele>127.03</ele>
        <time>2014-06-08T12:10:06Z</time>
      </trkpt>
      <trkpt lat="43.19327" lon="2.29878">
        <ele>127.03</ele>
        <time>2014-06-08T12:10:07Z</time>
      </trkpt>
      <trkpt lat="43.19332" lon="2.29885">
        <ele>127.03</ele>
        <time>2014-06-08T12:10:08Z</time>
      </trkpt>
      <trkpt lat="43.19336" lon="2.29893">
        <ele>126.55</ele>
        <time>2014-06-08T12:10:09Z</time>
      </trkpt>
      <trkpt lat="43.19339" lon="2.29901">
        <ele>126.55</ele>
        <time>2014-06-08T12:10:10Z</time>
      </trkpt>
      <trkpt lat="43.19342" lon="2.29909">
        <ele>126.55</ele>
        <time>2014-06-08T12:10:11Z</time>
      </trkpt>
      <trkpt lat="43.19344" lon="2.29918">
        <ele>126.55</ele>
        <time>2014-06-08T12:10:12Z</time>
      </trkpt>
      <trkpt lat="43.19345" lon="2.29926">
        <ele>126.55</ele>
        <time>2014-06-08T12:10:13Z</time>
      </trkpt>
      <trkpt lat="43.19346" lon="2.29935">
        <ele>126.55</ele>
        <time>2014-06-08T12:10:14Z</time>
      </trkpt>
      <trkpt lat="43.19345" lon="2.30085">
        <ele>126.07</ele>
        <time>2014-06-08T12:10:31Z</time>
      </trkpt>
      <trkpt lat="43.19337" lon="2.30219">
        <ele>125.59</ele>
        <time>2014-06-08T12:10:46Z</time>
      </trkpt>
      <trkpt lat="43.19328" lon="2.30357">
        <ele>125.11</ele>
        <time>2014-06-08T12:11:02Z</time>
      </trkpt>
      <trkpt lat="43.19318" lon="2.30501">
        <ele>124.15</ele>
        <time>2014-06-08T12:11:19Z</time>
      </trkpt>
      <trkpt lat="43.19308" lon="2.30659">
        <ele>123.67</ele>
        <time>2014-06-08T12:11:39Z</time>
      </trkpt>
      <trkpt lat="43.193" lon="2.30802">
        <ele>123.67</ele>
        <time>2014-06-08T12:11:57Z</time>
      </trkpt>
      <trkpt lat="43.1928" lon="2.30931">
        <ele>124.15</ele>
        <time>2014-06-08T12:12:14Z</time>
      </trkpt>
      <trkpt lat="43.19259" lon="2.30996">
        <ele>124.15</ele>
        <time>2014-06-08T12:12:23Z</time>
      </trkpt>
      <trkpt lat="43.19258" lon="2.31003">
        <ele>123.67</ele>
        <time>2014-06-08T12:12:24Z</time>
      </trkpt>
      <trkpt lat="43.19256" lon="2.31019">
        <ele>123.19</ele>
        <time>2014-06-08T12:12:26Z</time>
      </trkpt>
      <trkpt lat="43.19256" lon="2.31059">
        <ele>122.71</ele>
        <time>2014-06-08T12:12:31Z</time>
      </trkpt>
      <trkpt lat="43.19268" lon="2.31105">
        <ele>122.71</ele>
        <time>2014-06-08T12:12:37Z</time>
      </trkpt>
      <trkpt lat="43.19275" lon="2.31119">
        <ele>123.19</ele>
        <time>2014-06-08T12:12:39Z</time>
      </trkpt>
      <trkpt lat="43.19324" lon="2.31216">
        <ele>124.15</ele>
        <time>2014-06-08T12:12:54Z</time>
      </trkpt>
      <trkpt lat="43.19326" lon="2.31222">
        <ele>124.15</ele>
        <time>2014-06-08T12:12:55Z</time>
      </trkpt>
      <trkpt lat="43.19329" lon="2.31228">
        <ele>124.63</ele>
        <time>2014-06-08T12:12:56Z</time>
      </trkpt>
      <trkpt lat="43.19332" lon="2.31234">
        <ele>124.63</ele>
        <time>2014-06-08T12:12:57Z</time>
      </trkpt>
      <trkpt lat="43.19334" lon="2.3124">
        <ele>125.11</ele>
        <time>2014-06-08T12:12:58Z</time>
      </trkpt>
      <trkpt lat="43.19337" lon="2.31246">
        <ele>125.11</ele>
        <time>2014-06-08T12:12:59Z</time>
      </trkpt>
      <trkpt lat="43.19361" lon="2.31325">
        <ele>128.95</ele>
        <time>2014-06-08T12:13:11Z</time>
      </trkpt>
      <trkpt lat="43.19389" lon="2.31467">
        <ele>130.4</ele>
        <time>2014-06-08T12:13:31Z</time>
      </trkpt>
      <trkpt lat="43.19395" lon="2.31499">
        <ele>130.88</ele>
        <time>2014-06-08T12:13:36Z</time>
      </trkpt>
      <trkpt lat="43.19423" lon="2.31606">
        <ele>130.4</ele>
        <time>2014-06-08T12:13:52Z</time>
      </trkpt>
      <trkpt lat="43.19449" lon="2.31692">
        <ele>130.4</ele>
        <time>2014-06-08T12:14:05Z</time>
      </trkpt>
      <trkpt lat="43.19451" lon="2.31699">
        <ele>130.4</ele>
        <time>2014-06-08T12:14:06Z</time>
      </trkpt>
      <trkpt lat="43.19456" lon="2.31712">
        <ele>130.4</ele>
        <time>2014-06-08T12:14:08Z</time>
      </trkpt>
      <trkpt lat="43.19458" lon="2.31719">
        <ele>130.4</ele>
        <time>2014-06-08T12:14:09Z</time>
      </trkpt>
      <trkpt lat="43.19472" lon="2.31773">
        <ele>130.88</ele>
        <time>2014-06-08T12:14:17Z</time>
      </trkpt>
      <trkpt lat="43.19473" lon="2.3178">
        <ele>130.88</ele>
        <time>2014-06-08T12:14:18Z</time>
      </trkpt>
      <trkpt lat="43.19473" lon="2.31787">
        <ele>130.88</ele>
        <time>2014-06-08T12:14:19Z</time>
      </trkpt>
      <trkpt lat="43.19472" lon="2.31794">
        <ele>130.88</ele>
        <time>2014-06-08T12:14:20Z</time>
      </trkpt>
      <trkpt lat="43.1947" lon="2.31802">
        <ele>130.88</ele>
        <time>2014-06-08T12:14:21Z</time>
      </trkpt>
      <trkpt lat="43.19468" lon="2.31808">
        <ele>131.36</ele>
        <time>2014-06-08T12:14:22Z</time>
      </trkpt>
      <trkpt lat="43.19462" lon="2.31835">
        <ele>131.36</ele>
        <time>2014-06-08T12:14:26Z</time>
      </trkpt>
      <trkpt lat="43.19462" lon="2.31842">
        <ele>131.36</ele>
        <time>2014-06-08T12:14:27Z</time>
      </trkpt>
      <trkpt lat="43.19462" lon="2.31849">
        <ele>131.36</ele>
        <time>2014-06-08T12:14:28Z</time>
      </trkpt>
      <trkpt lat="43.19464" lon="2.31855">
        <ele>131.84</ele>
        <time>2014-06-08T12:14:29Z</time>
      </trkpt>
      <trkpt lat="43.19466" lon="2.31861">
        <ele>131.84</ele>
        <time>2014-06-08T12:14:30Z</time>
      </trkpt>
      <trkpt lat="43.19469" lon="2.31866">
        <ele>132.32</ele>
        <time>2014-06-08T12:14:31Z</time>
      </trkpt>
      <trkpt lat="43.19473" lon="2.31871">
        <ele>132.8</ele>
        <time>2014-06-08T12:14:32Z</time>
      </trkpt>
      <trkpt lat="43.19477" lon="2.31876">
        <ele>132.8</ele>
        <time>2014-06-08T12:14:33Z</time>
      </trkpt>
      <trkpt lat="43.1948" lon="2.3188">
        <ele>133.28</ele>
        <time>2014-06-08T12:14:34Z</time>
      </trkpt>
      <trkpt lat="43.1951" lon="2.3193">
        <ele>135.68</ele>
        <time>2014-06-08T12:14:43Z</time>
      </trkpt>
      <trkpt lat="43.19513" lon="2.31935">
        <ele>135.68</ele>
        <time>2014-06-08T12:14:44Z</time>
      </trkpt>
      <trkpt lat="43.19518" lon="2.31947">
        <ele>136.16</ele>
        <time>2014-06-08T12:14:46Z</time>
      </trkpt>
      <trkpt lat="43.1953" lon="2.3198">
        <ele>137.61</ele>
        <time>2014-06-08T12:14:51Z</time>
      </trkpt>
      <trkpt lat="43.19532" lon="2.31986">
        <ele>137.61</ele>
        <time>2014-06-08T12:14:52Z</time>
      </trkpt>
      <trkpt lat="43.1957" lon="2.32081">
        <ele>140.01</ele>
        <time>2014-06-08T12:15:07Z</time>
      </trkpt>
      <trkpt lat="43.19593" lon="2.32125">
        <ele>140.49</ele>
        <time>2014-06-08T12:15:14Z</time>
      </trkpt>
      <trkpt lat="43.19597" lon="2.32131">
        <ele>140.49</ele>
        <time>2014-06-08T12:15:15Z</time>
      </trkpt>
      <trkpt lat="43.1962" lon="2.32161">
        <ele>139.53</ele>
        <time>2014-06-08T12:15:21Z</time>
      </trkpt>
      <trkpt lat="43.19623" lon="2.32168">
        <ele>139.53</ele>
        <time>2014-06-08T12:15:22Z</time>
      </trkpt>
      <trkpt lat="43.19624" lon="2.32175">
        <ele>139.53</ele>
        <time>2014-06-08T12:15:23Z</time>
      </trkpt>
      <trkpt lat="43.19624" lon="2.32182">
        <ele>139.05</ele>
        <time>2014-06-08T12:15:24Z</time>
      </trkpt>
      <trkpt lat="43.19623" lon="2.32189">
        <ele>139.05</ele>
        <time>2014-06-08T12:15:25Z</time>
      </trkpt>
      <trkpt lat="43.19621" lon="2.32195">
        <ele>139.05</ele>
        <time>2014-06-08T12:15:26Z</time>
      </trkpt>
      <trkpt lat="43.19624" lon="2.32237">
        <ele>137.61</ele>
        <time>2014-06-08T12:15:33Z</time>
      </trkpt>
      <trkpt lat="43.19635" lon="2.32243">
        <ele>137.13</ele>
        <time>2014-06-08T12:15:35Z</time>
      </trkpt>
      <trkpt lat="43.1964" lon="2.32246">
        <ele>137.13</ele>
        <time>2014-06-08T12:15:36Z</time>
      </trkpt>
      <trkpt lat="43.19646" lon="2.32249">
        <ele>136.64</ele>
        <time>2014-06-08T12:15:37Z</time>
      </trkpt>
      <trkpt lat="43.19651" lon="2.32253">
        <ele>136.64</ele>
        <time>2014-06-08T12:15:38Z</time>
      </trkpt>
      <trkpt lat="43.19731" lon="2.3235">
        <ele>131.36</ele>
        <time>2014-06-08T12:15:54Z</time>
      </trkpt>
      <trkpt lat="43.19757" lon="2.32388">
        <ele>129.92</ele>
        <time>2014-06-08T12:15:59Z</time>
      </trkpt>
      <trkpt lat="43.19805" lon="2.32483">
        <ele>127.03</ele>
        <time>2014-06-08T12:16:10Z</time>
      </trkpt>
      <trkpt lat="43.19856" lon="2.32598">
        <ele>123.19</ele>
        <time>2014-06-08T12:16:23Z</time>
      </trkpt>
      <trkpt lat="43.19867" lon="2.32624">
        <ele>121.74</ele>
        <time>2014-06-08T12:16:26Z</time>
      </trkpt>
      <trkpt lat="43.19894" lon="2.32685">
        <ele>119.34</ele>
        <time>2014-06-08T12:16:35Z</time>
      </trkpt>
      <trkpt lat="43.19909" lon="2.32707">
        <ele>118.86</ele>
        <time>2014-06-08T12:16:45Z</time>
      </trkpt>
      <trkpt lat="43.19924" lon="2.3273">
        <ele>118.86</ele>
        <time>2014-06-08T12:16:54Z</time>
      </trkpt>
      <trkpt lat="43.19985" lon="2.32811">
        <ele>115.5</ele>
        <time>2014-06-08T12:17:07Z</time>
      </trkpt>
      <trkpt lat="43.20036" lon="2.32878">
        <ele>115.01</ele>
        <time>2014-06-08T12:17:18Z</time>
      </trkpt>
      <trkpt lat="43.20095" lon="2.32927">
        <ele>114.05</ele>
        <time>2014-06-08T12:17:28Z</time>
      </trkpt>
      <trkpt lat="43.2018" lon="2.32992">
        <ele>113.09</ele>
        <time>2014-06-08T12:17:43Z</time>
      </trkpt>
      <trkpt lat="43.20237" lon="2.3305">
        <ele>113.57</ele>
        <time>2014-06-08T12:17:55Z</time>
      </trkpt>
      <trkpt lat="43.20242" lon="2.33055">
        <ele>113.57</ele>
        <time>2014-06-08T12:17:56Z</time>
      </trkpt>
      <trkpt lat="43.20246" lon="2.3306">
        <ele>113.57</ele>
        <time>2014-06-08T12:17:57Z</time>
      </trkpt>
      <trkpt lat="43.20312" lon="2.33129">
        <ele>113.57</ele>
        <time>2014-06-08T12:18:12Z</time>
      </trkpt>
      <trkpt lat="43.20377" lon="2.33205">
        <ele>113.57</ele>
        <time>2014-06-08T12:18:27Z</time>
      </trkpt>
      <trkpt lat="43.20428" lon="2.33273">
        <ele>113.09</ele>
        <time>2014-06-08T12:18:40Z</time>
      </trkpt>
      <trkpt lat="43.20431" lon="2.33279">
        <ele>113.09</ele>
        <time>2014-06-08T12:18:41Z</time>
      </trkpt>
      <trkpt lat="43.20433" lon="2.33286">
        <ele>113.09</ele>
        <time>2014-06-08T12:18:42Z</time>
      </trkpt>
      <trkpt lat="43.20439" lon="2.33307">
        <ele>113.09</ele>
        <time>2014-06-08T12:18:45Z</time>
      </trkpt>
      <trkpt lat="43.20442" lon="2.33313">
        <ele>113.09</ele>
        <time>2014-06-08T12:18:46Z</time>
      </trkpt>
      <trkpt lat="43.20446" lon="2.33319">
        <ele>113.09</ele>
        <time>2014-06-08T12:18:47Z</time>
      </trkpt>
      <trkpt lat="43.2045" lon="2.33323">
        <ele>113.09</ele>
        <time>2014-06-08T12:18:48Z</time>
      </trkpt>
      <trkpt lat="43.20456" lon="2.33326">
        <ele>113.09</ele>
        <time>2014-06-08T12:18:49Z</time>
      </trkpt>
      <trkpt lat="43.20462" lon="2.33328">
        <ele>113.09</ele>
        <time>2014-06-08T12:18:50Z</time>
      </trkpt>
      <trkpt lat="43.20468" lon="2.33329">
        <ele>113.09</ele>
        <time>2014-06-08T12:18:51Z</time>
      </trkpt>
      <trkpt lat="43.20473" lon="2.3333">
        <ele>113.09</ele>
        <time>2014-06-08T12:18:52Z</time>
      </trkpt>
      <trkpt lat="43.20479" lon="2.33331">
        <ele>112.61</ele>
        <time>2014-06-08T12:18:53Z</time>
      </trkpt>
      <trkpt lat="43.20485" lon="2.33333">
        <ele>112.61</ele>
        <time>2014-06-08T12:18:54Z</time>
      </trkpt>
      <trkpt lat="43.20491" lon="2.33337">
        <ele>112.61</ele>
        <time>2014-06-08T12:18:55Z</time>
      </trkpt>
      <trkpt lat="43.20567" lon="2.33404">
        <ele>112.61</ele>
        <time>2014-06-08T12:19:11Z</time>
      </trkpt>
      <trkpt lat="43.20631" lon="2.33473">
        <ele>112.61</ele>
        <time>2014-06-08T12:19:25Z</time>
      </trkpt>
      <trkpt lat="43.20649" lon="2.33493">
        <ele>112.61</ele>
        <time>2014-06-08T12:19:29Z</time>
      </trkpt>
      <trkpt lat="43.20706" lon="2.3357">
        <ele>112.61</ele>
        <time>2014-06-08T12:19:43Z</time>
      </trkpt>
      <trkpt lat="43.20769" lon="2.33668">
        <ele>110.69</ele>
        <time>2014-06-08T12:19:58Z</time>
      </trkpt>
      <trkpt lat="43.20838" lon="2.33761">
        <ele>109.73</ele>
        <time>2014-06-08T12:20:14Z</time>
      </trkpt>
      <trkpt lat="43.20902" lon="2.3383">
        <ele>110.21</ele>
        <time>2014-06-08T12:20:28Z</time>
      </trkpt>
      <trkpt lat="43.20906" lon="2.33835">
        <ele>110.21</ele>
        <time>2014-06-08T12:20:29Z</time>
      </trkpt>
      <trkpt lat="43.20913" lon="2.33846">
        <ele>110.21</ele>
        <time>2014-06-08T12:20:31Z</time>
      </trkpt>
      <trkpt lat="43.2092" lon="2.33857">
        <ele>110.21</ele>
        <time>2014-06-08T12:20:33Z</time>
      </trkpt>
      <trkpt lat="43.20924" lon="2.33863">
        <ele>110.69</ele>
        <time>2014-06-08T12:20:34Z</time>
      </trkpt>
      <trkpt lat="43.20927" lon="2.33869">
        <ele>110.69</ele>
        <time>2014-06-08T12:20:35Z</time>
      </trkpt>
      <trkpt lat="43.20965" lon="2.33927">
        <ele>112.13</ele>
        <time>2014-06-08T12:20:46Z</time>
      </trkpt>
      <trkpt lat="43.20969" lon="2.33932">
        <ele>112.13</ele>
        <time>2014-06-08T12:20:47Z</time>
      </trkpt>
      <trkpt lat="43.20972" lon="2.33937">
        <ele>112.13</ele>
        <time>2014-06-08T12:20:48Z</time>
      </trkpt>
      <trkpt lat="43.20986" lon="2.33958">
        <ele>112.13</ele>
        <time>2014-06-08T12:20:52Z</time>
      </trkpt>
      <trkpt lat="43.21023" lon="2.34016">
        <ele>112.13</ele>
        <time>2014-06-08T12:21:03Z</time>
      </trkpt>
      <trkpt lat="43.21068" lon="2.34087">
        <ele>114.05</ele>
        <time>2014-06-08T12:21:17Z</time>
      </trkpt>
      <trkpt lat="43.21071" lon="2.34093">
        <ele>114.05</ele>
        <time>2014-06-08T12:21:18Z</time>
      </trkpt>
      <trkpt lat="43.2108" lon="2.34122">
        <ele>114.53</ele>
        <time>2014-06-08T12:21:23Z</time>
      </trkpt>
      <trkpt lat="43.21081" lon="2.34128">
        <ele>114.53</ele>
        <time>2014-06-08T12:21:24Z</time>
      </trkpt>
      <trkpt lat="43.21083" lon="2.34132">
        <ele>115.01</ele>
        <time>2014-06-08T12:21:25Z</time>
      </trkpt>
      <trkpt lat="43.21084" lon="2.34137">
        <ele>115.5</ele>
        <time>2014-06-08T12:21:26Z</time>
      </trkpt>
      <trkpt lat="43.21087" lon="2.34141">
        <ele>115.98</ele>
        <time>2014-06-08T12:21:27Z</time>
      </trkpt>
      <trkpt lat="43.2109" lon="2.34142">
        <ele>116.46</ele>
        <time>2014-06-08T12:21:28Z</time>
      </trkpt>
      <trkpt lat="43.21092" lon="2.34142">
        <ele>116.46</ele>
        <time>2014-06-08T12:21:29Z</time>
      </trkpt>
      <trkpt lat="43.21094" lon="2.34141">
        <ele>116.94</ele>
        <time>2014-06-08T12:21:30Z</time>
      </trkpt>
      <trkpt lat="43.21095" lon="2.34139">
        <ele>117.42</ele>
        <time>2014-06-08T12:21:31Z</time>
      </trkpt>
      <trkpt lat="43.21095" lon="2.34138">
        <ele>117.42</ele>
        <time>2014-06-08T12:21:32Z</time>
      </trkpt>
      <trkpt lat="43.21095" lon="2.34136">
        <ele>117.9</ele>
        <time>2014-06-08T12:21:33Z</time>
      </trkpt>
      <trkpt lat="43.21095" lon="2.34135">
        <ele>117.9</ele>
        <time>2014-06-08T12:21:34Z</time>
      </trkpt>
      <trkpt lat="43.21095" lon="2.34133">
        <ele>118.38</ele>
        <time>2014-06-08T12:21:35Z</time>
      </trkpt>
      <trkpt lat="43.21092" lon="2.34113">
        <ele>118.86</ele>
        <time>2014-06-08T12:21:40Z</time>
      </trkpt>
      <trkpt lat="43.21091" lon="2.34108">
        <ele>118.86</ele>
        <time>2014-06-08T12:21:41Z</time>
      </trkpt>
      <trkpt lat="43.2109" lon="2.34102">
        <ele>118.86</ele>
        <time>2014-06-08T12:21:42Z</time>
      </trkpt>
      <trkpt lat="43.21091" lon="2.34095">
        <ele>118.86</ele>
        <time>2014-06-08T12:21:43Z</time>
      </trkpt>
      <trkpt lat="43.21091" lon="2.3409">
        <ele>118.86</ele>
        <time>2014-06-08T12:21:44Z</time>
      </trkpt>
      <trkpt lat="43.21093" lon="2.34084">
        <ele>118.86</ele>
        <time>2014-06-08T12:21:45Z</time>
      </trkpt>
      <trkpt lat="43.21095" lon="2.34082">
        <ele>118.86</ele>
        <time>2014-06-08T12:21:46Z</time>
      </trkpt>
      <trkpt lat="43.21098" lon="2.34082">
        <ele>118.86</ele>
        <time>2014-06-08T12:21:47Z</time>
      </trkpt>
      <trkpt lat="43.21101" lon="2.34083">
        <ele>118.86</ele>
        <time>2014-06-08T12:21:48Z</time>
      </trkpt>
      <trkpt lat="43.21105" lon="2.34084">
        <ele>118.86</ele>
        <time>2014-06-08T12:21:49Z</time>
      </trkpt>
      <trkpt lat="43.2112" lon="2.34086">
        <ele>118.86</ele>
        <time>2014-06-08T12:21:52Z</time>
      </trkpt>
      <trkpt lat="43.21129" lon="2.34088">
        <ele>118.86</ele>
        <time>2014-06-08T12:21:54Z</time>
      </trkpt>
      <trkpt lat="43.2118" lon="2.34097">
        <ele>117.42</ele>
        <time>2014-06-08T12:22:05Z</time>
      </trkpt>
      <trkpt lat="43.21198" lon="2.34099">
        <ele>116.46</ele>
        <time>2014-06-08T12:22:09Z</time>
      </trkpt>
      <trkpt lat="43.21217" lon="2.34102">
        <ele>115.98</ele>
        <time>2014-06-08T12:22:14Z</time>
      </trkpt>
      <trkpt lat="43.2123" lon="2.34104">
        <ele>115.98</ele>
        <time>2014-06-08T12:22:17Z</time>
      </trkpt>
      <trkpt lat="43.21244" lon="2.34107">
        <ele>115.98</ele>
        <time>2014-06-08T12:22:20Z</time>
      </trkpt>
      <trkpt lat="43.21249" lon="2.34107">
        <ele>115.98</ele>
        <time>2014-06-08T12:22:21Z</time>
      </trkpt>
      <trkpt lat="43.21254" lon="2.34108">
        <ele>115.98</ele>
        <time>2014-06-08T12:22:22Z</time>
      </trkpt>
      <trkpt lat="43.21291" lon="2.34114">
        <ele>113.57</ele>
        <time>2014-06-08T12:22:29Z</time>
      </trkpt>
      <trkpt lat="43.21326" lon="2.3412">
        <ele>114.53</ele>
        <time>2014-06-08T12:22:39Z</time>
      </trkpt>
      <trkpt lat="43.21353" lon="2.34123">
        <ele>115.98</ele>
        <time>2014-06-08T12:22:51Z</time>
      </trkpt>
      <trkpt lat="43.21354" lon="2.34119">
        <ele>115.98</ele>
        <time>2014-06-08T12:23:03Z</time>
      </trkpt>
    </trkseg>
  </trk>
</gpx>